<?xml version="1.0" encoding="UTF-8" standalone="no" ?>
<gpx xmlns="http://www.topografix.com/GPX/1/1" xmlns:xsi="http://www.w3.org/2001/XMLSchema-instance" xsi:schemaLocation="http://www.topografix.com/GPX/1/1 http://www.topografix.com/GPX/1/1/gpx.xsd" version="1.1" creator="VisuGPX - https://www.visugpx.com">
  <metadata>
    <name>St jacques étape 4, Espeyrac-15933302</name>
    <desc><![CDATA[St jacques étape 4, 60 km nuitée à Espeyrac]]></desc>
  </metadata>
  <trk>
    <name><![CDATA[St jacques étape 4, Espeyrac-15933302]]></name>
    <trkseg>
      <trkpt lat="44.60981" lon="2.03256">
        <ele>207</ele>
        <time>2022-12-09T15:01:40Z</time>
      </trkpt>
      <trkpt lat="44.60987" lon="2.0322">
        <ele>206</ele>
        <time>2022-12-09T15:01:45Z</time>
      </trkpt>
      <trkpt lat="44.6092" lon="2.03199">
        <ele>201</ele>
        <time>2022-12-09T15:01:57Z</time>
      </trkpt>
      <trkpt lat="44.60926" lon="2.03163">
        <ele>200</ele>
        <time>2022-12-09T15:02:02Z</time>
      </trkpt>
      <trkpt lat="44.60846" lon="2.03138">
        <ele>199</ele>
        <time>2022-12-09T15:02:16Z</time>
      </trkpt>
      <trkpt lat="44.60785" lon="2.03116">
        <ele>196</ele>
        <time>2022-12-09T15:02:27Z</time>
      </trkpt>
      <trkpt lat="44.60745" lon="2.03105">
        <ele>195</ele>
        <time>2022-12-09T15:02:35Z</time>
      </trkpt>
      <trkpt lat="44.6074" lon="2.03113">
        <ele>195</ele>
        <time>2022-12-09T15:02:36Z</time>
      </trkpt>
      <trkpt lat="44.60737" lon="2.03125">
        <ele>195</ele>
        <time>2022-12-09T15:02:38Z</time>
      </trkpt>
      <trkpt lat="44.60714" lon="2.03297">
        <ele>199</ele>
        <time>2022-12-09T15:03:00Z</time>
      </trkpt>
      <trkpt lat="44.60709" lon="2.03336">
        <ele>200</ele>
        <time>2022-12-09T15:03:05Z</time>
      </trkpt>
      <trkpt lat="44.6071" lon="2.03374">
        <ele>200</ele>
        <time>2022-12-09T15:03:10Z</time>
      </trkpt>
      <trkpt lat="44.60708" lon="2.03386">
        <ele>200</ele>
        <time>2022-12-09T15:03:11Z</time>
      </trkpt>
      <trkpt lat="44.60703" lon="2.03387">
        <ele>200</ele>
        <time>2022-12-09T15:03:12Z</time>
      </trkpt>
      <trkpt lat="44.60664" lon="2.03396">
        <ele>199</ele>
        <time>2022-12-09T15:03:19Z</time>
      </trkpt>
      <trkpt lat="44.60633" lon="2.03403">
        <ele>200</ele>
        <time>2022-12-09T15:03:25Z</time>
      </trkpt>
      <trkpt lat="44.60623" lon="2.0341">
        <ele>201</ele>
        <time>2022-12-09T15:03:27Z</time>
      </trkpt>
      <trkpt lat="44.60653" lon="2.03694">
        <ele>199</ele>
        <time>2022-12-09T15:04:03Z</time>
      </trkpt>
      <trkpt lat="44.60646" lon="2.03697">
        <ele>200</ele>
        <time>2022-12-09T15:04:04Z</time>
      </trkpt>
      <trkpt lat="44.60627" lon="2.03744">
        <ele>201</ele>
        <time>2022-12-09T15:04:11Z</time>
      </trkpt>
      <trkpt lat="44.60608" lon="2.03837">
        <ele>206</ele>
        <time>2022-12-09T15:04:23Z</time>
      </trkpt>
      <trkpt lat="44.60601" lon="2.03886">
        <ele>209</ele>
        <time>2022-12-09T15:04:30Z</time>
      </trkpt>
      <trkpt lat="44.60598" lon="2.03893">
        <ele>209</ele>
        <time>2022-12-09T15:04:31Z</time>
      </trkpt>
      <trkpt lat="44.60595" lon="2.03902">
        <ele>210</ele>
        <time>2022-12-09T15:04:32Z</time>
      </trkpt>
      <trkpt lat="44.60567" lon="2.03938">
        <ele>213</ele>
        <time>2022-12-09T15:04:39Z</time>
      </trkpt>
      <trkpt lat="44.60572" lon="2.03962">
        <ele>214</ele>
        <time>2022-12-09T15:04:42Z</time>
      </trkpt>
      <trkpt lat="44.60574" lon="2.03988">
        <ele>215</ele>
        <time>2022-12-09T15:04:45Z</time>
      </trkpt>
      <trkpt lat="44.60571" lon="2.04014">
        <ele>216</ele>
        <time>2022-12-09T15:04:49Z</time>
      </trkpt>
      <trkpt lat="44.60562" lon="2.04063">
        <ele>219</ele>
        <time>2022-12-09T15:04:55Z</time>
      </trkpt>
      <trkpt lat="44.6055" lon="2.04219">
        <ele>231</ele>
        <time>2022-12-09T15:05:15Z</time>
      </trkpt>
      <trkpt lat="44.6055" lon="2.04248">
        <ele>232</ele>
        <time>2022-12-09T15:05:19Z</time>
      </trkpt>
      <trkpt lat="44.60552" lon="2.04274">
        <ele>233</ele>
        <time>2022-12-09T15:05:22Z</time>
      </trkpt>
      <trkpt lat="44.60571" lon="2.04383">
        <ele>239</ele>
        <time>2022-12-09T15:05:36Z</time>
      </trkpt>
      <trkpt lat="44.60581" lon="2.04504">
        <ele>248</ele>
        <time>2022-12-09T15:05:52Z</time>
      </trkpt>
      <trkpt lat="44.60586" lon="2.0454">
        <ele>250</ele>
        <time>2022-12-09T15:05:56Z</time>
      </trkpt>
      <trkpt lat="44.60603" lon="2.04619">
        <ele>253</ele>
        <time>2022-12-09T15:06:07Z</time>
      </trkpt>
      <trkpt lat="44.60613" lon="2.04683">
        <ele>253</ele>
        <time>2022-12-09T15:06:15Z</time>
      </trkpt>
      <trkpt lat="44.60612" lon="2.0489">
        <ele>260</ele>
        <time>2022-12-09T15:06:41Z</time>
      </trkpt>
      <trkpt lat="44.60615" lon="2.04983">
        <ele>262</ele>
        <time>2022-12-09T15:06:53Z</time>
      </trkpt>
      <trkpt lat="44.60622" lon="2.05005">
        <ele>261</ele>
        <time>2022-12-09T15:06:56Z</time>
      </trkpt>
      <trkpt lat="44.60639" lon="2.05088">
        <ele>257</ele>
        <time>2022-12-09T15:07:07Z</time>
      </trkpt>
      <trkpt lat="44.60641" lon="2.05121">
        <ele>256</ele>
        <time>2022-12-09T15:07:11Z</time>
      </trkpt>
      <trkpt lat="44.60636" lon="2.05151">
        <ele>256</ele>
        <time>2022-12-09T15:07:15Z</time>
      </trkpt>
      <trkpt lat="44.60631" lon="2.05165">
        <ele>256</ele>
        <time>2022-12-09T15:07:17Z</time>
      </trkpt>
      <trkpt lat="44.60604" lon="2.05215">
        <ele>254</ele>
        <time>2022-12-09T15:07:25Z</time>
      </trkpt>
      <trkpt lat="44.60557" lon="2.05261">
        <ele>252</ele>
        <time>2022-12-09T15:07:35Z</time>
      </trkpt>
      <trkpt lat="44.60528" lon="2.05275">
        <ele>250</ele>
        <time>2022-12-09T15:07:41Z</time>
      </trkpt>
      <trkpt lat="44.60519" lon="2.05285">
        <ele>250</ele>
        <time>2022-12-09T15:07:43Z</time>
      </trkpt>
      <trkpt lat="44.60518" lon="2.05291">
        <ele>249</ele>
        <time>2022-12-09T15:07:43Z</time>
      </trkpt>
      <trkpt lat="44.60481" lon="2.05302">
        <ele>249</ele>
        <time>2022-12-09T15:07:50Z</time>
      </trkpt>
      <trkpt lat="44.60468" lon="2.05312">
        <ele>248</ele>
        <time>2022-12-09T15:07:53Z</time>
      </trkpt>
      <trkpt lat="44.60461" lon="2.05322">
        <ele>248</ele>
        <time>2022-12-09T15:07:55Z</time>
      </trkpt>
      <trkpt lat="44.60459" lon="2.0533">
        <ele>248</ele>
        <time>2022-12-09T15:07:56Z</time>
      </trkpt>
      <trkpt lat="44.60455" lon="2.05349">
        <ele>248</ele>
        <time>2022-12-09T15:07:58Z</time>
      </trkpt>
      <trkpt lat="44.60457" lon="2.05366">
        <ele>247</ele>
        <time>2022-12-09T15:08:00Z</time>
      </trkpt>
      <trkpt lat="44.6047" lon="2.05422">
        <ele>247</ele>
        <time>2022-12-09T15:08:08Z</time>
      </trkpt>
      <trkpt lat="44.60471" lon="2.05438">
        <ele>248</ele>
        <time>2022-12-09T15:08:10Z</time>
      </trkpt>
      <trkpt lat="44.60477" lon="2.05439">
        <ele>248</ele>
        <time>2022-12-09T15:08:11Z</time>
      </trkpt>
      <trkpt lat="44.60482" lon="2.05443">
        <ele>248</ele>
        <time>2022-12-09T15:08:12Z</time>
      </trkpt>
      <trkpt lat="44.60511" lon="2.05499">
        <ele>252</ele>
        <time>2022-12-09T15:08:21Z</time>
      </trkpt>
      <trkpt lat="44.60551" lon="2.05536">
        <ele>255</ele>
        <time>2022-12-09T15:08:29Z</time>
      </trkpt>
      <trkpt lat="44.60566" lon="2.05555">
        <ele>256</ele>
        <time>2022-12-09T15:08:33Z</time>
      </trkpt>
      <trkpt lat="44.60572" lon="2.05574">
        <ele>257</ele>
        <time>2022-12-09T15:08:35Z</time>
      </trkpt>
      <trkpt lat="44.60575" lon="2.05597">
        <ele>258</ele>
        <time>2022-12-09T15:08:38Z</time>
      </trkpt>
      <trkpt lat="44.60574" lon="2.05623">
        <ele>260</ele>
        <time>2022-12-09T15:08:42Z</time>
      </trkpt>
      <trkpt lat="44.60568" lon="2.0568">
        <ele>264</ele>
        <time>2022-12-09T15:08:49Z</time>
      </trkpt>
      <trkpt lat="44.60564" lon="2.05704">
        <ele>266</ele>
        <time>2022-12-09T15:08:52Z</time>
      </trkpt>
      <trkpt lat="44.60557" lon="2.05737">
        <ele>268</ele>
        <time>2022-12-09T15:08:57Z</time>
      </trkpt>
      <trkpt lat="44.60526" lon="2.05832">
        <ele>277</ele>
        <time>2022-12-09T15:09:10Z</time>
      </trkpt>
      <trkpt lat="44.6052" lon="2.05855">
        <ele>280</ele>
        <time>2022-12-09T15:09:13Z</time>
      </trkpt>
      <trkpt lat="44.60515" lon="2.05896">
        <ele>283</ele>
        <time>2022-12-09T15:09:18Z</time>
      </trkpt>
      <trkpt lat="44.60518" lon="2.05995">
        <ele>291</ele>
        <time>2022-12-09T15:09:31Z</time>
      </trkpt>
      <trkpt lat="44.60516" lon="2.06019">
        <ele>292</ele>
        <time>2022-12-09T15:09:34Z</time>
      </trkpt>
      <trkpt lat="44.60479" lon="2.06175">
        <ele>299</ele>
        <time>2022-12-09T15:09:55Z</time>
      </trkpt>
      <trkpt lat="44.6047" lon="2.06251">
        <ele>304</ele>
        <time>2022-12-09T15:10:04Z</time>
      </trkpt>
      <trkpt lat="44.60471" lon="2.0632">
        <ele>308</ele>
        <time>2022-12-09T15:10:13Z</time>
      </trkpt>
      <trkpt lat="44.60475" lon="2.06382">
        <ele>313</ele>
        <time>2022-12-09T15:10:21Z</time>
      </trkpt>
      <trkpt lat="44.60489" lon="2.06447">
        <ele>318</ele>
        <time>2022-12-09T15:10:30Z</time>
      </trkpt>
      <trkpt lat="44.60524" lon="2.06529">
        <ele>324</ele>
        <time>2022-12-09T15:10:42Z</time>
      </trkpt>
      <trkpt lat="44.60563" lon="2.066">
        <ele>328</ele>
        <time>2022-12-09T15:10:53Z</time>
      </trkpt>
      <trkpt lat="44.60597" lon="2.06688">
        <ele>334</ele>
        <time>2022-12-09T15:11:06Z</time>
      </trkpt>
      <trkpt lat="44.60621" lon="2.06766">
        <ele>336</ele>
        <time>2022-12-09T15:11:16Z</time>
      </trkpt>
      <trkpt lat="44.60624" lon="2.06824">
        <ele>337</ele>
        <time>2022-12-09T15:11:24Z</time>
      </trkpt>
      <trkpt lat="44.60616" lon="2.0688">
        <ele>337</ele>
        <time>2022-12-09T15:11:31Z</time>
      </trkpt>
      <trkpt lat="44.60564" lon="2.07009">
        <ele>344</ele>
        <time>2022-12-09T15:11:50Z</time>
      </trkpt>
      <trkpt lat="44.60556" lon="2.07043">
        <ele>345</ele>
        <time>2022-12-09T15:11:54Z</time>
      </trkpt>
      <trkpt lat="44.60563" lon="2.07087">
        <ele>346</ele>
        <time>2022-12-09T15:12:00Z</time>
      </trkpt>
      <trkpt lat="44.60578" lon="2.07134">
        <ele>347</ele>
        <time>2022-12-09T15:12:07Z</time>
      </trkpt>
      <trkpt lat="44.60632" lon="2.07278">
        <ele>351</ele>
        <time>2022-12-09T15:12:27Z</time>
      </trkpt>
      <trkpt lat="44.60652" lon="2.0732">
        <ele>352</ele>
        <time>2022-12-09T15:12:34Z</time>
      </trkpt>
      <trkpt lat="44.60672" lon="2.07333">
        <ele>353</ele>
        <time>2022-12-09T15:12:38Z</time>
      </trkpt>
      <trkpt lat="44.60844" lon="2.07413">
        <ele>358</ele>
        <time>2022-12-09T15:13:10Z</time>
      </trkpt>
      <trkpt lat="44.60857" lon="2.07422">
        <ele>359</ele>
        <time>2022-12-09T15:13:12Z</time>
      </trkpt>
      <trkpt lat="44.6087" lon="2.07434">
        <ele>359</ele>
        <time>2022-12-09T15:13:15Z</time>
      </trkpt>
      <trkpt lat="44.6088" lon="2.07452">
        <ele>359</ele>
        <time>2022-12-09T15:13:18Z</time>
      </trkpt>
      <trkpt lat="44.60901" lon="2.07522">
        <ele>361</ele>
        <time>2022-12-09T15:13:28Z</time>
      </trkpt>
      <trkpt lat="44.60928" lon="2.0763">
        <ele>367</ele>
        <time>2022-12-09T15:13:42Z</time>
      </trkpt>
      <trkpt lat="44.60955" lon="2.07699">
        <ele>370</ele>
        <time>2022-12-09T15:13:52Z</time>
      </trkpt>
      <trkpt lat="44.61101" lon="2.07932">
        <ele>377</ele>
        <time>2022-12-09T15:14:31Z</time>
      </trkpt>
      <trkpt lat="44.61113" lon="2.07938">
        <ele>377</ele>
        <time>2022-12-09T15:14:34Z</time>
      </trkpt>
      <trkpt lat="44.61128" lon="2.07941">
        <ele>377</ele>
        <time>2022-12-09T15:14:36Z</time>
      </trkpt>
      <trkpt lat="44.61153" lon="2.07937">
        <ele>378</ele>
        <time>2022-12-09T15:14:41Z</time>
      </trkpt>
      <trkpt lat="44.61213" lon="2.07916">
        <ele>380</ele>
        <time>2022-12-09T15:14:52Z</time>
      </trkpt>
      <trkpt lat="44.6124" lon="2.07916">
        <ele>380</ele>
        <time>2022-12-09T15:14:57Z</time>
      </trkpt>
      <trkpt lat="44.61259" lon="2.07924">
        <ele>380</ele>
        <time>2022-12-09T15:15:00Z</time>
      </trkpt>
      <trkpt lat="44.61276" lon="2.07938">
        <ele>380</ele>
        <time>2022-12-09T15:15:04Z</time>
      </trkpt>
      <trkpt lat="44.61287" lon="2.07952">
        <ele>381</ele>
        <time>2022-12-09T15:15:06Z</time>
      </trkpt>
      <trkpt lat="44.61301" lon="2.07977">
        <ele>381</ele>
        <time>2022-12-09T15:15:10Z</time>
      </trkpt>
      <trkpt lat="44.61309" lon="2.07996">
        <ele>382</ele>
        <time>2022-12-09T15:15:13Z</time>
      </trkpt>
      <trkpt lat="44.61314" lon="2.08021">
        <ele>382</ele>
        <time>2022-12-09T15:15:17Z</time>
      </trkpt>
      <trkpt lat="44.61316" lon="2.08036">
        <ele>383</ele>
        <time>2022-12-09T15:15:18Z</time>
      </trkpt>
      <trkpt lat="44.61309" lon="2.08286">
        <ele>387</ele>
        <time>2022-12-09T15:15:50Z</time>
      </trkpt>
      <trkpt lat="44.61308" lon="2.08379">
        <ele>389</ele>
        <time>2022-12-09T15:16:02Z</time>
      </trkpt>
      <trkpt lat="44.61315" lon="2.08425">
        <ele>390</ele>
        <time>2022-12-09T15:16:08Z</time>
      </trkpt>
      <trkpt lat="44.61329" lon="2.08473">
        <ele>390</ele>
        <time>2022-12-09T15:16:14Z</time>
      </trkpt>
      <trkpt lat="44.61348" lon="2.08514">
        <ele>389</ele>
        <time>2022-12-09T15:16:21Z</time>
      </trkpt>
      <trkpt lat="44.61373" lon="2.08549">
        <ele>388</ele>
        <time>2022-12-09T15:16:27Z</time>
      </trkpt>
      <trkpt lat="44.61416" lon="2.08558">
        <ele>390</ele>
        <time>2022-12-09T15:16:35Z</time>
      </trkpt>
      <trkpt lat="44.6146" lon="2.0858">
        <ele>391</ele>
        <time>2022-12-09T15:16:43Z</time>
      </trkpt>
      <trkpt lat="44.61478" lon="2.08604">
        <ele>391</ele>
        <time>2022-12-09T15:16:47Z</time>
      </trkpt>
      <trkpt lat="44.61488" lon="2.0863">
        <ele>390</ele>
        <time>2022-12-09T15:16:51Z</time>
      </trkpt>
      <trkpt lat="44.61492" lon="2.08683">
        <ele>390</ele>
        <time>2022-12-09T15:16:58Z</time>
      </trkpt>
      <trkpt lat="44.61447" lon="2.08839">
        <ele>385</ele>
        <time>2022-12-09T15:17:19Z</time>
      </trkpt>
      <trkpt lat="44.61444" lon="2.08859">
        <ele>385</ele>
        <time>2022-12-09T15:17:22Z</time>
      </trkpt>
      <trkpt lat="44.61446" lon="2.08882">
        <ele>385</ele>
        <time>2022-12-09T15:17:25Z</time>
      </trkpt>
      <trkpt lat="44.61454" lon="2.08904">
        <ele>385</ele>
        <time>2022-12-09T15:17:28Z</time>
      </trkpt>
      <trkpt lat="44.61506" lon="2.08983">
        <ele>379</ele>
        <time>2022-12-09T15:17:41Z</time>
      </trkpt>
      <trkpt lat="44.61512" lon="2.09001">
        <ele>377</ele>
        <time>2022-12-09T15:17:44Z</time>
      </trkpt>
      <trkpt lat="44.61515" lon="2.09019">
        <ele>376</ele>
        <time>2022-12-09T15:17:46Z</time>
      </trkpt>
      <trkpt lat="44.61514" lon="2.09056">
        <ele>374</ele>
        <time>2022-12-09T15:17:51Z</time>
      </trkpt>
      <trkpt lat="44.61511" lon="2.09111">
        <ele>372</ele>
        <time>2022-12-09T15:17:58Z</time>
      </trkpt>
      <trkpt lat="44.61472" lon="2.09572">
        <ele>360</ele>
        <time>2022-12-09T15:18:57Z</time>
      </trkpt>
      <trkpt lat="44.61474" lon="2.09605">
        <ele>359</ele>
        <time>2022-12-09T15:19:01Z</time>
      </trkpt>
      <trkpt lat="44.61476" lon="2.09619">
        <ele>358</ele>
        <time>2022-12-09T15:19:03Z</time>
      </trkpt>
      <trkpt lat="44.61487" lon="2.09648">
        <ele>356</ele>
        <time>2022-12-09T15:19:07Z</time>
      </trkpt>
      <trkpt lat="44.61496" lon="2.09662">
        <ele>355</ele>
        <time>2022-12-09T15:19:09Z</time>
      </trkpt>
      <trkpt lat="44.61561" lon="2.09748">
        <ele>349</ele>
        <time>2022-12-09T15:19:25Z</time>
      </trkpt>
      <trkpt lat="44.61656" lon="2.09889">
        <ele>344</ele>
        <time>2022-12-09T15:19:50Z</time>
      </trkpt>
      <trkpt lat="44.61688" lon="2.09961">
        <ele>342</ele>
        <time>2022-12-09T15:20:01Z</time>
      </trkpt>
      <trkpt lat="44.61733" lon="2.10056">
        <ele>342</ele>
        <time>2022-12-09T15:20:15Z</time>
      </trkpt>
      <trkpt lat="44.61756" lon="2.10118">
        <ele>344</ele>
        <time>2022-12-09T15:20:24Z</time>
      </trkpt>
      <trkpt lat="44.6181" lon="2.10328">
        <ele>339</ele>
        <time>2022-12-09T15:20:52Z</time>
      </trkpt>
      <trkpt lat="44.61838" lon="2.1045">
        <ele>340</ele>
        <time>2022-12-09T15:21:08Z</time>
      </trkpt>
      <trkpt lat="44.61841" lon="2.10511">
        <ele>341</ele>
        <time>2022-12-09T15:21:16Z</time>
      </trkpt>
      <trkpt lat="44.6184" lon="2.10666">
        <ele>344</ele>
        <time>2022-12-09T15:21:36Z</time>
      </trkpt>
      <trkpt lat="44.61846" lon="2.10715">
        <ele>344</ele>
        <time>2022-12-09T15:21:42Z</time>
      </trkpt>
      <trkpt lat="44.61857" lon="2.10764">
        <ele>344</ele>
        <time>2022-12-09T15:21:49Z</time>
      </trkpt>
      <trkpt lat="44.61877" lon="2.10831">
        <ele>341</ele>
        <time>2022-12-09T15:21:58Z</time>
      </trkpt>
      <trkpt lat="44.61888" lon="2.10909">
        <ele>339</ele>
        <time>2022-12-09T15:22:08Z</time>
      </trkpt>
      <trkpt lat="44.61871" lon="2.11076">
        <ele>329</ele>
        <time>2022-12-09T15:22:29Z</time>
      </trkpt>
      <trkpt lat="44.61876" lon="2.111">
        <ele>328</ele>
        <time>2022-12-09T15:22:32Z</time>
      </trkpt>
      <trkpt lat="44.61894" lon="2.11128">
        <ele>329</ele>
        <time>2022-12-09T15:22:37Z</time>
      </trkpt>
      <trkpt lat="44.61944" lon="2.11189">
        <ele>325</ele>
        <time>2022-12-09T15:22:49Z</time>
      </trkpt>
      <trkpt lat="44.62021" lon="2.11295">
        <ele>322</ele>
        <time>2022-12-09T15:23:08Z</time>
      </trkpt>
      <trkpt lat="44.621" lon="2.11433">
        <ele>319</ele>
        <time>2022-12-09T15:23:31Z</time>
      </trkpt>
      <trkpt lat="44.62104" lon="2.11447">
        <ele>319</ele>
        <time>2022-12-09T15:23:32Z</time>
      </trkpt>
      <trkpt lat="44.62103" lon="2.11458">
        <ele>318</ele>
        <time>2022-12-09T15:23:34Z</time>
      </trkpt>
      <trkpt lat="44.62099" lon="2.11469">
        <ele>318</ele>
        <time>2022-12-09T15:23:35Z</time>
      </trkpt>
      <trkpt lat="44.62056" lon="2.11553">
        <ele>313</ele>
        <time>2022-12-09T15:23:49Z</time>
      </trkpt>
      <trkpt lat="44.61495" lon="2.12625">
        <ele>281</ele>
        <time>2022-12-09T15:26:37Z</time>
      </trkpt>
      <trkpt lat="44.61481" lon="2.12664">
        <ele>281</ele>
        <time>2022-12-09T15:26:43Z</time>
      </trkpt>
      <trkpt lat="44.61473" lon="2.12715">
        <ele>280</ele>
        <time>2022-12-09T15:26:49Z</time>
      </trkpt>
      <trkpt lat="44.61473" lon="2.12723">
        <ele>280</ele>
        <time>2022-12-09T15:26:50Z</time>
      </trkpt>
      <trkpt lat="44.61476" lon="2.12865">
        <ele>280</ele>
        <time>2022-12-09T15:27:08Z</time>
      </trkpt>
      <trkpt lat="44.61471" lon="2.14815">
        <ele>264</ele>
        <time>2022-12-09T15:31:15Z</time>
      </trkpt>
      <trkpt lat="44.61472" lon="2.14862">
        <ele>265</ele>
        <time>2022-12-09T15:31:21Z</time>
      </trkpt>
      <trkpt lat="44.61479" lon="2.14902">
        <ele>264</ele>
        <time>2022-12-09T15:31:26Z</time>
      </trkpt>
      <trkpt lat="44.61489" lon="2.1493">
        <ele>263</ele>
        <time>2022-12-09T15:31:30Z</time>
      </trkpt>
      <trkpt lat="44.61536" lon="2.15055">
        <ele>265</ele>
        <time>2022-12-09T15:31:48Z</time>
      </trkpt>
      <trkpt lat="44.61543" lon="2.15078">
        <ele>266</ele>
        <time>2022-12-09T15:31:51Z</time>
      </trkpt>
      <trkpt lat="44.61544" lon="2.15097">
        <ele>267</ele>
        <time>2022-12-09T15:31:54Z</time>
      </trkpt>
      <trkpt lat="44.61542" lon="2.15115">
        <ele>269</ele>
        <time>2022-12-09T15:31:56Z</time>
      </trkpt>
      <trkpt lat="44.61536" lon="2.15129">
        <ele>271</ele>
        <time>2022-12-09T15:31:58Z</time>
      </trkpt>
      <trkpt lat="44.61488" lon="2.15181">
        <ele>277</ele>
        <time>2022-12-09T15:32:09Z</time>
      </trkpt>
      <trkpt lat="44.6148" lon="2.15205">
        <ele>278</ele>
        <time>2022-12-09T15:32:12Z</time>
      </trkpt>
      <trkpt lat="44.61473" lon="2.15285">
        <ele>279</ele>
        <time>2022-12-09T15:32:23Z</time>
      </trkpt>
      <trkpt lat="44.61457" lon="2.15373">
        <ele>280</ele>
        <time>2022-12-09T15:32:34Z</time>
      </trkpt>
      <trkpt lat="44.61449" lon="2.15401">
        <ele>279</ele>
        <time>2022-12-09T15:32:38Z</time>
      </trkpt>
      <trkpt lat="44.61424" lon="2.15457">
        <ele>276</ele>
        <time>2022-12-09T15:32:46Z</time>
      </trkpt>
      <trkpt lat="44.61418" lon="2.15477">
        <ele>274</ele>
        <time>2022-12-09T15:32:49Z</time>
      </trkpt>
      <trkpt lat="44.61414" lon="2.15526">
        <ele>272</ele>
        <time>2022-12-09T15:32:55Z</time>
      </trkpt>
      <trkpt lat="44.61408" lon="2.15551">
        <ele>274</ele>
        <time>2022-12-09T15:32:59Z</time>
      </trkpt>
      <trkpt lat="44.61391" lon="2.15603">
        <ele>275</ele>
        <time>2022-12-09T15:33:06Z</time>
      </trkpt>
      <trkpt lat="44.61354" lon="2.15685">
        <ele>276</ele>
        <time>2022-12-09T15:33:18Z</time>
      </trkpt>
      <trkpt lat="44.61338" lon="2.15715">
        <ele>276</ele>
        <time>2022-12-09T15:33:23Z</time>
      </trkpt>
      <trkpt lat="44.61333" lon="2.15737">
        <ele>277</ele>
        <time>2022-12-09T15:33:26Z</time>
      </trkpt>
      <trkpt lat="44.61332" lon="2.15757">
        <ele>278</ele>
        <time>2022-12-09T15:33:28Z</time>
      </trkpt>
      <trkpt lat="44.61335" lon="2.15775">
        <ele>277</ele>
        <time>2022-12-09T15:33:31Z</time>
      </trkpt>
      <trkpt lat="44.61376" lon="2.15883">
        <ele>278</ele>
        <time>2022-12-09T15:33:46Z</time>
      </trkpt>
      <trkpt lat="44.61386" lon="2.15925">
        <ele>278</ele>
        <time>2022-12-09T15:33:52Z</time>
      </trkpt>
      <trkpt lat="44.61389" lon="2.15962">
        <ele>277</ele>
        <time>2022-12-09T15:33:57Z</time>
      </trkpt>
      <trkpt lat="44.61395" lon="2.16082">
        <ele>276</ele>
        <time>2022-12-09T15:34:12Z</time>
      </trkpt>
      <trkpt lat="44.61401" lon="2.16267">
        <ele>277</ele>
        <time>2022-12-09T15:34:35Z</time>
      </trkpt>
      <trkpt lat="44.61389" lon="2.16318">
        <ele>277</ele>
        <time>2022-12-09T15:34:42Z</time>
      </trkpt>
      <trkpt lat="44.6136" lon="2.16378">
        <ele>278</ele>
        <time>2022-12-09T15:34:51Z</time>
      </trkpt>
      <trkpt lat="44.61347" lon="2.16436">
        <ele>280</ele>
        <time>2022-12-09T15:34:59Z</time>
      </trkpt>
      <trkpt lat="44.61331" lon="2.16467">
        <ele>281</ele>
        <time>2022-12-09T15:35:04Z</time>
      </trkpt>
      <trkpt lat="44.61308" lon="2.16503">
        <ele>281</ele>
        <time>2022-12-09T15:35:10Z</time>
      </trkpt>
      <trkpt lat="44.61163" lon="2.16634">
        <ele>291</ele>
        <time>2022-12-09T15:35:41Z</time>
      </trkpt>
      <trkpt lat="44.61139" lon="2.16668">
        <ele>293</ele>
        <time>2022-12-09T15:35:47Z</time>
      </trkpt>
      <trkpt lat="44.61123" lon="2.16707">
        <ele>294</ele>
        <time>2022-12-09T15:35:52Z</time>
      </trkpt>
      <trkpt lat="44.61118" lon="2.16738">
        <ele>295</ele>
        <time>2022-12-09T15:35:56Z</time>
      </trkpt>
      <trkpt lat="44.61116" lon="2.16818">
        <ele>301</ele>
        <time>2022-12-09T15:36:06Z</time>
      </trkpt>
      <trkpt lat="44.61108" lon="2.16863">
        <ele>304</ele>
        <time>2022-12-09T15:36:12Z</time>
      </trkpt>
      <trkpt lat="44.61082" lon="2.16923">
        <ele>306</ele>
        <time>2022-12-09T15:36:21Z</time>
      </trkpt>
      <trkpt lat="44.61061" lon="2.16949">
        <ele>310</ele>
        <time>2022-12-09T15:36:26Z</time>
      </trkpt>
      <trkpt lat="44.60971" lon="2.1707">
        <ele>320</ele>
        <time>2022-12-09T15:36:48Z</time>
      </trkpt>
      <trkpt lat="44.60927" lon="2.17115">
        <ele>318</ele>
        <time>2022-12-09T15:36:58Z</time>
      </trkpt>
      <trkpt lat="44.60908" lon="2.17138">
        <ele>318</ele>
        <time>2022-12-09T15:37:03Z</time>
      </trkpt>
      <trkpt lat="44.60897" lon="2.17158">
        <ele>318</ele>
        <time>2022-12-09T15:37:06Z</time>
      </trkpt>
      <trkpt lat="44.60887" lon="2.17181">
        <ele>319</ele>
        <time>2022-12-09T15:37:09Z</time>
      </trkpt>
      <trkpt lat="44.60877" lon="2.17211">
        <ele>319</ele>
        <time>2022-12-09T15:37:13Z</time>
      </trkpt>
      <trkpt lat="44.60869" lon="2.17244">
        <ele>321</ele>
        <time>2022-12-09T15:37:18Z</time>
      </trkpt>
      <trkpt lat="44.60866" lon="2.17261">
        <ele>322</ele>
        <time>2022-12-09T15:37:20Z</time>
      </trkpt>
      <trkpt lat="44.60866" lon="2.17284">
        <ele>323</ele>
        <time>2022-12-09T15:37:23Z</time>
      </trkpt>
      <trkpt lat="44.60871" lon="2.17315">
        <ele>326</ele>
        <time>2022-12-09T15:37:27Z</time>
      </trkpt>
      <trkpt lat="44.6088" lon="2.17343">
        <ele>329</ele>
        <time>2022-12-09T15:37:31Z</time>
      </trkpt>
      <trkpt lat="44.6089" lon="2.17364">
        <ele>331</ele>
        <time>2022-12-09T15:37:34Z</time>
      </trkpt>
      <trkpt lat="44.60908" lon="2.17394">
        <ele>333</ele>
        <time>2022-12-09T15:37:39Z</time>
      </trkpt>
      <trkpt lat="44.60931" lon="2.17419">
        <ele>335</ele>
        <time>2022-12-09T15:37:44Z</time>
      </trkpt>
      <trkpt lat="44.60947" lon="2.17439">
        <ele>336</ele>
        <time>2022-12-09T15:37:48Z</time>
      </trkpt>
      <trkpt lat="44.60954" lon="2.17457">
        <ele>337</ele>
        <time>2022-12-09T15:37:51Z</time>
      </trkpt>
      <trkpt lat="44.60958" lon="2.17474">
        <ele>338</ele>
        <time>2022-12-09T15:37:53Z</time>
      </trkpt>
      <trkpt lat="44.60959" lon="2.17493">
        <ele>338</ele>
        <time>2022-12-09T15:37:55Z</time>
      </trkpt>
      <trkpt lat="44.60941" lon="2.17634">
        <ele>343</ele>
        <time>2022-12-09T15:38:13Z</time>
      </trkpt>
      <trkpt lat="44.60938" lon="2.17689">
        <ele>344</ele>
        <time>2022-12-09T15:38:20Z</time>
      </trkpt>
      <trkpt lat="44.60939" lon="2.17755">
        <ele>344</ele>
        <time>2022-12-09T15:38:29Z</time>
      </trkpt>
      <trkpt lat="44.60944" lon="2.17775">
        <ele>343</ele>
        <time>2022-12-09T15:38:31Z</time>
      </trkpt>
      <trkpt lat="44.60952" lon="2.17792">
        <ele>342</ele>
        <time>2022-12-09T15:38:34Z</time>
      </trkpt>
      <trkpt lat="44.60968" lon="2.17808">
        <ele>341</ele>
        <time>2022-12-09T15:38:38Z</time>
      </trkpt>
      <trkpt lat="44.61036" lon="2.17865">
        <ele>338</ele>
        <time>2022-12-09T15:38:52Z</time>
      </trkpt>
      <trkpt lat="44.61052" lon="2.17889">
        <ele>337</ele>
        <time>2022-12-09T15:38:56Z</time>
      </trkpt>
      <trkpt lat="44.61066" lon="2.17924">
        <ele>336</ele>
        <time>2022-12-09T15:39:01Z</time>
      </trkpt>
      <trkpt lat="44.61093" lon="2.18025">
        <ele>334</ele>
        <time>2022-12-09T15:39:15Z</time>
      </trkpt>
      <trkpt lat="44.61115" lon="2.18082">
        <ele>333</ele>
        <time>2022-12-09T15:39:23Z</time>
      </trkpt>
      <trkpt lat="44.61139" lon="2.18133">
        <ele>333</ele>
        <time>2022-12-09T15:39:30Z</time>
      </trkpt>
      <trkpt lat="44.61157" lon="2.18167">
        <ele>333</ele>
        <time>2022-12-09T15:39:36Z</time>
      </trkpt>
      <trkpt lat="44.61182" lon="2.18192">
        <ele>335</ele>
        <time>2022-12-09T15:39:41Z</time>
      </trkpt>
      <trkpt lat="44.61218" lon="2.18215">
        <ele>337</ele>
        <time>2022-12-09T15:39:48Z</time>
      </trkpt>
      <trkpt lat="44.61256" lon="2.18214">
        <ele>338</ele>
        <time>2022-12-09T15:39:55Z</time>
      </trkpt>
      <trkpt lat="44.61346" lon="2.18207">
        <ele>340</ele>
        <time>2022-12-09T15:40:11Z</time>
      </trkpt>
      <trkpt lat="44.61392" lon="2.1823">
        <ele>339</ele>
        <time>2022-12-09T15:40:20Z</time>
      </trkpt>
      <trkpt lat="44.61464" lon="2.18221">
        <ele>341</ele>
        <time>2022-12-09T15:40:33Z</time>
      </trkpt>
      <trkpt lat="44.61494" lon="2.18228">
        <ele>343</ele>
        <time>2022-12-09T15:40:38Z</time>
      </trkpt>
      <trkpt lat="44.61507" lon="2.18243">
        <ele>344</ele>
        <time>2022-12-09T15:40:41Z</time>
      </trkpt>
      <trkpt lat="44.61524" lon="2.18291">
        <ele>345</ele>
        <time>2022-12-09T15:40:48Z</time>
      </trkpt>
      <trkpt lat="44.61528" lon="2.18322">
        <ele>346</ele>
        <time>2022-12-09T15:40:52Z</time>
      </trkpt>
      <trkpt lat="44.61515" lon="2.1862">
        <ele>357</ele>
        <time>2022-12-09T15:41:30Z</time>
      </trkpt>
      <trkpt lat="44.61518" lon="2.18663">
        <ele>361</ele>
        <time>2022-12-09T15:41:35Z</time>
      </trkpt>
      <trkpt lat="44.61524" lon="2.18701">
        <ele>365</ele>
        <time>2022-12-09T15:41:40Z</time>
      </trkpt>
      <trkpt lat="44.61532" lon="2.18736">
        <ele>368</ele>
        <time>2022-12-09T15:41:45Z</time>
      </trkpt>
      <trkpt lat="44.61574" lon="2.18895">
        <ele>376</ele>
        <time>2022-12-09T15:42:06Z</time>
      </trkpt>
      <trkpt lat="44.6158" lon="2.18932">
        <ele>377</ele>
        <time>2022-12-09T15:42:11Z</time>
      </trkpt>
      <trkpt lat="44.61585" lon="2.18977">
        <ele>377</ele>
        <time>2022-12-09T15:42:17Z</time>
      </trkpt>
      <trkpt lat="44.61584" lon="2.19016">
        <ele>377</ele>
        <time>2022-12-09T15:42:22Z</time>
      </trkpt>
      <trkpt lat="44.61551" lon="2.1915">
        <ele>387</ele>
        <time>2022-12-09T15:42:40Z</time>
      </trkpt>
      <trkpt lat="44.6155" lon="2.19168">
        <ele>387</ele>
        <time>2022-12-09T15:42:42Z</time>
      </trkpt>
      <trkpt lat="44.61552" lon="2.19182">
        <ele>388</ele>
        <time>2022-12-09T15:42:44Z</time>
      </trkpt>
      <trkpt lat="44.61558" lon="2.19198">
        <ele>389</ele>
        <time>2022-12-09T15:42:46Z</time>
      </trkpt>
      <trkpt lat="44.61571" lon="2.19214">
        <ele>390</ele>
        <time>2022-12-09T15:42:49Z</time>
      </trkpt>
      <trkpt lat="44.61588" lon="2.1922">
        <ele>391</ele>
        <time>2022-12-09T15:42:52Z</time>
      </trkpt>
      <trkpt lat="44.61674" lon="2.19233">
        <ele>395</ele>
        <time>2022-12-09T15:43:08Z</time>
      </trkpt>
      <trkpt lat="44.61687" lon="2.19242">
        <ele>396</ele>
        <time>2022-12-09T15:43:10Z</time>
      </trkpt>
      <trkpt lat="44.61695" lon="2.1925">
        <ele>397</ele>
        <time>2022-12-09T15:43:12Z</time>
      </trkpt>
      <trkpt lat="44.61704" lon="2.19268">
        <ele>397</ele>
        <time>2022-12-09T15:43:15Z</time>
      </trkpt>
      <trkpt lat="44.61706" lon="2.19293">
        <ele>398</ele>
        <time>2022-12-09T15:43:18Z</time>
      </trkpt>
      <trkpt lat="44.617" lon="2.19318">
        <ele>399</ele>
        <time>2022-12-09T15:43:21Z</time>
      </trkpt>
      <trkpt lat="44.61695" lon="2.19366">
        <ele>402</ele>
        <time>2022-12-09T15:43:27Z</time>
      </trkpt>
      <trkpt lat="44.61703" lon="2.19397">
        <ele>402</ele>
        <time>2022-12-09T15:43:32Z</time>
      </trkpt>
      <trkpt lat="44.61726" lon="2.19451">
        <ele>397</ele>
        <time>2022-12-09T15:43:40Z</time>
      </trkpt>
      <trkpt lat="44.61741" lon="2.19517">
        <ele>393</ele>
        <time>2022-12-09T15:43:48Z</time>
      </trkpt>
      <trkpt lat="44.61741" lon="2.19576">
        <ele>391</ele>
        <time>2022-12-09T15:43:56Z</time>
      </trkpt>
      <trkpt lat="44.61741" lon="2.19582">
        <ele>391</ele>
        <time>2022-12-09T15:43:57Z</time>
      </trkpt>
      <trkpt lat="44.61729" lon="2.19621">
        <ele>390</ele>
        <time>2022-12-09T15:44:02Z</time>
      </trkpt>
      <trkpt lat="44.61705" lon="2.19669">
        <ele>392</ele>
        <time>2022-12-09T15:44:09Z</time>
      </trkpt>
      <trkpt lat="44.61693" lon="2.19697">
        <ele>392</ele>
        <time>2022-12-09T15:44:14Z</time>
      </trkpt>
      <trkpt lat="44.61691" lon="2.19721">
        <ele>391</ele>
        <time>2022-12-09T15:44:17Z</time>
      </trkpt>
      <trkpt lat="44.61695" lon="2.1977">
        <ele>385</ele>
        <time>2022-12-09T15:44:23Z</time>
      </trkpt>
      <trkpt lat="44.61694" lon="2.19789">
        <ele>383</ele>
        <time>2022-12-09T15:44:25Z</time>
      </trkpt>
      <trkpt lat="44.61684" lon="2.19812">
        <ele>384</ele>
        <time>2022-12-09T15:44:29Z</time>
      </trkpt>
      <trkpt lat="44.61667" lon="2.19837">
        <ele>386</ele>
        <time>2022-12-09T15:44:33Z</time>
      </trkpt>
      <trkpt lat="44.61661" lon="2.19856">
        <ele>388</ele>
        <time>2022-12-09T15:44:36Z</time>
      </trkpt>
      <trkpt lat="44.61662" lon="2.19876">
        <ele>388</ele>
        <time>2022-12-09T15:44:38Z</time>
      </trkpt>
      <trkpt lat="44.61675" lon="2.19896">
        <ele>385</ele>
        <time>2022-12-09T15:44:42Z</time>
      </trkpt>
      <trkpt lat="44.61693" lon="2.19899">
        <ele>381</ele>
        <time>2022-12-09T15:44:45Z</time>
      </trkpt>
      <trkpt lat="44.61713" lon="2.19899">
        <ele>376</ele>
        <time>2022-12-09T15:44:48Z</time>
      </trkpt>
      <trkpt lat="44.61727" lon="2.19904">
        <ele>373</ele>
        <time>2022-12-09T15:44:51Z</time>
      </trkpt>
      <trkpt lat="44.6174" lon="2.19918">
        <ele>370</ele>
        <time>2022-12-09T15:44:54Z</time>
      </trkpt>
      <trkpt lat="44.61747" lon="2.19938">
        <ele>370</ele>
        <time>2022-12-09T15:44:57Z</time>
      </trkpt>
      <trkpt lat="44.6174" lon="2.19918">
        <ele>370</ele>
        <time>2022-12-09T15:45:00Z</time>
      </trkpt>
      <trkpt lat="44.61727" lon="2.19904">
        <ele>373</ele>
        <time>2022-12-09T15:45:03Z</time>
      </trkpt>
      <trkpt lat="44.61713" lon="2.19899">
        <ele>376</ele>
        <time>2022-12-09T15:45:05Z</time>
      </trkpt>
      <trkpt lat="44.61693" lon="2.19899">
        <ele>381</ele>
        <time>2022-12-09T15:45:09Z</time>
      </trkpt>
      <trkpt lat="44.61675" lon="2.19896">
        <ele>385</ele>
        <time>2022-12-09T15:45:12Z</time>
      </trkpt>
      <trkpt lat="44.61663" lon="2.19877">
        <ele>388</ele>
        <time>2022-12-09T15:45:15Z</time>
      </trkpt>
      <trkpt lat="44.61675" lon="2.19896">
        <ele>385</ele>
        <time>2022-12-09T15:45:18Z</time>
      </trkpt>
      <trkpt lat="44.61693" lon="2.19899">
        <ele>381</ele>
        <time>2022-12-09T15:45:22Z</time>
      </trkpt>
      <trkpt lat="44.61713" lon="2.19899">
        <ele>376</ele>
        <time>2022-12-09T15:45:25Z</time>
      </trkpt>
      <trkpt lat="44.61727" lon="2.19904">
        <ele>373</ele>
        <time>2022-12-09T15:45:28Z</time>
      </trkpt>
      <trkpt lat="44.6174" lon="2.19918">
        <ele>370</ele>
        <time>2022-12-09T15:45:31Z</time>
      </trkpt>
      <trkpt lat="44.61747" lon="2.19938">
        <ele>370</ele>
        <time>2022-12-09T15:45:33Z</time>
      </trkpt>
      <trkpt lat="44.6175" lon="2.19966">
        <ele>370</ele>
        <time>2022-12-09T15:45:37Z</time>
      </trkpt>
      <trkpt lat="44.61754" lon="2.19985">
        <ele>369</ele>
        <time>2022-12-09T15:45:39Z</time>
      </trkpt>
      <trkpt lat="44.61761" lon="2.20002">
        <ele>369</ele>
        <time>2022-12-09T15:45:42Z</time>
      </trkpt>
      <trkpt lat="44.6178" lon="2.20022">
        <ele>366</ele>
        <time>2022-12-09T15:45:46Z</time>
      </trkpt>
      <trkpt lat="44.61799" lon="2.2004">
        <ele>362</ele>
        <time>2022-12-09T15:45:50Z</time>
      </trkpt>
      <trkpt lat="44.6181" lon="2.20057">
        <ele>361</ele>
        <time>2022-12-09T15:45:53Z</time>
      </trkpt>
      <trkpt lat="44.61817" lon="2.20081">
        <ele>361</ele>
        <time>2022-12-09T15:45:56Z</time>
      </trkpt>
      <trkpt lat="44.61832" lon="2.20157">
        <ele>357</ele>
        <time>2022-12-09T15:46:06Z</time>
      </trkpt>
      <trkpt lat="44.61841" lon="2.20178">
        <ele>356</ele>
        <time>2022-12-09T15:46:10Z</time>
      </trkpt>
      <trkpt lat="44.6185" lon="2.20192">
        <ele>355</ele>
        <time>2022-12-09T15:46:12Z</time>
      </trkpt>
      <trkpt lat="44.61874" lon="2.20222">
        <ele>352</ele>
        <time>2022-12-09T15:46:18Z</time>
      </trkpt>
      <trkpt lat="44.6185" lon="2.20192">
        <ele>355</ele>
        <time>2022-12-09T15:46:23Z</time>
      </trkpt>
      <trkpt lat="44.61841" lon="2.20178">
        <ele>356</ele>
        <time>2022-12-09T15:46:26Z</time>
      </trkpt>
      <trkpt lat="44.61832" lon="2.20157">
        <ele>357</ele>
        <time>2022-12-09T15:46:29Z</time>
      </trkpt>
      <trkpt lat="44.61817" lon="2.20081">
        <ele>361</ele>
        <time>2022-12-09T15:46:39Z</time>
      </trkpt>
      <trkpt lat="44.6181" lon="2.20057">
        <ele>361</ele>
        <time>2022-12-09T15:46:42Z</time>
      </trkpt>
      <trkpt lat="44.61799" lon="2.2004">
        <ele>362</ele>
        <time>2022-12-09T15:46:45Z</time>
      </trkpt>
      <trkpt lat="44.6178" lon="2.20022">
        <ele>366</ele>
        <time>2022-12-09T15:46:49Z</time>
      </trkpt>
      <trkpt lat="44.61761" lon="2.20002">
        <ele>369</ele>
        <time>2022-12-09T15:46:53Z</time>
      </trkpt>
      <trkpt lat="44.61754" lon="2.19985">
        <ele>369</ele>
        <time>2022-12-09T15:46:56Z</time>
      </trkpt>
      <trkpt lat="44.6175" lon="2.19966">
        <ele>370</ele>
        <time>2022-12-09T15:46:58Z</time>
      </trkpt>
      <trkpt lat="44.61747" lon="2.19938">
        <ele>370</ele>
        <time>2022-12-09T15:47:02Z</time>
      </trkpt>
      <trkpt lat="44.6174" lon="2.19918">
        <ele>370</ele>
        <time>2022-12-09T15:47:05Z</time>
      </trkpt>
      <trkpt lat="44.61727" lon="2.19904">
        <ele>373</ele>
        <time>2022-12-09T15:47:08Z</time>
      </trkpt>
      <trkpt lat="44.61713" lon="2.19899">
        <ele>376</ele>
        <time>2022-12-09T15:47:10Z</time>
      </trkpt>
      <trkpt lat="44.61693" lon="2.19899">
        <ele>381</ele>
        <time>2022-12-09T15:47:14Z</time>
      </trkpt>
      <trkpt lat="44.61675" lon="2.19896">
        <ele>385</ele>
        <time>2022-12-09T15:47:17Z</time>
      </trkpt>
      <trkpt lat="44.61662" lon="2.19876">
        <ele>388</ele>
        <time>2022-12-09T15:47:20Z</time>
      </trkpt>
      <trkpt lat="44.61661" lon="2.19856">
        <ele>388</ele>
        <time>2022-12-09T15:47:23Z</time>
      </trkpt>
      <trkpt lat="44.61667" lon="2.19837">
        <ele>386</ele>
        <time>2022-12-09T15:47:26Z</time>
      </trkpt>
      <trkpt lat="44.61684" lon="2.19812">
        <ele>384</ele>
        <time>2022-12-09T15:47:30Z</time>
      </trkpt>
      <trkpt lat="44.61689" lon="2.198">
        <ele>384</ele>
        <time>2022-12-09T15:47:32Z</time>
      </trkpt>
      <trkpt lat="44.61684" lon="2.19812">
        <ele>384</ele>
        <time>2022-12-09T15:47:34Z</time>
      </trkpt>
      <trkpt lat="44.61667" lon="2.19837">
        <ele>386</ele>
        <time>2022-12-09T15:47:38Z</time>
      </trkpt>
      <trkpt lat="44.61661" lon="2.19856">
        <ele>388</ele>
        <time>2022-12-09T15:47:41Z</time>
      </trkpt>
      <trkpt lat="44.61662" lon="2.19876">
        <ele>388</ele>
        <time>2022-12-09T15:47:43Z</time>
      </trkpt>
      <trkpt lat="44.61675" lon="2.19896">
        <ele>385</ele>
        <time>2022-12-09T15:47:47Z</time>
      </trkpt>
      <trkpt lat="44.61693" lon="2.19899">
        <ele>381</ele>
        <time>2022-12-09T15:47:50Z</time>
      </trkpt>
      <trkpt lat="44.61713" lon="2.19899">
        <ele>376</ele>
        <time>2022-12-09T15:47:53Z</time>
      </trkpt>
      <trkpt lat="44.61727" lon="2.19904">
        <ele>373</ele>
        <time>2022-12-09T15:47:56Z</time>
      </trkpt>
      <trkpt lat="44.6174" lon="2.19918">
        <ele>370</ele>
        <time>2022-12-09T15:47:59Z</time>
      </trkpt>
      <trkpt lat="44.61747" lon="2.19938">
        <ele>370</ele>
        <time>2022-12-09T15:48:02Z</time>
      </trkpt>
      <trkpt lat="44.6175" lon="2.19966">
        <ele>370</ele>
        <time>2022-12-09T15:48:05Z</time>
      </trkpt>
      <trkpt lat="44.61754" lon="2.19985">
        <ele>369</ele>
        <time>2022-12-09T15:48:08Z</time>
      </trkpt>
      <trkpt lat="44.61761" lon="2.20002">
        <ele>369</ele>
        <time>2022-12-09T15:48:10Z</time>
      </trkpt>
      <trkpt lat="44.61786" lon="2.20028">
        <ele>365</ele>
        <time>2022-12-09T15:48:16Z</time>
      </trkpt>
      <trkpt lat="44.61799" lon="2.2004">
        <ele>362</ele>
        <time>2022-12-09T15:48:18Z</time>
      </trkpt>
      <trkpt lat="44.6181" lon="2.20057">
        <ele>361</ele>
        <time>2022-12-09T15:48:21Z</time>
      </trkpt>
      <trkpt lat="44.61817" lon="2.20081">
        <ele>361</ele>
        <time>2022-12-09T15:48:25Z</time>
      </trkpt>
      <trkpt lat="44.61832" lon="2.20157">
        <ele>357</ele>
        <time>2022-12-09T15:48:35Z</time>
      </trkpt>
      <trkpt lat="44.61841" lon="2.20178">
        <ele>356</ele>
        <time>2022-12-09T15:48:38Z</time>
      </trkpt>
      <trkpt lat="44.6185" lon="2.20192">
        <ele>355</ele>
        <time>2022-12-09T15:48:40Z</time>
      </trkpt>
      <trkpt lat="44.61872" lon="2.20219">
        <ele>352</ele>
        <time>2022-12-09T15:48:45Z</time>
      </trkpt>
      <trkpt lat="44.61884" lon="2.20237">
        <ele>351</ele>
        <time>2022-12-09T15:48:48Z</time>
      </trkpt>
      <trkpt lat="44.61892" lon="2.20262">
        <ele>350</ele>
        <time>2022-12-09T15:48:52Z</time>
      </trkpt>
      <trkpt lat="44.61895" lon="2.20285">
        <ele>349</ele>
        <time>2022-12-09T15:48:55Z</time>
      </trkpt>
      <trkpt lat="44.61895" lon="2.20304">
        <ele>348</ele>
        <time>2022-12-09T15:48:57Z</time>
      </trkpt>
      <trkpt lat="44.6189" lon="2.20332">
        <ele>348</ele>
        <time>2022-12-09T15:49:01Z</time>
      </trkpt>
      <trkpt lat="44.61877" lon="2.20358">
        <ele>348</ele>
        <time>2022-12-09T15:49:05Z</time>
      </trkpt>
      <trkpt lat="44.61865" lon="2.20371">
        <ele>348</ele>
        <time>2022-12-09T15:49:08Z</time>
      </trkpt>
      <trkpt lat="44.61837" lon="2.20394">
        <ele>351</ele>
        <time>2022-12-09T15:49:13Z</time>
      </trkpt>
      <trkpt lat="44.6182" lon="2.20411">
        <ele>354</ele>
        <time>2022-12-09T15:49:17Z</time>
      </trkpt>
      <trkpt lat="44.61811" lon="2.20428">
        <ele>355</ele>
        <time>2022-12-09T15:49:20Z</time>
      </trkpt>
      <trkpt lat="44.61806" lon="2.20455">
        <ele>355</ele>
        <time>2022-12-09T15:49:23Z</time>
      </trkpt>
      <trkpt lat="44.61791" lon="2.2065">
        <ele>345</ele>
        <time>2022-12-09T15:49:48Z</time>
      </trkpt>
      <trkpt lat="44.61786" lon="2.20672">
        <ele>344</ele>
        <time>2022-12-09T15:49:51Z</time>
      </trkpt>
      <trkpt lat="44.61759" lon="2.20732">
        <ele>344</ele>
        <time>2022-12-09T15:50:00Z</time>
      </trkpt>
      <trkpt lat="44.61751" lon="2.20752">
        <ele>344</ele>
        <time>2022-12-09T15:50:03Z</time>
      </trkpt>
      <trkpt lat="44.61747" lon="2.20771">
        <ele>343</ele>
        <time>2022-12-09T15:50:06Z</time>
      </trkpt>
      <trkpt lat="44.61742" lon="2.20799">
        <ele>343</ele>
        <time>2022-12-09T15:50:09Z</time>
      </trkpt>
      <trkpt lat="44.61727" lon="2.20947">
        <ele>339</ele>
        <time>2022-12-09T15:50:28Z</time>
      </trkpt>
      <trkpt lat="44.61716" lon="2.20974">
        <ele>339</ele>
        <time>2022-12-09T15:50:32Z</time>
      </trkpt>
      <trkpt lat="44.61702" lon="2.20988">
        <ele>340</ele>
        <time>2022-12-09T15:50:35Z</time>
      </trkpt>
      <trkpt lat="44.61676" lon="2.21006">
        <ele>343</ele>
        <time>2022-12-09T15:50:40Z</time>
      </trkpt>
      <trkpt lat="44.61659" lon="2.21023">
        <ele>342</ele>
        <time>2022-12-09T15:50:44Z</time>
      </trkpt>
      <trkpt lat="44.61645" lon="2.21048">
        <ele>340</ele>
        <time>2022-12-09T15:50:48Z</time>
      </trkpt>
      <trkpt lat="44.61627" lon="2.21089">
        <ele>335</ele>
        <time>2022-12-09T15:50:54Z</time>
      </trkpt>
      <trkpt lat="44.6162" lon="2.211">
        <ele>335</ele>
        <time>2022-12-09T15:50:56Z</time>
      </trkpt>
      <trkpt lat="44.6161" lon="2.21109">
        <ele>334</ele>
        <time>2022-12-09T15:50:58Z</time>
      </trkpt>
      <trkpt lat="44.61595" lon="2.21119">
        <ele>334</ele>
        <time>2022-12-09T15:51:01Z</time>
      </trkpt>
      <trkpt lat="44.6155" lon="2.2112">
        <ele>338</ele>
        <time>2022-12-09T15:51:09Z</time>
      </trkpt>
      <trkpt lat="44.61541" lon="2.21123">
        <ele>339</ele>
        <time>2022-12-09T15:51:11Z</time>
      </trkpt>
      <trkpt lat="44.6153" lon="2.21132">
        <ele>338</ele>
        <time>2022-12-09T15:51:13Z</time>
      </trkpt>
      <trkpt lat="44.61523" lon="2.21144">
        <ele>337</ele>
        <time>2022-12-09T15:51:15Z</time>
      </trkpt>
      <trkpt lat="44.61497" lon="2.21204">
        <ele>334</ele>
        <time>2022-12-09T15:51:24Z</time>
      </trkpt>
      <trkpt lat="44.61458" lon="2.21257">
        <ele>334</ele>
        <time>2022-12-09T15:51:34Z</time>
      </trkpt>
      <trkpt lat="44.61448" lon="2.21277">
        <ele>334</ele>
        <time>2022-12-09T15:51:37Z</time>
      </trkpt>
      <trkpt lat="44.61428" lon="2.21337">
        <ele>331</ele>
        <time>2022-12-09T15:51:45Z</time>
      </trkpt>
      <trkpt lat="44.6142" lon="2.21355">
        <ele>331</ele>
        <time>2022-12-09T15:51:48Z</time>
      </trkpt>
      <trkpt lat="44.61396" lon="2.21395">
        <ele>329</ele>
        <time>2022-12-09T15:51:54Z</time>
      </trkpt>
      <trkpt lat="44.61391" lon="2.21411">
        <ele>328</ele>
        <time>2022-12-09T15:51:57Z</time>
      </trkpt>
      <trkpt lat="44.61387" lon="2.21438">
        <ele>328</ele>
        <time>2022-12-09T15:52:00Z</time>
      </trkpt>
      <trkpt lat="44.61386" lon="2.21486">
        <ele>327</ele>
        <time>2022-12-09T15:52:06Z</time>
      </trkpt>
      <trkpt lat="44.61384" lon="2.21537">
        <ele>326</ele>
        <time>2022-12-09T15:52:13Z</time>
      </trkpt>
      <trkpt lat="44.61377" lon="2.2156">
        <ele>325</ele>
        <time>2022-12-09T15:52:16Z</time>
      </trkpt>
      <trkpt lat="44.61365" lon="2.21579">
        <ele>326</ele>
        <time>2022-12-09T15:52:19Z</time>
      </trkpt>
      <trkpt lat="44.61329" lon="2.21612">
        <ele>328</ele>
        <time>2022-12-09T15:52:27Z</time>
      </trkpt>
      <trkpt lat="44.61322" lon="2.21627">
        <ele>328</ele>
        <time>2022-12-09T15:52:29Z</time>
      </trkpt>
      <trkpt lat="44.6132" lon="2.21646">
        <ele>327</ele>
        <time>2022-12-09T15:52:31Z</time>
      </trkpt>
      <trkpt lat="44.61322" lon="2.21666">
        <ele>327</ele>
        <time>2022-12-09T15:52:34Z</time>
      </trkpt>
      <trkpt lat="44.61353" lon="2.21722">
        <ele>323</ele>
        <time>2022-12-09T15:52:43Z</time>
      </trkpt>
      <trkpt lat="44.6136" lon="2.21741">
        <ele>321</ele>
        <time>2022-12-09T15:52:46Z</time>
      </trkpt>
      <trkpt lat="44.61363" lon="2.21755">
        <ele>320</ele>
        <time>2022-12-09T15:52:47Z</time>
      </trkpt>
      <trkpt lat="44.61369" lon="2.21846">
        <ele>316</ele>
        <time>2022-12-09T15:52:59Z</time>
      </trkpt>
      <trkpt lat="44.61376" lon="2.21948">
        <ele>313</ele>
        <time>2022-12-09T15:53:12Z</time>
      </trkpt>
      <trkpt lat="44.61375" lon="2.21972">
        <ele>312</ele>
        <time>2022-12-09T15:53:15Z</time>
      </trkpt>
      <trkpt lat="44.61367" lon="2.22008">
        <ele>310</ele>
        <time>2022-12-09T15:53:20Z</time>
      </trkpt>
      <trkpt lat="44.61353" lon="2.22033">
        <ele>310</ele>
        <time>2022-12-09T15:53:24Z</time>
      </trkpt>
      <trkpt lat="44.61335" lon="2.22059">
        <ele>310</ele>
        <time>2022-12-09T15:53:28Z</time>
      </trkpt>
      <trkpt lat="44.61324" lon="2.22072">
        <ele>310</ele>
        <time>2022-12-09T15:53:31Z</time>
      </trkpt>
      <trkpt lat="44.61305" lon="2.22087">
        <ele>309</ele>
        <time>2022-12-09T15:53:35Z</time>
      </trkpt>
      <trkpt lat="44.61294" lon="2.22091">
        <ele>308</ele>
        <time>2022-12-09T15:53:37Z</time>
      </trkpt>
      <trkpt lat="44.61276" lon="2.22093">
        <ele>308</ele>
        <time>2022-12-09T15:53:40Z</time>
      </trkpt>
      <trkpt lat="44.61249" lon="2.22089">
        <ele>309</ele>
        <time>2022-12-09T15:53:45Z</time>
      </trkpt>
      <trkpt lat="44.61231" lon="2.22093">
        <ele>309</ele>
        <time>2022-12-09T15:53:48Z</time>
      </trkpt>
      <trkpt lat="44.61211" lon="2.2211">
        <ele>307</ele>
        <time>2022-12-09T15:53:52Z</time>
      </trkpt>
      <trkpt lat="44.61148" lon="2.22176">
        <ele>302</ele>
        <time>2022-12-09T15:54:06Z</time>
      </trkpt>
      <trkpt lat="44.61133" lon="2.22193">
        <ele>304</ele>
        <time>2022-12-09T15:54:10Z</time>
      </trkpt>
      <trkpt lat="44.61103" lon="2.22235">
        <ele>306</ele>
        <time>2022-12-09T15:54:17Z</time>
      </trkpt>
      <trkpt lat="44.61097" lon="2.22249">
        <ele>306</ele>
        <time>2022-12-09T15:54:19Z</time>
      </trkpt>
      <trkpt lat="44.61092" lon="2.22273">
        <ele>305</ele>
        <time>2022-12-09T15:54:23Z</time>
      </trkpt>
      <trkpt lat="44.61093" lon="2.22287">
        <ele>304</ele>
        <time>2022-12-09T15:54:24Z</time>
      </trkpt>
      <trkpt lat="44.61101" lon="2.22337">
        <ele>297</ele>
        <time>2022-12-09T15:54:31Z</time>
      </trkpt>
      <trkpt lat="44.61099" lon="2.22361">
        <ele>294</ele>
        <time>2022-12-09T15:54:34Z</time>
      </trkpt>
      <trkpt lat="44.61093" lon="2.22379">
        <ele>293</ele>
        <time>2022-12-09T15:54:36Z</time>
      </trkpt>
      <trkpt lat="44.6108" lon="2.22399">
        <ele>292</ele>
        <time>2022-12-09T15:54:40Z</time>
      </trkpt>
      <trkpt lat="44.61069" lon="2.2241">
        <ele>293</ele>
        <time>2022-12-09T15:54:42Z</time>
      </trkpt>
      <trkpt lat="44.61052" lon="2.22421">
        <ele>295</ele>
        <time>2022-12-09T15:54:46Z</time>
      </trkpt>
      <trkpt lat="44.61033" lon="2.22424">
        <ele>299</ele>
        <time>2022-12-09T15:54:49Z</time>
      </trkpt>
      <trkpt lat="44.61016" lon="2.2243">
        <ele>302</ele>
        <time>2022-12-09T15:54:52Z</time>
      </trkpt>
      <trkpt lat="44.61005" lon="2.22441">
        <ele>303</ele>
        <time>2022-12-09T15:54:54Z</time>
      </trkpt>
      <trkpt lat="44.61002" lon="2.2245">
        <ele>302</ele>
        <time>2022-12-09T15:54:56Z</time>
      </trkpt>
      <trkpt lat="44.61001" lon="2.22468">
        <ele>300</ele>
        <time>2022-12-09T15:54:58Z</time>
      </trkpt>
      <trkpt lat="44.61004" lon="2.22477">
        <ele>298</ele>
        <time>2022-12-09T15:54:59Z</time>
      </trkpt>
      <trkpt lat="44.61012" lon="2.22498">
        <ele>293</ele>
        <time>2022-12-09T15:55:02Z</time>
      </trkpt>
      <trkpt lat="44.61044" lon="2.22563">
        <ele>283</ele>
        <time>2022-12-09T15:55:12Z</time>
      </trkpt>
      <trkpt lat="44.61059" lon="2.226">
        <ele>276</ele>
        <time>2022-12-09T15:55:18Z</time>
      </trkpt>
      <trkpt lat="44.6106" lon="2.22609">
        <ele>275</ele>
        <time>2022-12-09T15:55:19Z</time>
      </trkpt>
      <trkpt lat="44.61059" lon="2.2262">
        <ele>274</ele>
        <time>2022-12-09T15:55:20Z</time>
      </trkpt>
      <trkpt lat="44.61056" lon="2.2263">
        <ele>273</ele>
        <time>2022-12-09T15:55:22Z</time>
      </trkpt>
      <trkpt lat="44.61047" lon="2.22642">
        <ele>274</ele>
        <time>2022-12-09T15:55:24Z</time>
      </trkpt>
      <trkpt lat="44.61041" lon="2.22648">
        <ele>274</ele>
        <time>2022-12-09T15:55:25Z</time>
      </trkpt>
      <trkpt lat="44.61022" lon="2.22657">
        <ele>276</ele>
        <time>2022-12-09T15:55:29Z</time>
      </trkpt>
      <trkpt lat="44.61003" lon="2.22662">
        <ele>278</ele>
        <time>2022-12-09T15:55:32Z</time>
      </trkpt>
      <trkpt lat="44.60993" lon="2.22662">
        <ele>279</ele>
        <time>2022-12-09T15:55:34Z</time>
      </trkpt>
      <trkpt lat="44.60926" lon="2.22644">
        <ele>283</ele>
        <time>2022-12-09T15:55:46Z</time>
      </trkpt>
      <trkpt lat="44.60905" lon="2.22641">
        <ele>287</ele>
        <time>2022-12-09T15:55:50Z</time>
      </trkpt>
      <trkpt lat="44.60888" lon="2.22653">
        <ele>287</ele>
        <time>2022-12-09T15:55:53Z</time>
      </trkpt>
      <trkpt lat="44.60876" lon="2.22669">
        <ele>285</ele>
        <time>2022-12-09T15:55:56Z</time>
      </trkpt>
      <trkpt lat="44.60871" lon="2.22681">
        <ele>285</ele>
        <time>2022-12-09T15:55:58Z</time>
      </trkpt>
      <trkpt lat="44.60865" lon="2.2271">
        <ele>281</ele>
        <time>2022-12-09T15:56:02Z</time>
      </trkpt>
      <trkpt lat="44.60863" lon="2.22755">
        <ele>274</ele>
        <time>2022-12-09T15:56:07Z</time>
      </trkpt>
      <trkpt lat="44.60861" lon="2.22773">
        <ele>273</ele>
        <time>2022-12-09T15:56:10Z</time>
      </trkpt>
      <trkpt lat="44.6085" lon="2.22804">
        <ele>272</ele>
        <time>2022-12-09T15:56:14Z</time>
      </trkpt>
      <trkpt lat="44.60841" lon="2.2282">
        <ele>271</ele>
        <time>2022-12-09T15:56:17Z</time>
      </trkpt>
      <trkpt lat="44.60828" lon="2.22833">
        <ele>270</ele>
        <time>2022-12-09T15:56:20Z</time>
      </trkpt>
      <trkpt lat="44.60813" lon="2.22843">
        <ele>269</ele>
        <time>2022-12-09T15:56:23Z</time>
      </trkpt>
      <trkpt lat="44.60799" lon="2.22849">
        <ele>269</ele>
        <time>2022-12-09T15:56:25Z</time>
      </trkpt>
      <trkpt lat="44.60783" lon="2.22851">
        <ele>269</ele>
        <time>2022-12-09T15:56:28Z</time>
      </trkpt>
      <trkpt lat="44.60764" lon="2.2285">
        <ele>269</ele>
        <time>2022-12-09T15:56:31Z</time>
      </trkpt>
      <trkpt lat="44.60668" lon="2.22834">
        <ele>265</ele>
        <time>2022-12-09T15:56:49Z</time>
      </trkpt>
      <trkpt lat="44.60634" lon="2.22834">
        <ele>265</ele>
        <time>2022-12-09T15:56:55Z</time>
      </trkpt>
      <trkpt lat="44.60592" lon="2.22839">
        <ele>265</ele>
        <time>2022-12-09T15:57:02Z</time>
      </trkpt>
      <trkpt lat="44.60569" lon="2.22843">
        <ele>265</ele>
        <time>2022-12-09T15:57:06Z</time>
      </trkpt>
      <trkpt lat="44.60552" lon="2.22853">
        <ele>264</ele>
        <time>2022-12-09T15:57:10Z</time>
      </trkpt>
      <trkpt lat="44.60499" lon="2.22888">
        <ele>256</ele>
        <time>2022-12-09T15:57:20Z</time>
      </trkpt>
      <trkpt lat="44.60451" lon="2.22923">
        <ele>252</ele>
        <time>2022-12-09T15:57:30Z</time>
      </trkpt>
      <trkpt lat="44.60426" lon="2.22957">
        <ele>248</ele>
        <time>2022-12-09T15:57:36Z</time>
      </trkpt>
      <trkpt lat="44.60399" lon="2.23001">
        <ele>242</ele>
        <time>2022-12-09T15:57:43Z</time>
      </trkpt>
      <trkpt lat="44.60392" lon="2.23008">
        <ele>240</ele>
        <time>2022-12-09T15:57:45Z</time>
      </trkpt>
      <trkpt lat="44.60379" lon="2.2302">
        <ele>238</ele>
        <time>2022-12-09T15:57:47Z</time>
      </trkpt>
      <trkpt lat="44.6029" lon="2.23085">
        <ele>229</ele>
        <time>2022-12-09T15:58:05Z</time>
      </trkpt>
      <trkpt lat="44.60266" lon="2.23095">
        <ele>226</ele>
        <time>2022-12-09T15:58:10Z</time>
      </trkpt>
      <trkpt lat="44.60222" lon="2.23109">
        <ele>222</ele>
        <time>2022-12-09T15:58:18Z</time>
      </trkpt>
      <trkpt lat="44.60209" lon="2.23107">
        <ele>223</ele>
        <time>2022-12-09T15:58:20Z</time>
      </trkpt>
      <trkpt lat="44.60201" lon="2.23101">
        <ele>224</ele>
        <time>2022-12-09T15:58:22Z</time>
      </trkpt>
      <trkpt lat="44.60196" lon="2.23094">
        <ele>226</ele>
        <time>2022-12-09T15:58:23Z</time>
      </trkpt>
      <trkpt lat="44.60194" lon="2.23083">
        <ele>228</ele>
        <time>2022-12-09T15:58:24Z</time>
      </trkpt>
      <trkpt lat="44.60195" lon="2.23069">
        <ele>230</ele>
        <time>2022-12-09T15:58:26Z</time>
      </trkpt>
      <trkpt lat="44.60203" lon="2.23051">
        <ele>233</ele>
        <time>2022-12-09T15:58:29Z</time>
      </trkpt>
      <trkpt lat="44.60204" lon="2.23037">
        <ele>235</ele>
        <time>2022-12-09T15:58:31Z</time>
      </trkpt>
      <trkpt lat="44.60202" lon="2.23027">
        <ele>237</ele>
        <time>2022-12-09T15:58:32Z</time>
      </trkpt>
      <trkpt lat="44.60195" lon="2.2302">
        <ele>239</ele>
        <time>2022-12-09T15:58:33Z</time>
      </trkpt>
      <trkpt lat="44.60187" lon="2.2302">
        <ele>239</ele>
        <time>2022-12-09T15:58:35Z</time>
      </trkpt>
      <trkpt lat="44.6018" lon="2.23024">
        <ele>239</ele>
        <time>2022-12-09T15:58:36Z</time>
      </trkpt>
      <trkpt lat="44.6016" lon="2.23044">
        <ele>235</ele>
        <time>2022-12-09T15:58:41Z</time>
      </trkpt>
      <trkpt lat="44.60104" lon="2.23115">
        <ele>221</ele>
        <time>2022-12-09T15:58:54Z</time>
      </trkpt>
      <trkpt lat="44.60088" lon="2.2313">
        <ele>219</ele>
        <time>2022-12-09T15:58:57Z</time>
      </trkpt>
      <trkpt lat="44.60046" lon="2.23159">
        <ele>214</ele>
        <time>2022-12-09T15:59:06Z</time>
      </trkpt>
      <trkpt lat="44.60015" lon="2.23175">
        <ele>212</ele>
        <time>2022-12-09T15:59:12Z</time>
      </trkpt>
      <trkpt lat="44.59976" lon="2.23189">
        <ele>212</ele>
        <time>2022-12-09T15:59:19Z</time>
      </trkpt>
      <trkpt lat="44.59979" lon="2.23204">
        <ele>212</ele>
        <time>2022-12-09T15:59:21Z</time>
      </trkpt>
      <trkpt lat="44.59984" lon="2.2321">
        <ele>212</ele>
        <time>2022-12-09T15:59:22Z</time>
      </trkpt>
      <trkpt lat="44.5999" lon="2.23212">
        <ele>211</ele>
        <time>2022-12-09T15:59:23Z</time>
      </trkpt>
      <trkpt lat="44.59998" lon="2.23211">
        <ele>211</ele>
        <time>2022-12-09T15:59:24Z</time>
      </trkpt>
      <trkpt lat="44.60004" lon="2.23206">
        <ele>211</ele>
        <time>2022-12-09T15:59:26Z</time>
      </trkpt>
      <trkpt lat="44.60014" lon="2.23203">
        <ele>211</ele>
        <time>2022-12-09T15:59:28Z</time>
      </trkpt>
      <trkpt lat="44.60081" lon="2.23213">
        <ele>207</ele>
        <time>2022-12-09T15:59:40Z</time>
      </trkpt>
      <trkpt lat="44.60101" lon="2.2321">
        <ele>206</ele>
        <time>2022-12-09T15:59:43Z</time>
      </trkpt>
      <trkpt lat="44.60174" lon="2.23174">
        <ele>209</ele>
        <time>2022-12-09T15:59:57Z</time>
      </trkpt>
      <trkpt lat="44.60217" lon="2.23155">
        <ele>211</ele>
        <time>2022-12-09T16:00:05Z</time>
      </trkpt>
      <trkpt lat="44.60261" lon="2.23143">
        <ele>212</ele>
        <time>2022-12-09T16:00:13Z</time>
      </trkpt>
      <trkpt lat="44.60364" lon="2.23111">
        <ele>215</ele>
        <time>2022-12-09T16:00:32Z</time>
      </trkpt>
      <trkpt lat="44.60405" lon="2.23102">
        <ele>214</ele>
        <time>2022-12-09T16:00:39Z</time>
      </trkpt>
      <trkpt lat="44.60468" lon="2.23104">
        <ele>211</ele>
        <time>2022-12-09T16:00:50Z</time>
      </trkpt>
      <trkpt lat="44.60621" lon="2.23087">
        <ele>216</ele>
        <time>2022-12-09T16:01:18Z</time>
      </trkpt>
      <trkpt lat="44.60638" lon="2.2309">
        <ele>216</ele>
        <time>2022-12-09T16:01:21Z</time>
      </trkpt>
      <trkpt lat="44.6067" lon="2.23102">
        <ele>213</ele>
        <time>2022-12-09T16:01:26Z</time>
      </trkpt>
      <trkpt lat="44.6079" lon="2.23155">
        <ele>204</ele>
        <time>2022-12-09T16:01:49Z</time>
      </trkpt>
      <trkpt lat="44.608" lon="2.23158">
        <ele>203</ele>
        <time>2022-12-09T16:01:51Z</time>
      </trkpt>
      <trkpt lat="44.60824" lon="2.23158">
        <ele>203</ele>
        <time>2022-12-09T16:01:55Z</time>
      </trkpt>
      <trkpt lat="44.60869" lon="2.23144">
        <ele>206</ele>
        <time>2022-12-09T16:02:03Z</time>
      </trkpt>
      <trkpt lat="44.60886" lon="2.23144">
        <ele>204</ele>
        <time>2022-12-09T16:02:06Z</time>
      </trkpt>
      <trkpt lat="44.60894" lon="2.2315">
        <ele>202</ele>
        <time>2022-12-09T16:02:08Z</time>
      </trkpt>
      <trkpt lat="44.60906" lon="2.23167">
        <ele>197</ele>
        <time>2022-12-09T16:02:11Z</time>
      </trkpt>
      <trkpt lat="44.60912" lon="2.23175">
        <ele>197</ele>
        <time>2022-12-09T16:02:12Z</time>
      </trkpt>
      <trkpt lat="44.60917" lon="2.23188">
        <ele>198</ele>
        <time>2022-12-09T16:02:14Z</time>
      </trkpt>
      <trkpt lat="44.60916" lon="2.23201">
        <ele>198</ele>
        <time>2022-12-09T16:02:16Z</time>
      </trkpt>
      <trkpt lat="44.60911" lon="2.23239">
        <ele>198</ele>
        <time>2022-12-09T16:02:21Z</time>
      </trkpt>
      <trkpt lat="44.60914" lon="2.23254">
        <ele>198</ele>
        <time>2022-12-09T16:02:23Z</time>
      </trkpt>
      <trkpt lat="44.60922" lon="2.23268">
        <ele>198</ele>
        <time>2022-12-09T16:02:25Z</time>
      </trkpt>
      <trkpt lat="44.6093" lon="2.23276">
        <ele>200</ele>
        <time>2022-12-09T16:02:27Z</time>
      </trkpt>
      <trkpt lat="44.60942" lon="2.23284">
        <ele>202</ele>
        <time>2022-12-09T16:02:29Z</time>
      </trkpt>
      <trkpt lat="44.60983" lon="2.23302">
        <ele>209</ele>
        <time>2022-12-09T16:02:37Z</time>
      </trkpt>
      <trkpt lat="44.6102" lon="2.23333">
        <ele>212</ele>
        <time>2022-12-09T16:02:44Z</time>
      </trkpt>
      <trkpt lat="44.61064" lon="2.23365">
        <ele>214</ele>
        <time>2022-12-09T16:02:53Z</time>
      </trkpt>
      <trkpt lat="44.61078" lon="2.23379">
        <ele>212</ele>
        <time>2022-12-09T16:02:56Z</time>
      </trkpt>
      <trkpt lat="44.61157" lon="2.23491">
        <ele>198</ele>
        <time>2022-12-09T16:03:16Z</time>
      </trkpt>
      <trkpt lat="44.612" lon="2.23542">
        <ele>200</ele>
        <time>2022-12-09T16:03:26Z</time>
      </trkpt>
      <trkpt lat="44.61215" lon="2.23567">
        <ele>199</ele>
        <time>2022-12-09T16:03:30Z</time>
      </trkpt>
      <trkpt lat="44.61252" lon="2.23619">
        <ele>197</ele>
        <time>2022-12-09T16:03:40Z</time>
      </trkpt>
      <trkpt lat="44.61295" lon="2.23666">
        <ele>200</ele>
        <time>2022-12-09T16:03:49Z</time>
      </trkpt>
      <trkpt lat="44.6132" lon="2.23708">
        <ele>199</ele>
        <time>2022-12-09T16:03:56Z</time>
      </trkpt>
      <trkpt lat="44.6134" lon="2.2376">
        <ele>194</ele>
        <time>2022-12-09T16:04:04Z</time>
      </trkpt>
      <trkpt lat="44.61362" lon="2.23807">
        <ele>193</ele>
        <time>2022-12-09T16:04:11Z</time>
      </trkpt>
      <trkpt lat="44.61381" lon="2.23829">
        <ele>192</ele>
        <time>2022-12-09T16:04:15Z</time>
      </trkpt>
      <trkpt lat="44.61415" lon="2.23859">
        <ele>192</ele>
        <time>2022-12-09T16:04:22Z</time>
      </trkpt>
      <trkpt lat="44.6143" lon="2.23878">
        <ele>195</ele>
        <time>2022-12-09T16:04:26Z</time>
      </trkpt>
      <trkpt lat="44.61451" lon="2.23908">
        <ele>197</ele>
        <time>2022-12-09T16:04:31Z</time>
      </trkpt>
      <trkpt lat="44.61482" lon="2.2397">
        <ele>198</ele>
        <time>2022-12-09T16:04:41Z</time>
      </trkpt>
      <trkpt lat="44.61492" lon="2.24">
        <ele>197</ele>
        <time>2022-12-09T16:04:45Z</time>
      </trkpt>
      <trkpt lat="44.615" lon="2.24033">
        <ele>196</ele>
        <time>2022-12-09T16:04:50Z</time>
      </trkpt>
      <trkpt lat="44.61512" lon="2.24097">
        <ele>198</ele>
        <time>2022-12-09T16:04:58Z</time>
      </trkpt>
      <trkpt lat="44.61514" lon="2.24128">
        <ele>197</ele>
        <time>2022-12-09T16:05:02Z</time>
      </trkpt>
      <trkpt lat="44.61513" lon="2.24321">
        <ele>197</ele>
        <time>2022-12-09T16:05:26Z</time>
      </trkpt>
      <trkpt lat="44.61508" lon="2.24351">
        <ele>196</ele>
        <time>2022-12-09T16:05:30Z</time>
      </trkpt>
      <trkpt lat="44.61492" lon="2.24413">
        <ele>194</ele>
        <time>2022-12-09T16:05:39Z</time>
      </trkpt>
      <trkpt lat="44.6148" lon="2.24446">
        <ele>194</ele>
        <time>2022-12-09T16:05:43Z</time>
      </trkpt>
      <trkpt lat="44.61446" lon="2.24504">
        <ele>192</ele>
        <time>2022-12-09T16:05:53Z</time>
      </trkpt>
      <trkpt lat="44.61425" lon="2.24537">
        <ele>190</ele>
        <time>2022-12-09T16:05:58Z</time>
      </trkpt>
      <trkpt lat="44.61415" lon="2.2456">
        <ele>189</ele>
        <time>2022-12-09T16:06:02Z</time>
      </trkpt>
      <trkpt lat="44.61412" lon="2.2457">
        <ele>189</ele>
        <time>2022-12-09T16:06:03Z</time>
      </trkpt>
      <trkpt lat="44.61412" lon="2.24611">
        <ele>190</ele>
        <time>2022-12-09T16:06:08Z</time>
      </trkpt>
      <trkpt lat="44.61431" lon="2.24753">
        <ele>196</ele>
        <time>2022-12-09T16:06:27Z</time>
      </trkpt>
      <trkpt lat="44.61431" lon="2.24765">
        <ele>196</ele>
        <time>2022-12-09T16:06:28Z</time>
      </trkpt>
      <trkpt lat="44.61428" lon="2.24778">
        <ele>196</ele>
        <time>2022-12-09T16:06:30Z</time>
      </trkpt>
      <trkpt lat="44.61406" lon="2.24832">
        <ele>194</ele>
        <time>2022-12-09T16:06:38Z</time>
      </trkpt>
      <trkpt lat="44.61402" lon="2.24859">
        <ele>195</ele>
        <time>2022-12-09T16:06:41Z</time>
      </trkpt>
      <trkpt lat="44.61415" lon="2.25195">
        <ele>197</ele>
        <time>2022-12-09T16:07:24Z</time>
      </trkpt>
      <trkpt lat="44.61422" lon="2.25216">
        <ele>198</ele>
        <time>2022-12-09T16:07:27Z</time>
      </trkpt>
      <trkpt lat="44.61452" lon="2.25274">
        <ele>202</ele>
        <time>2022-12-09T16:07:36Z</time>
      </trkpt>
      <trkpt lat="44.61442" lon="2.25303">
        <ele>200</ele>
        <time>2022-12-09T16:07:40Z</time>
      </trkpt>
      <trkpt lat="44.61408" lon="2.2545">
        <ele>192</ele>
        <time>2022-12-09T16:08:00Z</time>
      </trkpt>
      <trkpt lat="44.61389" lon="2.25523">
        <ele>191</ele>
        <time>2022-12-09T16:08:09Z</time>
      </trkpt>
      <trkpt lat="44.61374" lon="2.25582">
        <ele>190</ele>
        <time>2022-12-09T16:08:17Z</time>
      </trkpt>
      <trkpt lat="44.61367" lon="2.25595">
        <ele>190</ele>
        <time>2022-12-09T16:08:19Z</time>
      </trkpt>
      <trkpt lat="44.61356" lon="2.25607">
        <ele>190</ele>
        <time>2022-12-09T16:08:22Z</time>
      </trkpt>
      <trkpt lat="44.61344" lon="2.25612">
        <ele>190</ele>
        <time>2022-12-09T16:08:24Z</time>
      </trkpt>
      <trkpt lat="44.61331" lon="2.25616">
        <ele>190</ele>
        <time>2022-12-09T16:08:27Z</time>
      </trkpt>
      <trkpt lat="44.61307" lon="2.25617">
        <ele>191</ele>
        <time>2022-12-09T16:08:31Z</time>
      </trkpt>
      <trkpt lat="44.61226" lon="2.25622">
        <ele>202</ele>
        <time>2022-12-09T16:08:45Z</time>
      </trkpt>
      <trkpt lat="44.61212" lon="2.25622">
        <ele>207</ele>
        <time>2022-12-09T16:08:48Z</time>
      </trkpt>
      <trkpt lat="44.61208" lon="2.25616">
        <ele>208</ele>
        <time>2022-12-09T16:08:49Z</time>
      </trkpt>
      <trkpt lat="44.61207" lon="2.25607">
        <ele>208</ele>
        <time>2022-12-09T16:08:50Z</time>
      </trkpt>
      <trkpt lat="44.61208" lon="2.25597">
        <ele>208</ele>
        <time>2022-12-09T16:08:51Z</time>
      </trkpt>
      <trkpt lat="44.61206" lon="2.25561">
        <ele>207</ele>
        <time>2022-12-09T16:08:56Z</time>
      </trkpt>
      <trkpt lat="44.61202" lon="2.25533">
        <ele>206</ele>
        <time>2022-12-09T16:08:59Z</time>
      </trkpt>
      <trkpt lat="44.61179" lon="2.25485">
        <ele>209</ele>
        <time>2022-12-09T16:09:07Z</time>
      </trkpt>
      <trkpt lat="44.61118" lon="2.25333">
        <ele>214</ele>
        <time>2022-12-09T16:09:29Z</time>
      </trkpt>
      <trkpt lat="44.61105" lon="2.25295">
        <ele>217</ele>
        <time>2022-12-09T16:09:34Z</time>
      </trkpt>
      <trkpt lat="44.61096" lon="2.25256">
        <ele>220</ele>
        <time>2022-12-09T16:09:39Z</time>
      </trkpt>
      <trkpt lat="44.61079" lon="2.25135">
        <ele>220</ele>
        <time>2022-12-09T16:09:55Z</time>
      </trkpt>
      <trkpt lat="44.61071" lon="2.25103">
        <ele>221</ele>
        <time>2022-12-09T16:09:59Z</time>
      </trkpt>
      <trkpt lat="44.61065" lon="2.25065">
        <ele>222</ele>
        <time>2022-12-09T16:10:04Z</time>
      </trkpt>
      <trkpt lat="44.61061" lon="2.25061">
        <ele>223</ele>
        <time>2022-12-09T16:10:05Z</time>
      </trkpt>
      <trkpt lat="44.61055" lon="2.25067">
        <ele>224</ele>
        <time>2022-12-09T16:10:06Z</time>
      </trkpt>
      <trkpt lat="44.61052" lon="2.25082">
        <ele>224</ele>
        <time>2022-12-09T16:10:08Z</time>
      </trkpt>
      <trkpt lat="44.61052" lon="2.25098">
        <ele>224</ele>
        <time>2022-12-09T16:10:10Z</time>
      </trkpt>
      <trkpt lat="44.61053" lon="2.25176">
        <ele>225</ele>
        <time>2022-12-09T16:10:20Z</time>
      </trkpt>
      <trkpt lat="44.61052" lon="2.25191">
        <ele>226</ele>
        <time>2022-12-09T16:10:22Z</time>
      </trkpt>
      <trkpt lat="44.6105" lon="2.25199">
        <ele>227</ele>
        <time>2022-12-09T16:10:23Z</time>
      </trkpt>
      <trkpt lat="44.61046" lon="2.25203">
        <ele>228</ele>
        <time>2022-12-09T16:10:24Z</time>
      </trkpt>
      <trkpt lat="44.61042" lon="2.25204">
        <ele>228</ele>
        <time>2022-12-09T16:10:25Z</time>
      </trkpt>
      <trkpt lat="44.61038" lon="2.25205">
        <ele>229</ele>
        <time>2022-12-09T16:10:26Z</time>
      </trkpt>
      <trkpt lat="44.61036" lon="2.25249">
        <ele>231</ele>
        <time>2022-12-09T16:10:31Z</time>
      </trkpt>
      <trkpt lat="44.61038" lon="2.25266">
        <ele>232</ele>
        <time>2022-12-09T16:10:33Z</time>
      </trkpt>
      <trkpt lat="44.61042" lon="2.25286">
        <ele>232</ele>
        <time>2022-12-09T16:10:36Z</time>
      </trkpt>
      <trkpt lat="44.61042" lon="2.253">
        <ele>233</ele>
        <time>2022-12-09T16:10:38Z</time>
      </trkpt>
      <trkpt lat="44.61042" lon="2.25315">
        <ele>233</ele>
        <time>2022-12-09T16:10:40Z</time>
      </trkpt>
      <trkpt lat="44.61038" lon="2.25338">
        <ele>235</ele>
        <time>2022-12-09T16:10:43Z</time>
      </trkpt>
      <trkpt lat="44.61021" lon="2.25373">
        <ele>240</ele>
        <time>2022-12-09T16:10:48Z</time>
      </trkpt>
      <trkpt lat="44.61012" lon="2.25397">
        <ele>242</ele>
        <time>2022-12-09T16:10:51Z</time>
      </trkpt>
      <trkpt lat="44.60996" lon="2.25416">
        <ele>246</ele>
        <time>2022-12-09T16:10:55Z</time>
      </trkpt>
      <trkpt lat="44.6098" lon="2.25447">
        <ele>250</ele>
        <time>2022-12-09T16:11:00Z</time>
      </trkpt>
      <trkpt lat="44.60976" lon="2.25454">
        <ele>251</ele>
        <time>2022-12-09T16:11:01Z</time>
      </trkpt>
      <trkpt lat="44.60971" lon="2.25455">
        <ele>252</ele>
        <time>2022-12-09T16:11:02Z</time>
      </trkpt>
      <trkpt lat="44.60965" lon="2.25449">
        <ele>253</ele>
        <time>2022-12-09T16:11:03Z</time>
      </trkpt>
      <trkpt lat="44.60958" lon="2.25434">
        <ele>254</ele>
        <time>2022-12-09T16:11:06Z</time>
      </trkpt>
      <trkpt lat="44.60946" lon="2.25403">
        <ele>256</ele>
        <time>2022-12-09T16:11:10Z</time>
      </trkpt>
      <trkpt lat="44.60923" lon="2.25318">
        <ele>258</ele>
        <time>2022-12-09T16:11:22Z</time>
      </trkpt>
      <trkpt lat="44.60913" lon="2.25299">
        <ele>258</ele>
        <time>2022-12-09T16:11:25Z</time>
      </trkpt>
      <trkpt lat="44.609" lon="2.2529">
        <ele>259</ele>
        <time>2022-12-09T16:11:27Z</time>
      </trkpt>
      <trkpt lat="44.60883" lon="2.25282">
        <ele>260</ele>
        <time>2022-12-09T16:11:30Z</time>
      </trkpt>
      <trkpt lat="44.60876" lon="2.25284">
        <ele>261</ele>
        <time>2022-12-09T16:11:32Z</time>
      </trkpt>
      <trkpt lat="44.60869" lon="2.25295">
        <ele>263</ele>
        <time>2022-12-09T16:11:34Z</time>
      </trkpt>
      <trkpt lat="44.60866" lon="2.25316">
        <ele>266</ele>
        <time>2022-12-09T16:11:36Z</time>
      </trkpt>
      <trkpt lat="44.60869" lon="2.25327">
        <ele>268</ele>
        <time>2022-12-09T16:11:38Z</time>
      </trkpt>
      <trkpt lat="44.60882" lon="2.25338">
        <ele>267</ele>
        <time>2022-12-09T16:11:40Z</time>
      </trkpt>
      <trkpt lat="44.609" lon="2.25365">
        <ele>265</ele>
        <time>2022-12-09T16:11:45Z</time>
      </trkpt>
      <trkpt lat="44.60908" lon="2.25399">
        <ele>265</ele>
        <time>2022-12-09T16:11:50Z</time>
      </trkpt>
      <trkpt lat="44.6091" lon="2.25433">
        <ele>264</ele>
        <time>2022-12-09T16:11:54Z</time>
      </trkpt>
      <trkpt lat="44.60887" lon="2.25527">
        <ele>271</ele>
        <time>2022-12-09T16:12:07Z</time>
      </trkpt>
      <trkpt lat="44.60879" lon="2.25531">
        <ele>274</ele>
        <time>2022-12-09T16:12:08Z</time>
      </trkpt>
      <trkpt lat="44.60873" lon="2.2552">
        <ele>275</ele>
        <time>2022-12-09T16:12:10Z</time>
      </trkpt>
      <trkpt lat="44.60869" lon="2.2546">
        <ele>276</ele>
        <time>2022-12-09T16:12:18Z</time>
      </trkpt>
      <trkpt lat="44.60863" lon="2.25428">
        <ele>277</ele>
        <time>2022-12-09T16:12:22Z</time>
      </trkpt>
      <trkpt lat="44.60854" lon="2.2541">
        <ele>278</ele>
        <time>2022-12-09T16:12:24Z</time>
      </trkpt>
      <trkpt lat="44.60855" lon="2.25423">
        <ele>279</ele>
        <time>2022-12-09T16:12:26Z</time>
      </trkpt>
      <trkpt lat="44.60853" lon="2.25454">
        <ele>280</ele>
        <time>2022-12-09T16:12:30Z</time>
      </trkpt>
      <trkpt lat="44.60839" lon="2.25507">
        <ele>286</ele>
        <time>2022-12-09T16:12:37Z</time>
      </trkpt>
      <trkpt lat="44.60825" lon="2.25547">
        <ele>289</ele>
        <time>2022-12-09T16:12:43Z</time>
      </trkpt>
      <trkpt lat="44.60804" lon="2.25596">
        <ele>294</ele>
        <time>2022-12-09T16:12:50Z</time>
      </trkpt>
      <trkpt lat="44.60788" lon="2.2563">
        <ele>298</ele>
        <time>2022-12-09T16:12:55Z</time>
      </trkpt>
      <trkpt lat="44.60756" lon="2.25694">
        <ele>306</ele>
        <time>2022-12-09T16:13:05Z</time>
      </trkpt>
      <trkpt lat="44.60754" lon="2.25704">
        <ele>307</ele>
        <time>2022-12-09T16:13:07Z</time>
      </trkpt>
      <trkpt lat="44.60754" lon="2.25713">
        <ele>307</ele>
        <time>2022-12-09T16:13:08Z</time>
      </trkpt>
      <trkpt lat="44.60756" lon="2.25722">
        <ele>307</ele>
        <time>2022-12-09T16:13:09Z</time>
      </trkpt>
      <trkpt lat="44.6076" lon="2.25729">
        <ele>306</ele>
        <time>2022-12-09T16:13:10Z</time>
      </trkpt>
      <trkpt lat="44.60782" lon="2.2575">
        <ele>304</ele>
        <time>2022-12-09T16:13:15Z</time>
      </trkpt>
      <trkpt lat="44.60795" lon="2.25761">
        <ele>302</ele>
        <time>2022-12-09T16:13:17Z</time>
      </trkpt>
      <trkpt lat="44.6081" lon="2.25777">
        <ele>302</ele>
        <time>2022-12-09T16:13:21Z</time>
      </trkpt>
      <trkpt lat="44.60818" lon="2.2579">
        <ele>301</ele>
        <time>2022-12-09T16:13:23Z</time>
      </trkpt>
      <trkpt lat="44.60828" lon="2.25813">
        <ele>302</ele>
        <time>2022-12-09T16:13:26Z</time>
      </trkpt>
      <trkpt lat="44.60831" lon="2.25827">
        <ele>303</ele>
        <time>2022-12-09T16:13:28Z</time>
      </trkpt>
      <trkpt lat="44.60829" lon="2.25853">
        <ele>304</ele>
        <time>2022-12-09T16:13:32Z</time>
      </trkpt>
      <trkpt lat="44.60819" lon="2.25889">
        <ele>305</ele>
        <time>2022-12-09T16:13:36Z</time>
      </trkpt>
      <trkpt lat="44.60812" lon="2.25902">
        <ele>306</ele>
        <time>2022-12-09T16:13:38Z</time>
      </trkpt>
      <trkpt lat="44.60806" lon="2.25911">
        <ele>307</ele>
        <time>2022-12-09T16:13:40Z</time>
      </trkpt>
      <trkpt lat="44.60787" lon="2.25926">
        <ele>310</ele>
        <time>2022-12-09T16:13:44Z</time>
      </trkpt>
      <trkpt lat="44.60705" lon="2.25948">
        <ele>318</ele>
        <time>2022-12-09T16:13:59Z</time>
      </trkpt>
      <trkpt lat="44.60666" lon="2.25962">
        <ele>320</ele>
        <time>2022-12-09T16:14:06Z</time>
      </trkpt>
      <trkpt lat="44.60654" lon="2.25973">
        <ele>320</ele>
        <time>2022-12-09T16:14:08Z</time>
      </trkpt>
      <trkpt lat="44.60649" lon="2.2598">
        <ele>320</ele>
        <time>2022-12-09T16:14:10Z</time>
      </trkpt>
      <trkpt lat="44.60646" lon="2.25991">
        <ele>320</ele>
        <time>2022-12-09T16:14:11Z</time>
      </trkpt>
      <trkpt lat="44.60644" lon="2.26011">
        <ele>320</ele>
        <time>2022-12-09T16:14:14Z</time>
      </trkpt>
      <trkpt lat="44.60648" lon="2.2604">
        <ele>321</ele>
        <time>2022-12-09T16:14:18Z</time>
      </trkpt>
      <trkpt lat="44.60665" lon="2.26093">
        <ele>320</ele>
        <time>2022-12-09T16:14:25Z</time>
      </trkpt>
      <trkpt lat="44.60684" lon="2.26127">
        <ele>320</ele>
        <time>2022-12-09T16:14:30Z</time>
      </trkpt>
      <trkpt lat="44.60755" lon="2.26227">
        <ele>323</ele>
        <time>2022-12-09T16:14:48Z</time>
      </trkpt>
      <trkpt lat="44.60786" lon="2.26276">
        <ele>326</ele>
        <time>2022-12-09T16:14:57Z</time>
      </trkpt>
      <trkpt lat="44.60803" lon="2.26317">
        <ele>329</ele>
        <time>2022-12-09T16:15:03Z</time>
      </trkpt>
      <trkpt lat="44.60814" lon="2.26355">
        <ele>332</ele>
        <time>2022-12-09T16:15:08Z</time>
      </trkpt>
      <trkpt lat="44.60825" lon="2.26415">
        <ele>335</ele>
        <time>2022-12-09T16:15:16Z</time>
      </trkpt>
      <trkpt lat="44.60827" lon="2.26441">
        <ele>336</ele>
        <time>2022-12-09T16:15:19Z</time>
      </trkpt>
      <trkpt lat="44.60825" lon="2.2651">
        <ele>338</ele>
        <time>2022-12-09T16:15:28Z</time>
      </trkpt>
      <trkpt lat="44.60817" lon="2.26613">
        <ele>341</ele>
        <time>2022-12-09T16:15:41Z</time>
      </trkpt>
      <trkpt lat="44.60812" lon="2.2664">
        <ele>341</ele>
        <time>2022-12-09T16:15:44Z</time>
      </trkpt>
      <trkpt lat="44.60803" lon="2.26666">
        <ele>342</ele>
        <time>2022-12-09T16:15:48Z</time>
      </trkpt>
      <trkpt lat="44.60785" lon="2.26708">
        <ele>345</ele>
        <time>2022-12-09T16:15:54Z</time>
      </trkpt>
      <trkpt lat="44.60732" lon="2.26828">
        <ele>353</ele>
        <time>2022-12-09T16:16:12Z</time>
      </trkpt>
      <trkpt lat="44.60686" lon="2.26938">
        <ele>358</ele>
        <time>2022-12-09T16:16:28Z</time>
      </trkpt>
      <trkpt lat="44.60644" lon="2.27044">
        <ele>360</ele>
        <time>2022-12-09T16:16:44Z</time>
      </trkpt>
      <trkpt lat="44.60633" lon="2.27084">
        <ele>362</ele>
        <time>2022-12-09T16:16:49Z</time>
      </trkpt>
      <trkpt lat="44.60629" lon="2.27125">
        <ele>364</ele>
        <time>2022-12-09T16:16:54Z</time>
      </trkpt>
      <trkpt lat="44.60629" lon="2.27155">
        <ele>366</ele>
        <time>2022-12-09T16:16:58Z</time>
      </trkpt>
      <trkpt lat="44.60632" lon="2.27184">
        <ele>368</ele>
        <time>2022-12-09T16:17:02Z</time>
      </trkpt>
      <trkpt lat="44.60644" lon="2.27228">
        <ele>371</ele>
        <time>2022-12-09T16:17:08Z</time>
      </trkpt>
      <trkpt lat="44.6066" lon="2.27269">
        <ele>374</ele>
        <time>2022-12-09T16:17:14Z</time>
      </trkpt>
      <trkpt lat="44.6067" lon="2.27312">
        <ele>376</ele>
        <time>2022-12-09T16:17:19Z</time>
      </trkpt>
      <trkpt lat="44.60672" lon="2.27329">
        <ele>376</ele>
        <time>2022-12-09T16:17:22Z</time>
      </trkpt>
      <trkpt lat="44.60672" lon="2.27383">
        <ele>378</ele>
        <time>2022-12-09T16:17:28Z</time>
      </trkpt>
      <trkpt lat="44.60667" lon="2.27435">
        <ele>379</ele>
        <time>2022-12-09T16:17:35Z</time>
      </trkpt>
      <trkpt lat="44.60659" lon="2.27483">
        <ele>379</ele>
        <time>2022-12-09T16:17:41Z</time>
      </trkpt>
      <trkpt lat="44.60632" lon="2.27568">
        <ele>379</ele>
        <time>2022-12-09T16:17:53Z</time>
      </trkpt>
      <trkpt lat="44.60619" lon="2.27624">
        <ele>381</ele>
        <time>2022-12-09T16:18:01Z</time>
      </trkpt>
      <trkpt lat="44.60575" lon="2.28178">
        <ele>391</ele>
        <time>2022-12-09T16:19:11Z</time>
      </trkpt>
      <trkpt lat="44.60575" lon="2.28211">
        <ele>393</ele>
        <time>2022-12-09T16:19:15Z</time>
      </trkpt>
      <trkpt lat="44.60584" lon="2.2846">
        <ele>403</ele>
        <time>2022-12-09T16:19:47Z</time>
      </trkpt>
      <trkpt lat="44.6058" lon="2.2857">
        <ele>405</ele>
        <time>2022-12-09T16:20:01Z</time>
      </trkpt>
      <trkpt lat="44.60572" lon="2.28638">
        <ele>405</ele>
        <time>2022-12-09T16:20:10Z</time>
      </trkpt>
      <trkpt lat="44.60567" lon="2.28701">
        <ele>406</ele>
        <time>2022-12-09T16:20:18Z</time>
      </trkpt>
      <trkpt lat="44.60555" lon="2.28788">
        <ele>409</ele>
        <time>2022-12-09T16:20:29Z</time>
      </trkpt>
      <trkpt lat="44.60508" lon="2.29072">
        <ele>418</ele>
        <time>2022-12-09T16:21:06Z</time>
      </trkpt>
      <trkpt lat="44.60496" lon="2.29173">
        <ele>422</ele>
        <time>2022-12-09T16:21:19Z</time>
      </trkpt>
      <trkpt lat="44.60498" lon="2.29205">
        <ele>422</ele>
        <time>2022-12-09T16:21:23Z</time>
      </trkpt>
      <trkpt lat="44.60503" lon="2.29233">
        <ele>423</ele>
        <time>2022-12-09T16:21:27Z</time>
      </trkpt>
      <trkpt lat="44.6051" lon="2.29272">
        <ele>423</ele>
        <time>2022-12-09T16:21:32Z</time>
      </trkpt>
      <trkpt lat="44.60527" lon="2.29325">
        <ele>424</ele>
        <time>2022-12-09T16:21:39Z</time>
      </trkpt>
      <trkpt lat="44.60569" lon="2.29425">
        <ele>428</ele>
        <time>2022-12-09T16:21:54Z</time>
      </trkpt>
      <trkpt lat="44.60581" lon="2.29448">
        <ele>428</ele>
        <time>2022-12-09T16:21:57Z</time>
      </trkpt>
      <trkpt lat="44.60628" lon="2.2952">
        <ele>429</ele>
        <time>2022-12-09T16:22:10Z</time>
      </trkpt>
      <trkpt lat="44.60752" lon="2.29699">
        <ele>434</ele>
        <time>2022-12-09T16:22:41Z</time>
      </trkpt>
      <trkpt lat="44.60775" lon="2.29737">
        <ele>434</ele>
        <time>2022-12-09T16:22:48Z</time>
      </trkpt>
      <trkpt lat="44.60792" lon="2.29787">
        <ele>434</ele>
        <time>2022-12-09T16:22:55Z</time>
      </trkpt>
      <trkpt lat="44.60796" lon="2.29808">
        <ele>434</ele>
        <time>2022-12-09T16:22:57Z</time>
      </trkpt>
      <trkpt lat="44.60812" lon="2.29973">
        <ele>439</ele>
        <time>2022-12-09T16:23:19Z</time>
      </trkpt>
      <trkpt lat="44.60819" lon="2.30127">
        <ele>443</ele>
        <time>2022-12-09T16:23:38Z</time>
      </trkpt>
      <trkpt lat="44.60824" lon="2.30183">
        <ele>444</ele>
        <time>2022-12-09T16:23:45Z</time>
      </trkpt>
      <trkpt lat="44.6083" lon="2.30227">
        <ele>447</ele>
        <time>2022-12-09T16:23:51Z</time>
      </trkpt>
      <trkpt lat="44.60838" lon="2.30262">
        <ele>449</ele>
        <time>2022-12-09T16:23:56Z</time>
      </trkpt>
      <trkpt lat="44.60853" lon="2.30317">
        <ele>452</ele>
        <time>2022-12-09T16:24:03Z</time>
      </trkpt>
      <trkpt lat="44.6089" lon="2.30434">
        <ele>459</ele>
        <time>2022-12-09T16:24:19Z</time>
      </trkpt>
      <trkpt lat="44.60917" lon="2.30561">
        <ele>466</ele>
        <time>2022-12-09T16:24:36Z</time>
      </trkpt>
      <trkpt lat="44.60946" lon="2.30626">
        <ele>468</ele>
        <time>2022-12-09T16:24:46Z</time>
      </trkpt>
      <trkpt lat="44.60952" lon="2.30647">
        <ele>469</ele>
        <time>2022-12-09T16:24:49Z</time>
      </trkpt>
      <trkpt lat="44.60953" lon="2.30665">
        <ele>469</ele>
        <time>2022-12-09T16:24:51Z</time>
      </trkpt>
      <trkpt lat="44.60951" lon="2.30687">
        <ele>469</ele>
        <time>2022-12-09T16:24:54Z</time>
      </trkpt>
      <trkpt lat="44.60931" lon="2.30761">
        <ele>468</ele>
        <time>2022-12-09T16:25:04Z</time>
      </trkpt>
      <trkpt lat="44.60926" lon="2.30789">
        <ele>468</ele>
        <time>2022-12-09T16:25:07Z</time>
      </trkpt>
      <trkpt lat="44.60922" lon="2.3082">
        <ele>468</ele>
        <time>2022-12-09T16:25:11Z</time>
      </trkpt>
      <trkpt lat="44.60924" lon="2.3085">
        <ele>468</ele>
        <time>2022-12-09T16:25:15Z</time>
      </trkpt>
      <trkpt lat="44.60935" lon="2.30893">
        <ele>467</ele>
        <time>2022-12-09T16:25:21Z</time>
      </trkpt>
      <trkpt lat="44.60955" lon="2.30922">
        <ele>467</ele>
        <time>2022-12-09T16:25:26Z</time>
      </trkpt>
      <trkpt lat="44.60977" lon="2.30942">
        <ele>468</ele>
        <time>2022-12-09T16:25:31Z</time>
      </trkpt>
      <trkpt lat="44.61028" lon="2.3098">
        <ele>468</ele>
        <time>2022-12-09T16:25:41Z</time>
      </trkpt>
      <trkpt lat="44.61046" lon="2.30997">
        <ele>468</ele>
        <time>2022-12-09T16:25:45Z</time>
      </trkpt>
      <trkpt lat="44.61093" lon="2.31044">
        <ele>469</ele>
        <time>2022-12-09T16:25:55Z</time>
      </trkpt>
      <trkpt lat="44.61119" lon="2.31074">
        <ele>469</ele>
        <time>2022-12-09T16:26:01Z</time>
      </trkpt>
      <trkpt lat="44.61163" lon="2.31129">
        <ele>472</ele>
        <time>2022-12-09T16:26:12Z</time>
      </trkpt>
      <trkpt lat="44.61189" lon="2.31175">
        <ele>470</ele>
        <time>2022-12-09T16:26:19Z</time>
      </trkpt>
      <trkpt lat="44.61197" lon="2.31199">
        <ele>469</ele>
        <time>2022-12-09T16:26:22Z</time>
      </trkpt>
      <trkpt lat="44.612" lon="2.31223">
        <ele>469</ele>
        <time>2022-12-09T16:26:26Z</time>
      </trkpt>
      <trkpt lat="44.61202" lon="2.31307">
        <ele>470</ele>
        <time>2022-12-09T16:26:36Z</time>
      </trkpt>
      <trkpt lat="44.61216" lon="2.31393">
        <ele>468</ele>
        <time>2022-12-09T16:26:47Z</time>
      </trkpt>
      <trkpt lat="44.61219" lon="2.31428">
        <ele>468</ele>
        <time>2022-12-09T16:26:52Z</time>
      </trkpt>
      <trkpt lat="44.61223" lon="2.31479">
        <ele>467</ele>
        <time>2022-12-09T16:26:58Z</time>
      </trkpt>
      <trkpt lat="44.61225" lon="2.31712">
        <ele>473</ele>
        <time>2022-12-09T16:27:28Z</time>
      </trkpt>
      <trkpt lat="44.61227" lon="2.31744">
        <ele>474</ele>
        <time>2022-12-09T16:27:32Z</time>
      </trkpt>
      <trkpt lat="44.61249" lon="2.31908">
        <ele>479</ele>
        <time>2022-12-09T16:27:53Z</time>
      </trkpt>
      <trkpt lat="44.6128" lon="2.32126">
        <ele>486</ele>
        <time>2022-12-09T16:28:21Z</time>
      </trkpt>
      <trkpt lat="44.61279" lon="2.3215">
        <ele>488</ele>
        <time>2022-12-09T16:28:24Z</time>
      </trkpt>
      <trkpt lat="44.61275" lon="2.32174">
        <ele>489</ele>
        <time>2022-12-09T16:28:27Z</time>
      </trkpt>
      <trkpt lat="44.61266" lon="2.32205">
        <ele>491</ele>
        <time>2022-12-09T16:28:32Z</time>
      </trkpt>
      <trkpt lat="44.61249" lon="2.32242">
        <ele>493</ele>
        <time>2022-12-09T16:28:37Z</time>
      </trkpt>
      <trkpt lat="44.61207" lon="2.32324">
        <ele>495</ele>
        <time>2022-12-09T16:28:50Z</time>
      </trkpt>
      <trkpt lat="44.61181" lon="2.32389">
        <ele>496</ele>
        <time>2022-12-09T16:28:59Z</time>
      </trkpt>
      <trkpt lat="44.61166" lon="2.32437">
        <ele>497</ele>
        <time>2022-12-09T16:29:06Z</time>
      </trkpt>
      <trkpt lat="44.61135" lon="2.32552">
        <ele>499</ele>
        <time>2022-12-09T16:29:22Z</time>
      </trkpt>
      <trkpt lat="44.61136" lon="2.32592">
        <ele>501</ele>
        <time>2022-12-09T16:29:27Z</time>
      </trkpt>
      <trkpt lat="44.61141" lon="2.32659">
        <ele>502</ele>
        <time>2022-12-09T16:29:35Z</time>
      </trkpt>
      <trkpt lat="44.61146" lon="2.32689">
        <ele>502</ele>
        <time>2022-12-09T16:29:39Z</time>
      </trkpt>
      <trkpt lat="44.61159" lon="2.32731">
        <ele>501</ele>
        <time>2022-12-09T16:29:45Z</time>
      </trkpt>
      <trkpt lat="44.6117" lon="2.32754">
        <ele>500</ele>
        <time>2022-12-09T16:29:48Z</time>
      </trkpt>
      <trkpt lat="44.61188" lon="2.32778">
        <ele>498</ele>
        <time>2022-12-09T16:29:53Z</time>
      </trkpt>
      <trkpt lat="44.61224" lon="2.32816">
        <ele>494</ele>
        <time>2022-12-09T16:30:01Z</time>
      </trkpt>
      <trkpt lat="44.61235" lon="2.32834">
        <ele>493</ele>
        <time>2022-12-09T16:30:04Z</time>
      </trkpt>
      <trkpt lat="44.61239" lon="2.32851">
        <ele>493</ele>
        <time>2022-12-09T16:30:06Z</time>
      </trkpt>
      <trkpt lat="44.61238" lon="2.32885">
        <ele>493</ele>
        <time>2022-12-09T16:30:10Z</time>
      </trkpt>
      <trkpt lat="44.61231" lon="2.3291">
        <ele>493</ele>
        <time>2022-12-09T16:30:14Z</time>
      </trkpt>
      <trkpt lat="44.61208" lon="2.32958">
        <ele>492</ele>
        <time>2022-12-09T16:30:21Z</time>
      </trkpt>
      <trkpt lat="44.61201" lon="2.3297">
        <ele>492</ele>
        <time>2022-12-09T16:30:23Z</time>
      </trkpt>
      <trkpt lat="44.6119" lon="2.32984">
        <ele>492</ele>
        <time>2022-12-09T16:30:26Z</time>
      </trkpt>
      <trkpt lat="44.61098" lon="2.33058">
        <ele>485</ele>
        <time>2022-12-09T16:30:45Z</time>
      </trkpt>
      <trkpt lat="44.61073" lon="2.33083">
        <ele>485</ele>
        <time>2022-12-09T16:30:50Z</time>
      </trkpt>
      <trkpt lat="44.61062" lon="2.33096">
        <ele>484</ele>
        <time>2022-12-09T16:30:53Z</time>
      </trkpt>
      <trkpt lat="44.61044" lon="2.33126">
        <ele>483</ele>
        <time>2022-12-09T16:30:58Z</time>
      </trkpt>
      <trkpt lat="44.60999" lon="2.33222">
        <ele>482</ele>
        <time>2022-12-09T16:31:12Z</time>
      </trkpt>
      <trkpt lat="44.60861" lon="2.33501">
        <ele>473</ele>
        <time>2022-12-09T16:31:55Z</time>
      </trkpt>
      <trkpt lat="44.60844" lon="2.33545">
        <ele>470</ele>
        <time>2022-12-09T16:32:02Z</time>
      </trkpt>
      <trkpt lat="44.60837" lon="2.33578">
        <ele>468</ele>
        <time>2022-12-09T16:32:06Z</time>
      </trkpt>
      <trkpt lat="44.6083" lon="2.33621">
        <ele>467</ele>
        <time>2022-12-09T16:32:12Z</time>
      </trkpt>
      <trkpt lat="44.60817" lon="2.33676">
        <ele>464</ele>
        <time>2022-12-09T16:32:19Z</time>
      </trkpt>
      <trkpt lat="44.60785" lon="2.33765">
        <ele>462</ele>
        <time>2022-12-09T16:32:31Z</time>
      </trkpt>
      <trkpt lat="44.60737" lon="2.33917">
        <ele>462</ele>
        <time>2022-12-09T16:32:53Z</time>
      </trkpt>
      <trkpt lat="44.60679" lon="2.34065">
        <ele>464</ele>
        <time>2022-12-09T16:33:14Z</time>
      </trkpt>
      <trkpt lat="44.60648" lon="2.34151">
        <ele>461</ele>
        <time>2022-12-09T16:33:26Z</time>
      </trkpt>
      <trkpt lat="44.6059" lon="2.3427">
        <ele>469</ele>
        <time>2022-12-09T16:33:44Z</time>
      </trkpt>
      <trkpt lat="44.60545" lon="2.34354">
        <ele>470</ele>
        <time>2022-12-09T16:33:58Z</time>
      </trkpt>
      <trkpt lat="44.60504" lon="2.34426">
        <ele>472</ele>
        <time>2022-12-09T16:34:09Z</time>
      </trkpt>
      <trkpt lat="44.60519" lon="2.34457">
        <ele>473</ele>
        <time>2022-12-09T16:34:14Z</time>
      </trkpt>
      <trkpt lat="44.60541" lon="2.34512">
        <ele>474</ele>
        <time>2022-12-09T16:34:22Z</time>
      </trkpt>
      <trkpt lat="44.60559" lon="2.34561">
        <ele>474</ele>
        <time>2022-12-09T16:34:29Z</time>
      </trkpt>
      <trkpt lat="44.60567" lon="2.3459">
        <ele>475</ele>
        <time>2022-12-09T16:34:33Z</time>
      </trkpt>
      <trkpt lat="44.60573" lon="2.346">
        <ele>474</ele>
        <time>2022-12-09T16:34:35Z</time>
      </trkpt>
      <trkpt lat="44.60584" lon="2.34606">
        <ele>474</ele>
        <time>2022-12-09T16:34:37Z</time>
      </trkpt>
      <trkpt lat="44.60593" lon="2.34605">
        <ele>473</ele>
        <time>2022-12-09T16:34:38Z</time>
      </trkpt>
      <trkpt lat="44.60684" lon="2.34584">
        <ele>471</ele>
        <time>2022-12-09T16:34:55Z</time>
      </trkpt>
      <trkpt lat="44.60797" lon="2.34551">
        <ele>474</ele>
        <time>2022-12-09T16:35:15Z</time>
      </trkpt>
      <trkpt lat="44.60847" lon="2.34545">
        <ele>476</ele>
        <time>2022-12-09T16:35:24Z</time>
      </trkpt>
      <trkpt lat="44.60878" lon="2.34547">
        <ele>477</ele>
        <time>2022-12-09T16:35:30Z</time>
      </trkpt>
      <trkpt lat="44.60934" lon="2.34555">
        <ele>480</ele>
        <time>2022-12-09T16:35:40Z</time>
      </trkpt>
      <trkpt lat="44.60972" lon="2.34558">
        <ele>480</ele>
        <time>2022-12-09T16:35:47Z</time>
      </trkpt>
      <trkpt lat="44.61056" lon="2.34545">
        <ele>480</ele>
        <time>2022-12-09T16:36:02Z</time>
      </trkpt>
      <trkpt lat="44.6114" lon="2.34559">
        <ele>481</ele>
        <time>2022-12-09T16:36:17Z</time>
      </trkpt>
      <trkpt lat="44.61151" lon="2.34563">
        <ele>481</ele>
        <time>2022-12-09T16:36:19Z</time>
      </trkpt>
      <trkpt lat="44.61165" lon="2.34571">
        <ele>481</ele>
        <time>2022-12-09T16:36:21Z</time>
      </trkpt>
      <trkpt lat="44.61206" lon="2.34607">
        <ele>481</ele>
        <time>2022-12-09T16:36:30Z</time>
      </trkpt>
      <trkpt lat="44.61225" lon="2.34619">
        <ele>482</ele>
        <time>2022-12-09T16:36:34Z</time>
      </trkpt>
      <trkpt lat="44.61234" lon="2.34623">
        <ele>482</ele>
        <time>2022-12-09T16:36:35Z</time>
      </trkpt>
      <trkpt lat="44.61284" lon="2.34633">
        <ele>481</ele>
        <time>2022-12-09T16:36:44Z</time>
      </trkpt>
      <trkpt lat="44.61321" lon="2.34636">
        <ele>478</ele>
        <time>2022-12-09T16:36:51Z</time>
      </trkpt>
      <trkpt lat="44.61385" lon="2.34647">
        <ele>477</ele>
        <time>2022-12-09T16:37:02Z</time>
      </trkpt>
      <trkpt lat="44.61418" lon="2.34657">
        <ele>477</ele>
        <time>2022-12-09T16:37:08Z</time>
      </trkpt>
      <trkpt lat="44.61448" lon="2.34671">
        <ele>478</ele>
        <time>2022-12-09T16:37:14Z</time>
      </trkpt>
      <trkpt lat="44.61488" lon="2.34685">
        <ele>479</ele>
        <time>2022-12-09T16:37:21Z</time>
      </trkpt>
      <trkpt lat="44.61521" lon="2.34692">
        <ele>480</ele>
        <time>2022-12-09T16:37:27Z</time>
      </trkpt>
      <trkpt lat="44.6157" lon="2.347">
        <ele>481</ele>
        <time>2022-12-09T16:37:36Z</time>
      </trkpt>
      <trkpt lat="44.61593" lon="2.34701">
        <ele>481</ele>
        <time>2022-12-09T16:37:40Z</time>
      </trkpt>
      <trkpt lat="44.61615" lon="2.34697">
        <ele>483</ele>
        <time>2022-12-09T16:37:44Z</time>
      </trkpt>
      <trkpt lat="44.61666" lon="2.3467">
        <ele>488</ele>
        <time>2022-12-09T16:37:54Z</time>
      </trkpt>
      <trkpt lat="44.61685" lon="2.34668">
        <ele>489</ele>
        <time>2022-12-09T16:37:57Z</time>
      </trkpt>
      <trkpt lat="44.61719" lon="2.34672">
        <ele>491</ele>
        <time>2022-12-09T16:38:03Z</time>
      </trkpt>
      <trkpt lat="44.61746" lon="2.34682">
        <ele>493</ele>
        <time>2022-12-09T16:38:08Z</time>
      </trkpt>
      <trkpt lat="44.6179" lon="2.34712">
        <ele>493</ele>
        <time>2022-12-09T16:38:17Z</time>
      </trkpt>
      <trkpt lat="44.61813" lon="2.34724">
        <ele>493</ele>
        <time>2022-12-09T16:38:21Z</time>
      </trkpt>
      <trkpt lat="44.61864" lon="2.34745">
        <ele>493</ele>
        <time>2022-12-09T16:38:31Z</time>
      </trkpt>
      <trkpt lat="44.61965" lon="2.3481">
        <ele>492</ele>
        <time>2022-12-09T16:38:51Z</time>
      </trkpt>
      <trkpt lat="44.62007" lon="2.34847">
        <ele>491</ele>
        <time>2022-12-09T16:38:59Z</time>
      </trkpt>
      <trkpt lat="44.62013" lon="2.34857">
        <ele>491</ele>
        <time>2022-12-09T16:39:01Z</time>
      </trkpt>
      <trkpt lat="44.62019" lon="2.34876">
        <ele>490</ele>
        <time>2022-12-09T16:39:04Z</time>
      </trkpt>
      <trkpt lat="44.62029" lon="2.34921">
        <ele>488</ele>
        <time>2022-12-09T16:39:10Z</time>
      </trkpt>
      <trkpt lat="44.62038" lon="2.34953">
        <ele>486</ele>
        <time>2022-12-09T16:39:14Z</time>
      </trkpt>
      <trkpt lat="44.62048" lon="2.34976">
        <ele>485</ele>
        <time>2022-12-09T16:39:17Z</time>
      </trkpt>
      <trkpt lat="44.62058" lon="2.34995">
        <ele>485</ele>
        <time>2022-12-09T16:39:20Z</time>
      </trkpt>
      <trkpt lat="44.62068" lon="2.3501">
        <ele>484</ele>
        <time>2022-12-09T16:39:23Z</time>
      </trkpt>
      <trkpt lat="44.62085" lon="2.35027">
        <ele>483</ele>
        <time>2022-12-09T16:39:27Z</time>
      </trkpt>
      <trkpt lat="44.62092" lon="2.35042">
        <ele>482</ele>
        <time>2022-12-09T16:39:29Z</time>
      </trkpt>
      <trkpt lat="44.62097" lon="2.35061">
        <ele>480</ele>
        <time>2022-12-09T16:39:32Z</time>
      </trkpt>
      <trkpt lat="44.62103" lon="2.35107">
        <ele>474</ele>
        <time>2022-12-09T16:39:38Z</time>
      </trkpt>
      <trkpt lat="44.62112" lon="2.35153">
        <ele>469</ele>
        <time>2022-12-09T16:39:44Z</time>
      </trkpt>
      <trkpt lat="44.62117" lon="2.35169">
        <ele>467</ele>
        <time>2022-12-09T16:39:46Z</time>
      </trkpt>
      <trkpt lat="44.62124" lon="2.35185">
        <ele>466</ele>
        <time>2022-12-09T16:39:48Z</time>
      </trkpt>
      <trkpt lat="44.62148" lon="2.35212">
        <ele>467</ele>
        <time>2022-12-09T16:39:54Z</time>
      </trkpt>
      <trkpt lat="44.62161" lon="2.3523">
        <ele>467</ele>
        <time>2022-12-09T16:39:57Z</time>
      </trkpt>
      <trkpt lat="44.62164" lon="2.35254">
        <ele>464</ele>
        <time>2022-12-09T16:40:00Z</time>
      </trkpt>
      <trkpt lat="44.6216" lon="2.35362">
        <ele>448</ele>
        <time>2022-12-09T16:40:14Z</time>
      </trkpt>
      <trkpt lat="44.6216" lon="2.35373">
        <ele>447</ele>
        <time>2022-12-09T16:40:15Z</time>
      </trkpt>
      <trkpt lat="44.62169" lon="2.35388">
        <ele>447</ele>
        <time>2022-12-09T16:40:18Z</time>
      </trkpt>
      <trkpt lat="44.62177" lon="2.35393">
        <ele>446</ele>
        <time>2022-12-09T16:40:19Z</time>
      </trkpt>
      <trkpt lat="44.62191" lon="2.35396">
        <ele>445</ele>
        <time>2022-12-09T16:40:22Z</time>
      </trkpt>
      <trkpt lat="44.62278" lon="2.35393">
        <ele>438</ele>
        <time>2022-12-09T16:40:37Z</time>
      </trkpt>
      <trkpt lat="44.62297" lon="2.35389">
        <ele>435</ele>
        <time>2022-12-09T16:40:41Z</time>
      </trkpt>
      <trkpt lat="44.62314" lon="2.35383">
        <ele>433</ele>
        <time>2022-12-09T16:40:44Z</time>
      </trkpt>
      <trkpt lat="44.62338" lon="2.35362">
        <ele>431</ele>
        <time>2022-12-09T16:40:49Z</time>
      </trkpt>
      <trkpt lat="44.62363" lon="2.35331">
        <ele>428</ele>
        <time>2022-12-09T16:40:55Z</time>
      </trkpt>
      <trkpt lat="44.62383" lon="2.35301">
        <ele>425</ele>
        <time>2022-12-09T16:41:00Z</time>
      </trkpt>
      <trkpt lat="44.62398" lon="2.35266">
        <ele>425</ele>
        <time>2022-12-09T16:41:05Z</time>
      </trkpt>
      <trkpt lat="44.62419" lon="2.35196">
        <ele>428</ele>
        <time>2022-12-09T16:41:15Z</time>
      </trkpt>
      <trkpt lat="44.62423" lon="2.35189">
        <ele>429</ele>
        <time>2022-12-09T16:41:16Z</time>
      </trkpt>
      <trkpt lat="44.62429" lon="2.35184">
        <ele>429</ele>
        <time>2022-12-09T16:41:17Z</time>
      </trkpt>
      <trkpt lat="44.62435" lon="2.35185">
        <ele>429</ele>
        <time>2022-12-09T16:41:18Z</time>
      </trkpt>
      <trkpt lat="44.62447" lon="2.35199">
        <ele>427</ele>
        <time>2022-12-09T16:41:21Z</time>
      </trkpt>
      <trkpt lat="44.62477" lon="2.35262">
        <ele>418</ele>
        <time>2022-12-09T16:41:30Z</time>
      </trkpt>
      <trkpt lat="44.62487" lon="2.35286">
        <ele>414</ele>
        <time>2022-12-09T16:41:34Z</time>
      </trkpt>
      <trkpt lat="44.62494" lon="2.35311">
        <ele>409</ele>
        <time>2022-12-09T16:41:37Z</time>
      </trkpt>
      <trkpt lat="44.625" lon="2.35347">
        <ele>401</ele>
        <time>2022-12-09T16:41:42Z</time>
      </trkpt>
      <trkpt lat="44.62505" lon="2.35359">
        <ele>398</ele>
        <time>2022-12-09T16:41:44Z</time>
      </trkpt>
      <trkpt lat="44.62513" lon="2.35368">
        <ele>395</ele>
        <time>2022-12-09T16:41:46Z</time>
      </trkpt>
      <trkpt lat="44.6252" lon="2.35371">
        <ele>394</ele>
        <time>2022-12-09T16:41:47Z</time>
      </trkpt>
      <trkpt lat="44.6253" lon="2.35371">
        <ele>393</ele>
        <time>2022-12-09T16:41:49Z</time>
      </trkpt>
      <trkpt lat="44.62541" lon="2.35367">
        <ele>393</ele>
        <time>2022-12-09T16:41:51Z</time>
      </trkpt>
      <trkpt lat="44.62562" lon="2.35353">
        <ele>396</ele>
        <time>2022-12-09T16:41:55Z</time>
      </trkpt>
      <trkpt lat="44.62583" lon="2.35332">
        <ele>399</ele>
        <time>2022-12-09T16:41:59Z</time>
      </trkpt>
      <trkpt lat="44.62597" lon="2.35312">
        <ele>393</ele>
        <time>2022-12-09T16:42:03Z</time>
      </trkpt>
      <trkpt lat="44.62603" lon="2.35295">
        <ele>391</ele>
        <time>2022-12-09T16:42:05Z</time>
      </trkpt>
      <trkpt lat="44.62608" lon="2.3527">
        <ele>388</ele>
        <time>2022-12-09T16:42:09Z</time>
      </trkpt>
      <trkpt lat="44.62608" lon="2.35241">
        <ele>389</ele>
        <time>2022-12-09T16:42:12Z</time>
      </trkpt>
      <trkpt lat="44.62605" lon="2.35212">
        <ele>390</ele>
        <time>2022-12-09T16:42:16Z</time>
      </trkpt>
      <trkpt lat="44.62595" lon="2.35141">
        <ele>396</ele>
        <time>2022-12-09T16:42:25Z</time>
      </trkpt>
      <trkpt lat="44.62594" lon="2.35111">
        <ele>397</ele>
        <time>2022-12-09T16:42:29Z</time>
      </trkpt>
      <trkpt lat="44.626" lon="2.35086">
        <ele>396</ele>
        <time>2022-12-09T16:42:32Z</time>
      </trkpt>
      <trkpt lat="44.62614" lon="2.35063">
        <ele>396</ele>
        <time>2022-12-09T16:42:36Z</time>
      </trkpt>
      <trkpt lat="44.62628" lon="2.35051">
        <ele>395</ele>
        <time>2022-12-09T16:42:39Z</time>
      </trkpt>
      <trkpt lat="44.62639" lon="2.35047">
        <ele>393</ele>
        <time>2022-12-09T16:42:41Z</time>
      </trkpt>
      <trkpt lat="44.62668" lon="2.35051">
        <ele>384</ele>
        <time>2022-12-09T16:42:46Z</time>
      </trkpt>
      <trkpt lat="44.62688" lon="2.35057">
        <ele>379</ele>
        <time>2022-12-09T16:42:50Z</time>
      </trkpt>
      <trkpt lat="44.62729" lon="2.35077">
        <ele>368</ele>
        <time>2022-12-09T16:42:58Z</time>
      </trkpt>
      <trkpt lat="44.62756" lon="2.35086">
        <ele>360</ele>
        <time>2022-12-09T16:43:03Z</time>
      </trkpt>
      <trkpt lat="44.62766" lon="2.35086">
        <ele>357</ele>
        <time>2022-12-09T16:43:04Z</time>
      </trkpt>
      <trkpt lat="44.62787" lon="2.35078">
        <ele>352</ele>
        <time>2022-12-09T16:43:08Z</time>
      </trkpt>
      <trkpt lat="44.62799" lon="2.35064">
        <ele>353</ele>
        <time>2022-12-09T16:43:11Z</time>
      </trkpt>
      <trkpt lat="44.62805" lon="2.35053">
        <ele>354</ele>
        <time>2022-12-09T16:43:13Z</time>
      </trkpt>
      <trkpt lat="44.62823" lon="2.35001">
        <ele>363</ele>
        <time>2022-12-09T16:43:20Z</time>
      </trkpt>
      <trkpt lat="44.62861" lon="2.34953">
        <ele>365</ele>
        <time>2022-12-09T16:43:29Z</time>
      </trkpt>
      <trkpt lat="44.6287" lon="2.34946">
        <ele>365</ele>
        <time>2022-12-09T16:43:31Z</time>
      </trkpt>
      <trkpt lat="44.62893" lon="2.34936">
        <ele>363</ele>
        <time>2022-12-09T16:43:35Z</time>
      </trkpt>
      <trkpt lat="44.62899" lon="2.3494">
        <ele>361</ele>
        <time>2022-12-09T16:43:37Z</time>
      </trkpt>
      <trkpt lat="44.62912" lon="2.34956">
        <ele>355</ele>
        <time>2022-12-09T16:43:40Z</time>
      </trkpt>
      <trkpt lat="44.62936" lon="2.3501">
        <ele>346</ele>
        <time>2022-12-09T16:43:48Z</time>
      </trkpt>
      <trkpt lat="44.62944" lon="2.35034">
        <ele>343</ele>
        <time>2022-12-09T16:43:51Z</time>
      </trkpt>
      <trkpt lat="44.6295" lon="2.35067">
        <ele>338</ele>
        <time>2022-12-09T16:43:55Z</time>
      </trkpt>
      <trkpt lat="44.62955" lon="2.35138">
        <ele>326</ele>
        <time>2022-12-09T16:44:04Z</time>
      </trkpt>
      <trkpt lat="44.6296" lon="2.35155">
        <ele>325</ele>
        <time>2022-12-09T16:44:07Z</time>
      </trkpt>
      <trkpt lat="44.62967" lon="2.35174">
        <ele>324</ele>
        <time>2022-12-09T16:44:09Z</time>
      </trkpt>
      <trkpt lat="44.62979" lon="2.35195">
        <ele>324</ele>
        <time>2022-12-09T16:44:13Z</time>
      </trkpt>
      <trkpt lat="44.62995" lon="2.3524">
        <ele>320</ele>
        <time>2022-12-09T16:44:19Z</time>
      </trkpt>
      <trkpt lat="44.63003" lon="2.35253">
        <ele>318</ele>
        <time>2022-12-09T16:44:21Z</time>
      </trkpt>
      <trkpt lat="44.63013" lon="2.35254">
        <ele>316</ele>
        <time>2022-12-09T16:44:23Z</time>
      </trkpt>
      <trkpt lat="44.63091" lon="2.35231">
        <ele>315</ele>
        <time>2022-12-09T16:44:37Z</time>
      </trkpt>
      <trkpt lat="44.63127" lon="2.35215">
        <ele>311</ele>
        <time>2022-12-09T16:44:44Z</time>
      </trkpt>
      <trkpt lat="44.63161" lon="2.35192">
        <ele>306</ele>
        <time>2022-12-09T16:44:51Z</time>
      </trkpt>
      <trkpt lat="44.63172" lon="2.35191">
        <ele>303</ele>
        <time>2022-12-09T16:44:53Z</time>
      </trkpt>
      <trkpt lat="44.63176" lon="2.35195">
        <ele>302</ele>
        <time>2022-12-09T16:44:54Z</time>
      </trkpt>
      <trkpt lat="44.63177" lon="2.35201">
        <ele>301</ele>
        <time>2022-12-09T16:44:54Z</time>
      </trkpt>
      <trkpt lat="44.63174" lon="2.35208">
        <ele>301</ele>
        <time>2022-12-09T16:44:55Z</time>
      </trkpt>
      <trkpt lat="44.63155" lon="2.35225">
        <ele>303</ele>
        <time>2022-12-09T16:44:59Z</time>
      </trkpt>
      <trkpt lat="44.63121" lon="2.35267">
        <ele>298</ele>
        <time>2022-12-09T16:45:07Z</time>
      </trkpt>
      <trkpt lat="44.63093" lon="2.35291">
        <ele>292</ele>
        <time>2022-12-09T16:45:13Z</time>
      </trkpt>
      <trkpt lat="44.63058" lon="2.35317">
        <ele>286</ele>
        <time>2022-12-09T16:45:20Z</time>
      </trkpt>
      <trkpt lat="44.6302" lon="2.35354">
        <ele>278</ele>
        <time>2022-12-09T16:45:29Z</time>
      </trkpt>
      <trkpt lat="44.63011" lon="2.3536">
        <ele>278</ele>
        <time>2022-12-09T16:45:30Z</time>
      </trkpt>
      <trkpt lat="44.62991" lon="2.35367">
        <ele>276</ele>
        <time>2022-12-09T16:45:34Z</time>
      </trkpt>
      <trkpt lat="44.62979" lon="2.35369">
        <ele>274</ele>
        <time>2022-12-09T16:45:36Z</time>
      </trkpt>
      <trkpt lat="44.6295" lon="2.35393">
        <ele>263</ele>
        <time>2022-12-09T16:45:42Z</time>
      </trkpt>
      <trkpt lat="44.62939" lon="2.35393">
        <ele>262</ele>
        <time>2022-12-09T16:45:44Z</time>
      </trkpt>
      <trkpt lat="44.62894" lon="2.35352">
        <ele>270</ele>
        <time>2022-12-09T16:45:54Z</time>
      </trkpt>
      <trkpt lat="44.62882" lon="2.35339">
        <ele>271</ele>
        <time>2022-12-09T16:45:56Z</time>
      </trkpt>
      <trkpt lat="44.62868" lon="2.3531">
        <ele>275</ele>
        <time>2022-12-09T16:46:01Z</time>
      </trkpt>
      <trkpt lat="44.62864" lon="2.35309">
        <ele>275</ele>
        <time>2022-12-09T16:46:02Z</time>
      </trkpt>
      <trkpt lat="44.62863" lon="2.3531">
        <ele>274</ele>
        <time>2022-12-09T16:46:02Z</time>
      </trkpt>
      <trkpt lat="44.6286" lon="2.35322">
        <ele>272</ele>
        <time>2022-12-09T16:46:03Z</time>
      </trkpt>
      <trkpt lat="44.62868" lon="2.35347">
        <ele>269</ele>
        <time>2022-12-09T16:46:07Z</time>
      </trkpt>
      <trkpt lat="44.62876" lon="2.35364">
        <ele>266</ele>
        <time>2022-12-09T16:46:09Z</time>
      </trkpt>
      <trkpt lat="44.62893" lon="2.35389">
        <ele>262</ele>
        <time>2022-12-09T16:46:14Z</time>
      </trkpt>
      <trkpt lat="44.62906" lon="2.35414">
        <ele>256</ele>
        <time>2022-12-09T16:46:18Z</time>
      </trkpt>
      <trkpt lat="44.62912" lon="2.35433">
        <ele>250</ele>
        <time>2022-12-09T16:46:20Z</time>
      </trkpt>
      <trkpt lat="44.62919" lon="2.35469">
        <ele>238</ele>
        <time>2022-12-09T16:46:25Z</time>
      </trkpt>
      <trkpt lat="44.62922" lon="2.35476">
        <ele>236</ele>
        <time>2022-12-09T16:46:26Z</time>
      </trkpt>
      <trkpt lat="44.62927" lon="2.35481">
        <ele>234</ele>
        <time>2022-12-09T16:46:27Z</time>
      </trkpt>
      <trkpt lat="44.62934" lon="2.35484">
        <ele>233</ele>
        <time>2022-12-09T16:46:28Z</time>
      </trkpt>
      <trkpt lat="44.63012" lon="2.35457">
        <ele>238</ele>
        <time>2022-12-09T16:46:43Z</time>
      </trkpt>
      <trkpt lat="44.63075" lon="2.35445">
        <ele>230</ele>
        <time>2022-12-09T16:46:54Z</time>
      </trkpt>
      <trkpt lat="44.63088" lon="2.35445">
        <ele>229</ele>
        <time>2022-12-09T16:46:56Z</time>
      </trkpt>
      <trkpt lat="44.63109" lon="2.35449">
        <ele>230</ele>
        <time>2022-12-09T16:47:00Z</time>
      </trkpt>
      <trkpt lat="44.63121" lon="2.35456">
        <ele>229</ele>
        <time>2022-12-09T16:47:02Z</time>
      </trkpt>
      <trkpt lat="44.63197" lon="2.35528">
        <ele>225</ele>
        <time>2022-12-09T16:47:19Z</time>
      </trkpt>
      <trkpt lat="44.6321" lon="2.35541">
        <ele>226</ele>
        <time>2022-12-09T16:47:22Z</time>
      </trkpt>
      <trkpt lat="44.63211" lon="2.35547">
        <ele>224</ele>
        <time>2022-12-09T16:47:22Z</time>
      </trkpt>
      <trkpt lat="44.63206" lon="2.35559">
        <ele>220</ele>
        <time>2022-12-09T16:47:24Z</time>
      </trkpt>
      <trkpt lat="44.63185" lon="2.35603">
        <ele>209</ele>
        <time>2022-12-09T16:47:31Z</time>
      </trkpt>
      <trkpt lat="44.63168" lon="2.35642">
        <ele>207</ele>
        <time>2022-12-09T16:47:37Z</time>
      </trkpt>
      <trkpt lat="44.63156" lon="2.35663">
        <ele>207</ele>
        <time>2022-12-09T16:47:40Z</time>
      </trkpt>
      <trkpt lat="44.6315" lon="2.35668">
        <ele>207</ele>
        <time>2022-12-09T16:47:41Z</time>
      </trkpt>
      <trkpt lat="44.6314" lon="2.35673">
        <ele>208</ele>
        <time>2022-12-09T16:47:43Z</time>
      </trkpt>
      <trkpt lat="44.63108" lon="2.3568">
        <ele>209</ele>
        <time>2022-12-09T16:47:49Z</time>
      </trkpt>
      <trkpt lat="44.63088" lon="2.3569">
        <ele>211</ele>
        <time>2022-12-09T16:47:53Z</time>
      </trkpt>
      <trkpt lat="44.63055" lon="2.35712">
        <ele>214</ele>
        <time>2022-12-09T16:47:59Z</time>
      </trkpt>
      <trkpt lat="44.63051" lon="2.35716">
        <ele>214</ele>
        <time>2022-12-09T16:48:00Z</time>
      </trkpt>
      <trkpt lat="44.6305" lon="2.35723">
        <ele>215</ele>
        <time>2022-12-09T16:48:01Z</time>
      </trkpt>
      <trkpt lat="44.63027" lon="2.35725">
        <ele>214</ele>
        <time>2022-12-09T16:48:05Z</time>
      </trkpt>
      <trkpt lat="44.63003" lon="2.35733">
        <ele>214</ele>
        <time>2022-12-09T16:48:10Z</time>
      </trkpt>
      <trkpt lat="44.62957" lon="2.35762">
        <ele>214</ele>
        <time>2022-12-09T16:48:18Z</time>
      </trkpt>
      <trkpt lat="44.62926" lon="2.35805">
        <ele>214</ele>
        <time>2022-12-09T16:48:26Z</time>
      </trkpt>
      <trkpt lat="44.6292" lon="2.3582">
        <ele>214</ele>
        <time>2022-12-09T16:48:28Z</time>
      </trkpt>
      <trkpt lat="44.62911" lon="2.35857">
        <ele>217</ele>
        <time>2022-12-09T16:48:33Z</time>
      </trkpt>
      <trkpt lat="44.62906" lon="2.35871">
        <ele>218</ele>
        <time>2022-12-09T16:48:35Z</time>
      </trkpt>
      <trkpt lat="44.62894" lon="2.35892">
        <ele>218</ele>
        <time>2022-12-09T16:48:39Z</time>
      </trkpt>
      <trkpt lat="44.62838" lon="2.3597">
        <ele>219</ele>
        <time>2022-12-09T16:48:53Z</time>
      </trkpt>
      <trkpt lat="44.62822" lon="2.3599">
        <ele>219</ele>
        <time>2022-12-09T16:48:57Z</time>
      </trkpt>
      <trkpt lat="44.62806" lon="2.36005">
        <ele>218</ele>
        <time>2022-12-09T16:49:00Z</time>
      </trkpt>
      <trkpt lat="44.62752" lon="2.36041">
        <ele>212</ele>
        <time>2022-12-09T16:49:11Z</time>
      </trkpt>
      <trkpt lat="44.62739" lon="2.36054">
        <ele>213</ele>
        <time>2022-12-09T16:49:13Z</time>
      </trkpt>
      <trkpt lat="44.62718" lon="2.3608">
        <ele>215</ele>
        <time>2022-12-09T16:49:18Z</time>
      </trkpt>
      <trkpt lat="44.62689" lon="2.36129">
        <ele>218</ele>
        <time>2022-12-09T16:49:27Z</time>
      </trkpt>
      <trkpt lat="44.62674" lon="2.36164">
        <ele>217</ele>
        <time>2022-12-09T16:49:32Z</time>
      </trkpt>
      <trkpt lat="44.62654" lon="2.36219">
        <ele>222</ele>
        <time>2022-12-09T16:49:40Z</time>
      </trkpt>
      <trkpt lat="44.62628" lon="2.36313">
        <ele>233</ele>
        <time>2022-12-09T16:49:52Z</time>
      </trkpt>
      <trkpt lat="44.62618" lon="2.36332">
        <ele>233</ele>
        <time>2022-12-09T16:49:55Z</time>
      </trkpt>
      <trkpt lat="44.62606" lon="2.36344">
        <ele>232</ele>
        <time>2022-12-09T16:49:58Z</time>
      </trkpt>
      <trkpt lat="44.62594" lon="2.36353">
        <ele>230</ele>
        <time>2022-12-09T16:50:00Z</time>
      </trkpt>
      <trkpt lat="44.62549" lon="2.36372">
        <ele>225</ele>
        <time>2022-12-09T16:50:09Z</time>
      </trkpt>
      <trkpt lat="44.62498" lon="2.36404">
        <ele>221</ele>
        <time>2022-12-09T16:50:19Z</time>
      </trkpt>
      <trkpt lat="44.62477" lon="2.3641">
        <ele>225</ele>
        <time>2022-12-09T16:50:22Z</time>
      </trkpt>
      <trkpt lat="44.62457" lon="2.36407">
        <ele>228</ele>
        <time>2022-12-09T16:50:26Z</time>
      </trkpt>
      <trkpt lat="44.62446" lon="2.364">
        <ele>228</ele>
        <time>2022-12-09T16:50:28Z</time>
      </trkpt>
      <trkpt lat="44.6243" lon="2.36384">
        <ele>226</ele>
        <time>2022-12-09T16:50:32Z</time>
      </trkpt>
      <trkpt lat="44.62399" lon="2.36337">
        <ele>221</ele>
        <time>2022-12-09T16:50:40Z</time>
      </trkpt>
      <trkpt lat="44.62327" lon="2.36211">
        <ele>219</ele>
        <time>2022-12-09T16:51:00Z</time>
      </trkpt>
      <trkpt lat="44.62293" lon="2.36147">
        <ele>215</ele>
        <time>2022-12-09T16:51:10Z</time>
      </trkpt>
      <trkpt lat="44.62285" lon="2.36136">
        <ele>214</ele>
        <time>2022-12-09T16:51:12Z</time>
      </trkpt>
      <trkpt lat="44.62267" lon="2.36125">
        <ele>214</ele>
        <time>2022-12-09T16:51:16Z</time>
      </trkpt>
      <trkpt lat="44.6225" lon="2.36124">
        <ele>216</ele>
        <time>2022-12-09T16:51:19Z</time>
      </trkpt>
      <trkpt lat="44.62219" lon="2.36138">
        <ele>217</ele>
        <time>2022-12-09T16:51:25Z</time>
      </trkpt>
      <trkpt lat="44.6221" lon="2.36145">
        <ele>217</ele>
        <time>2022-12-09T16:51:27Z</time>
      </trkpt>
      <trkpt lat="44.62198" lon="2.36161">
        <ele>218</ele>
        <time>2022-12-09T16:51:29Z</time>
      </trkpt>
      <trkpt lat="44.62153" lon="2.36233">
        <ele>227</ele>
        <time>2022-12-09T16:51:42Z</time>
      </trkpt>
      <trkpt lat="44.62115" lon="2.36303">
        <ele>227</ele>
        <time>2022-12-09T16:51:53Z</time>
      </trkpt>
      <trkpt lat="44.62095" lon="2.36348">
        <ele>224</ele>
        <time>2022-12-09T16:51:59Z</time>
      </trkpt>
      <trkpt lat="44.62043" lon="2.3648">
        <ele>226</ele>
        <time>2022-12-09T16:52:19Z</time>
      </trkpt>
      <trkpt lat="44.62033" lon="2.36516">
        <ele>224</ele>
        <time>2022-12-09T16:52:23Z</time>
      </trkpt>
      <trkpt lat="44.62029" lon="2.36548">
        <ele>222</ele>
        <time>2022-12-09T16:52:28Z</time>
      </trkpt>
      <trkpt lat="44.62029" lon="2.36578">
        <ele>222</ele>
        <time>2022-12-09T16:52:31Z</time>
      </trkpt>
      <trkpt lat="44.62035" lon="2.36613">
        <ele>223</ele>
        <time>2022-12-09T16:52:36Z</time>
      </trkpt>
      <trkpt lat="44.62042" lon="2.36634">
        <ele>225</ele>
        <time>2022-12-09T16:52:39Z</time>
      </trkpt>
      <trkpt lat="44.6205" lon="2.36653">
        <ele>226</ele>
        <time>2022-12-09T16:52:42Z</time>
      </trkpt>
      <trkpt lat="44.6211" lon="2.36775">
        <ele>230</ele>
        <time>2022-12-09T16:53:00Z</time>
      </trkpt>
      <trkpt lat="44.62121" lon="2.36803">
        <ele>228</ele>
        <time>2022-12-09T16:53:04Z</time>
      </trkpt>
      <trkpt lat="44.62129" lon="2.36835">
        <ele>224</ele>
        <time>2022-12-09T16:53:09Z</time>
      </trkpt>
      <trkpt lat="44.62132" lon="2.36865">
        <ele>225</ele>
        <time>2022-12-09T16:53:13Z</time>
      </trkpt>
      <trkpt lat="44.62132" lon="2.36886">
        <ele>224</ele>
        <time>2022-12-09T16:53:15Z</time>
      </trkpt>
      <trkpt lat="44.6213" lon="2.36915">
        <ele>223</ele>
        <time>2022-12-09T16:53:19Z</time>
      </trkpt>
      <trkpt lat="44.62124" lon="2.36949">
        <ele>225</ele>
        <time>2022-12-09T16:53:23Z</time>
      </trkpt>
      <trkpt lat="44.62074" lon="2.3709">
        <ele>225</ele>
        <time>2022-12-09T16:53:43Z</time>
      </trkpt>
      <trkpt lat="44.62047" lon="2.37185">
        <ele>225</ele>
        <time>2022-12-09T16:53:56Z</time>
      </trkpt>
      <trkpt lat="44.62043" lon="2.37197">
        <ele>226</ele>
        <time>2022-12-09T16:53:58Z</time>
      </trkpt>
      <trkpt lat="44.62035" lon="2.37216">
        <ele>227</ele>
        <time>2022-12-09T16:54:01Z</time>
      </trkpt>
      <trkpt lat="44.62019" lon="2.37234">
        <ele>226</ele>
        <time>2022-12-09T16:54:04Z</time>
      </trkpt>
      <trkpt lat="44.61914" lon="2.37286">
        <ele>223</ele>
        <time>2022-12-09T16:54:24Z</time>
      </trkpt>
      <trkpt lat="44.61877" lon="2.37308">
        <ele>223</ele>
        <time>2022-12-09T16:54:31Z</time>
      </trkpt>
      <trkpt lat="44.6184" lon="2.37333">
        <ele>218</ele>
        <time>2022-12-09T16:54:39Z</time>
      </trkpt>
      <trkpt lat="44.61831" lon="2.37339">
        <ele>218</ele>
        <time>2022-12-09T16:54:40Z</time>
      </trkpt>
      <trkpt lat="44.61804" lon="2.37358">
        <ele>223</ele>
        <time>2022-12-09T16:54:46Z</time>
      </trkpt>
      <trkpt lat="44.61773" lon="2.37384">
        <ele>224</ele>
        <time>2022-12-09T16:54:52Z</time>
      </trkpt>
      <trkpt lat="44.61748" lon="2.37412">
        <ele>222</ele>
        <time>2022-12-09T16:54:58Z</time>
      </trkpt>
      <trkpt lat="44.61742" lon="2.37421">
        <ele>223</ele>
        <time>2022-12-09T16:55:00Z</time>
      </trkpt>
      <trkpt lat="44.61736" lon="2.37433">
        <ele>225</ele>
        <time>2022-12-09T16:55:01Z</time>
      </trkpt>
      <trkpt lat="44.6167" lon="2.37608">
        <ele>226</ele>
        <time>2022-12-09T16:55:26Z</time>
      </trkpt>
      <trkpt lat="44.61662" lon="2.37624">
        <ele>228</ele>
        <time>2022-12-09T16:55:29Z</time>
      </trkpt>
      <trkpt lat="44.61644" lon="2.37652">
        <ele>231</ele>
        <time>2022-12-09T16:55:34Z</time>
      </trkpt>
      <trkpt lat="44.61628" lon="2.37668">
        <ele>230</ele>
        <time>2022-12-09T16:55:37Z</time>
      </trkpt>
      <trkpt lat="44.61604" lon="2.37687">
        <ele>231</ele>
        <time>2022-12-09T16:55:42Z</time>
      </trkpt>
      <trkpt lat="44.61573" lon="2.37699">
        <ele>229</ele>
        <time>2022-12-09T16:55:48Z</time>
      </trkpt>
      <trkpt lat="44.61551" lon="2.37704">
        <ele>229</ele>
        <time>2022-12-09T16:55:52Z</time>
      </trkpt>
      <trkpt lat="44.61498" lon="2.37722">
        <ele>225</ele>
        <time>2022-12-09T16:56:01Z</time>
      </trkpt>
      <trkpt lat="44.61482" lon="2.37731">
        <ele>225</ele>
        <time>2022-12-09T16:56:05Z</time>
      </trkpt>
      <trkpt lat="44.61472" lon="2.37739">
        <ele>224</ele>
        <time>2022-12-09T16:56:07Z</time>
      </trkpt>
      <trkpt lat="44.61452" lon="2.37759">
        <ele>223</ele>
        <time>2022-12-09T16:56:11Z</time>
      </trkpt>
      <trkpt lat="44.61422" lon="2.37798">
        <ele>225</ele>
        <time>2022-12-09T16:56:18Z</time>
      </trkpt>
      <trkpt lat="44.6139" lon="2.37858">
        <ele>232</ele>
        <time>2022-12-09T16:56:28Z</time>
      </trkpt>
      <trkpt lat="44.61363" lon="2.37911">
        <ele>232</ele>
        <time>2022-12-09T16:56:36Z</time>
      </trkpt>
      <trkpt lat="44.61345" lon="2.37935">
        <ele>229</ele>
        <time>2022-12-09T16:56:40Z</time>
      </trkpt>
      <trkpt lat="44.61334" lon="2.37948">
        <ele>226</ele>
        <time>2022-12-09T16:56:43Z</time>
      </trkpt>
      <trkpt lat="44.61275" lon="2.37991">
        <ele>223</ele>
        <time>2022-12-09T16:56:55Z</time>
      </trkpt>
      <trkpt lat="44.61264" lon="2.38002">
        <ele>221</ele>
        <time>2022-12-09T16:56:57Z</time>
      </trkpt>
      <trkpt lat="44.61252" lon="2.38017">
        <ele>219</ele>
        <time>2022-12-09T16:57:00Z</time>
      </trkpt>
      <trkpt lat="44.61249" lon="2.38028">
        <ele>220</ele>
        <time>2022-12-09T16:57:02Z</time>
      </trkpt>
      <trkpt lat="44.61248" lon="2.38049">
        <ele>222</ele>
        <time>2022-12-09T16:57:04Z</time>
      </trkpt>
      <trkpt lat="44.61256" lon="2.38074">
        <ele>224</ele>
        <time>2022-12-09T16:57:08Z</time>
      </trkpt>
      <trkpt lat="44.61266" lon="2.38089">
        <ele>227</ele>
        <time>2022-12-09T16:57:10Z</time>
      </trkpt>
      <trkpt lat="44.61289" lon="2.38116">
        <ele>231</ele>
        <time>2022-12-09T16:57:16Z</time>
      </trkpt>
      <trkpt lat="44.61342" lon="2.38186">
        <ele>234</ele>
        <time>2022-12-09T16:57:29Z</time>
      </trkpt>
      <trkpt lat="44.61356" lon="2.38211">
        <ele>237</ele>
        <time>2022-12-09T16:57:33Z</time>
      </trkpt>
      <trkpt lat="44.61371" lon="2.38257">
        <ele>238</ele>
        <time>2022-12-09T16:57:39Z</time>
      </trkpt>
      <trkpt lat="44.61373" lon="2.38282">
        <ele>238</ele>
        <time>2022-12-09T16:57:42Z</time>
      </trkpt>
      <trkpt lat="44.61368" lon="2.38303">
        <ele>235</ele>
        <time>2022-12-09T16:57:45Z</time>
      </trkpt>
      <trkpt lat="44.6136" lon="2.38322">
        <ele>231</ele>
        <time>2022-12-09T16:57:48Z</time>
      </trkpt>
      <trkpt lat="44.61353" lon="2.38333">
        <ele>228</ele>
        <time>2022-12-09T16:57:50Z</time>
      </trkpt>
      <trkpt lat="44.61333" lon="2.38357">
        <ele>227</ele>
        <time>2022-12-09T16:57:54Z</time>
      </trkpt>
      <trkpt lat="44.61313" lon="2.38375">
        <ele>230</ele>
        <time>2022-12-09T16:57:59Z</time>
      </trkpt>
      <trkpt lat="44.61253" lon="2.38413">
        <ele>226</ele>
        <time>2022-12-09T16:58:10Z</time>
      </trkpt>
      <trkpt lat="44.61231" lon="2.38424">
        <ele>226</ele>
        <time>2022-12-09T16:58:14Z</time>
      </trkpt>
      <trkpt lat="44.61203" lon="2.38432">
        <ele>226</ele>
        <time>2022-12-09T16:58:20Z</time>
      </trkpt>
      <trkpt lat="44.6119" lon="2.38434">
        <ele>226</ele>
        <time>2022-12-09T16:58:22Z</time>
      </trkpt>
      <trkpt lat="44.61168" lon="2.38437">
        <ele>225</ele>
        <time>2022-12-09T16:58:26Z</time>
      </trkpt>
      <trkpt lat="44.61126" lon="2.38436">
        <ele>227</ele>
        <time>2022-12-09T16:58:33Z</time>
      </trkpt>
      <trkpt lat="44.61066" lon="2.38427">
        <ele>227</ele>
        <time>2022-12-09T16:58:44Z</time>
      </trkpt>
      <trkpt lat="44.61038" lon="2.38425">
        <ele>227</ele>
        <time>2022-12-09T16:58:49Z</time>
      </trkpt>
      <trkpt lat="44.60924" lon="2.38439">
        <ele>233</ele>
        <time>2022-12-09T16:59:09Z</time>
      </trkpt>
      <trkpt lat="44.60835" lon="2.38453">
        <ele>234</ele>
        <time>2022-12-09T16:59:25Z</time>
      </trkpt>
      <trkpt lat="44.60813" lon="2.38454">
        <ele>236</ele>
        <time>2022-12-09T16:59:29Z</time>
      </trkpt>
      <trkpt lat="44.6077" lon="2.38445">
        <ele>239</ele>
        <time>2022-12-09T16:59:37Z</time>
      </trkpt>
      <trkpt lat="44.60704" lon="2.38438">
        <ele>236</ele>
        <time>2022-12-09T16:59:49Z</time>
      </trkpt>
      <trkpt lat="44.60689" lon="2.38433">
        <ele>234</ele>
        <time>2022-12-09T16:59:51Z</time>
      </trkpt>
      <trkpt lat="44.60668" lon="2.38419">
        <ele>229</ele>
        <time>2022-12-09T16:59:56Z</time>
      </trkpt>
      <trkpt lat="44.6065" lon="2.38417">
        <ele>230</ele>
        <time>2022-12-09T16:59:59Z</time>
      </trkpt>
      <trkpt lat="44.60632" lon="2.3841">
        <ele>231</ele>
        <time>2022-12-09T17:00:02Z</time>
      </trkpt>
      <trkpt lat="44.60611" lon="2.38397">
        <ele>232</ele>
        <time>2022-12-09T17:00:06Z</time>
      </trkpt>
      <trkpt lat="44.60585" lon="2.38389">
        <ele>233</ele>
        <time>2022-12-09T17:00:11Z</time>
      </trkpt>
      <trkpt lat="44.60572" lon="2.38387">
        <ele>232</ele>
        <time>2022-12-09T17:00:13Z</time>
      </trkpt>
      <trkpt lat="44.60557" lon="2.38389">
        <ele>232</ele>
        <time>2022-12-09T17:00:16Z</time>
      </trkpt>
      <trkpt lat="44.60543" lon="2.38394">
        <ele>232</ele>
        <time>2022-12-09T17:00:19Z</time>
      </trkpt>
      <trkpt lat="44.60522" lon="2.38408">
        <ele>231</ele>
        <time>2022-12-09T17:00:23Z</time>
      </trkpt>
      <trkpt lat="44.60514" lon="2.38419">
        <ele>230</ele>
        <time>2022-12-09T17:00:25Z</time>
      </trkpt>
      <trkpt lat="44.60509" lon="2.38435">
        <ele>231</ele>
        <time>2022-12-09T17:00:27Z</time>
      </trkpt>
      <trkpt lat="44.60509" lon="2.38455">
        <ele>232</ele>
        <time>2022-12-09T17:00:29Z</time>
      </trkpt>
      <trkpt lat="44.60513" lon="2.38517">
        <ele>236</ele>
        <time>2022-12-09T17:00:37Z</time>
      </trkpt>
      <trkpt lat="44.60513" lon="2.38559">
        <ele>238</ele>
        <time>2022-12-09T17:00:43Z</time>
      </trkpt>
      <trkpt lat="44.6051" lon="2.38584">
        <ele>237</ele>
        <time>2022-12-09T17:00:46Z</time>
      </trkpt>
      <trkpt lat="44.60504" lon="2.38624">
        <ele>239</ele>
        <time>2022-12-09T17:00:51Z</time>
      </trkpt>
      <trkpt lat="44.60486" lon="2.38688">
        <ele>245</ele>
        <time>2022-12-09T17:01:00Z</time>
      </trkpt>
      <trkpt lat="44.60463" lon="2.38746">
        <ele>246</ele>
        <time>2022-12-09T17:01:08Z</time>
      </trkpt>
      <trkpt lat="44.60449" lon="2.38774">
        <ele>245</ele>
        <time>2022-12-09T17:01:12Z</time>
      </trkpt>
      <trkpt lat="44.60428" lon="2.38809">
        <ele>240</ele>
        <time>2022-12-09T17:01:18Z</time>
      </trkpt>
      <trkpt lat="44.60339" lon="2.3894">
        <ele>239</ele>
        <time>2022-12-09T17:01:41Z</time>
      </trkpt>
      <trkpt lat="44.60321" lon="2.38964">
        <ele>242</ele>
        <time>2022-12-09T17:01:46Z</time>
      </trkpt>
      <trkpt lat="44.6027" lon="2.39014">
        <ele>241</ele>
        <time>2022-12-09T17:01:57Z</time>
      </trkpt>
      <trkpt lat="44.60255" lon="2.39024">
        <ele>241</ele>
        <time>2022-12-09T17:02:00Z</time>
      </trkpt>
      <trkpt lat="44.60254" lon="2.39034">
        <ele>244</ele>
        <time>2022-12-09T17:02:01Z</time>
      </trkpt>
      <trkpt lat="44.60243" lon="2.39041">
        <ele>245</ele>
        <time>2022-12-09T17:02:03Z</time>
      </trkpt>
      <trkpt lat="44.60178" lon="2.39057">
        <ele>248</ele>
        <time>2022-12-09T17:02:15Z</time>
      </trkpt>
      <trkpt lat="44.60152" lon="2.3905">
        <ele>245</ele>
        <time>2022-12-09T17:02:20Z</time>
      </trkpt>
      <trkpt lat="44.60138" lon="2.39041">
        <ele>241</ele>
        <time>2022-12-09T17:02:22Z</time>
      </trkpt>
      <trkpt lat="44.60126" lon="2.39038">
        <ele>240</ele>
        <time>2022-12-09T17:02:24Z</time>
      </trkpt>
      <trkpt lat="44.60108" lon="2.39041">
        <ele>240</ele>
        <time>2022-12-09T17:02:28Z</time>
      </trkpt>
      <trkpt lat="44.60078" lon="2.39066">
        <ele>243</ele>
        <time>2022-12-09T17:02:34Z</time>
      </trkpt>
      <trkpt lat="44.60063" lon="2.39086">
        <ele>244</ele>
        <time>2022-12-09T17:02:38Z</time>
      </trkpt>
      <trkpt lat="44.60045" lon="2.39148">
        <ele>252</ele>
        <time>2022-12-09T17:02:46Z</time>
      </trkpt>
      <trkpt lat="44.6004" lon="2.39173">
        <ele>254</ele>
        <time>2022-12-09T17:02:49Z</time>
      </trkpt>
      <trkpt lat="44.60038" lon="2.39229">
        <ele>263</ele>
        <time>2022-12-09T17:02:56Z</time>
      </trkpt>
      <trkpt lat="44.60041" lon="2.39233">
        <ele>265</ele>
        <time>2022-12-09T17:02:57Z</time>
      </trkpt>
      <trkpt lat="44.60042" lon="2.3924">
        <ele>267</ele>
        <time>2022-12-09T17:02:58Z</time>
      </trkpt>
      <trkpt lat="44.60041" lon="2.3925">
        <ele>268</ele>
        <time>2022-12-09T17:02:59Z</time>
      </trkpt>
      <trkpt lat="44.60035" lon="2.39267">
        <ele>269</ele>
        <time>2022-12-09T17:03:02Z</time>
      </trkpt>
      <trkpt lat="44.60028" lon="2.39293">
        <ele>271</ele>
        <time>2022-12-09T17:03:05Z</time>
      </trkpt>
      <trkpt lat="44.60022" lon="2.39307">
        <ele>271</ele>
        <time>2022-12-09T17:03:07Z</time>
      </trkpt>
      <trkpt lat="44.60011" lon="2.39322">
        <ele>270</ele>
        <time>2022-12-09T17:03:10Z</time>
      </trkpt>
      <trkpt lat="44.59989" lon="2.39352">
        <ele>274</ele>
        <time>2022-12-09T17:03:15Z</time>
      </trkpt>
      <trkpt lat="44.59942" lon="2.39378">
        <ele>276</ele>
        <time>2022-12-09T17:03:24Z</time>
      </trkpt>
      <trkpt lat="44.59925" lon="2.39385">
        <ele>276</ele>
        <time>2022-12-09T17:03:28Z</time>
      </trkpt>
      <trkpt lat="44.59907" lon="2.39386">
        <ele>272</ele>
        <time>2022-12-09T17:03:31Z</time>
      </trkpt>
      <trkpt lat="44.59892" lon="2.39382">
        <ele>267</ele>
        <time>2022-12-09T17:03:34Z</time>
      </trkpt>
      <trkpt lat="44.59888" lon="2.39383">
        <ele>266</ele>
        <time>2022-12-09T17:03:34Z</time>
      </trkpt>
      <trkpt lat="44.59875" lon="2.39396">
        <ele>267</ele>
        <time>2022-12-09T17:03:37Z</time>
      </trkpt>
      <trkpt lat="44.5987" lon="2.39404">
        <ele>268</ele>
        <time>2022-12-09T17:03:38Z</time>
      </trkpt>
      <trkpt lat="44.59869" lon="2.39409">
        <ele>269</ele>
        <time>2022-12-09T17:03:39Z</time>
      </trkpt>
      <trkpt lat="44.59858" lon="2.39434">
        <ele>269</ele>
        <time>2022-12-09T17:03:43Z</time>
      </trkpt>
      <trkpt lat="44.59857" lon="2.39445">
        <ele>269</ele>
        <time>2022-12-09T17:03:44Z</time>
      </trkpt>
      <trkpt lat="44.59857" lon="2.39457">
        <ele>269</ele>
        <time>2022-12-09T17:03:46Z</time>
      </trkpt>
      <trkpt lat="44.59865" lon="2.3949">
        <ele>274</ele>
        <time>2022-12-09T17:03:50Z</time>
      </trkpt>
      <trkpt lat="44.59872" lon="2.39505">
        <ele>278</ele>
        <time>2022-12-09T17:03:52Z</time>
      </trkpt>
      <trkpt lat="44.59878" lon="2.39516">
        <ele>280</ele>
        <time>2022-12-09T17:03:54Z</time>
      </trkpt>
      <trkpt lat="44.59899" lon="2.39542">
        <ele>289</ele>
        <time>2022-12-09T17:03:59Z</time>
      </trkpt>
      <trkpt lat="44.59909" lon="2.39562">
        <ele>292</ele>
        <time>2022-12-09T17:04:02Z</time>
      </trkpt>
      <trkpt lat="44.59913" lon="2.39693">
        <ele>288</ele>
        <time>2022-12-09T17:04:19Z</time>
      </trkpt>
      <trkpt lat="44.59915" lon="2.39708">
        <ele>290</ele>
        <time>2022-12-09T17:04:21Z</time>
      </trkpt>
      <trkpt lat="44.59925" lon="2.39731">
        <ele>294</ele>
        <time>2022-12-09T17:04:24Z</time>
      </trkpt>
      <trkpt lat="44.59931" lon="2.39736">
        <ele>296</ele>
        <time>2022-12-09T17:04:25Z</time>
      </trkpt>
      <trkpt lat="44.59937" lon="2.39742">
        <ele>298</ele>
        <time>2022-12-09T17:04:27Z</time>
      </trkpt>
      <trkpt lat="44.59941" lon="2.39752">
        <ele>300</ele>
        <time>2022-12-09T17:04:28Z</time>
      </trkpt>
      <trkpt lat="44.59948" lon="2.3981">
        <ele>307</ele>
        <time>2022-12-09T17:04:36Z</time>
      </trkpt>
      <trkpt lat="44.59946" lon="2.39845">
        <ele>310</ele>
        <time>2022-12-09T17:04:40Z</time>
      </trkpt>
      <trkpt lat="44.59931" lon="2.39883">
        <ele>309</ele>
        <time>2022-12-09T17:04:46Z</time>
      </trkpt>
      <trkpt lat="44.59925" lon="2.39892">
        <ele>308</ele>
        <time>2022-12-09T17:04:47Z</time>
      </trkpt>
      <trkpt lat="44.59913" lon="2.39919">
        <ele>306</ele>
        <time>2022-12-09T17:04:51Z</time>
      </trkpt>
      <trkpt lat="44.59907" lon="2.39964">
        <ele>304</ele>
        <time>2022-12-09T17:04:57Z</time>
      </trkpt>
      <trkpt lat="44.59907" lon="2.39973">
        <ele>304</ele>
        <time>2022-12-09T17:04:58Z</time>
      </trkpt>
      <trkpt lat="44.5992" lon="2.40028">
        <ele>311</ele>
        <time>2022-12-09T17:05:06Z</time>
      </trkpt>
      <trkpt lat="44.59925" lon="2.40071">
        <ele>313</ele>
        <time>2022-12-09T17:05:11Z</time>
      </trkpt>
      <trkpt lat="44.59917" lon="2.40179">
        <ele>311</ele>
        <time>2022-12-09T17:05:25Z</time>
      </trkpt>
      <trkpt lat="44.59918" lon="2.40187">
        <ele>312</ele>
        <time>2022-12-09T17:05:26Z</time>
      </trkpt>
      <trkpt lat="44.59923" lon="2.40185">
        <ele>314</ele>
        <time>2022-12-09T17:05:27Z</time>
      </trkpt>
      <trkpt lat="44.59926" lon="2.40187">
        <ele>315</ele>
        <time>2022-12-09T17:05:27Z</time>
      </trkpt>
      <trkpt lat="44.59929" lon="2.40192">
        <ele>317</ele>
        <time>2022-12-09T17:05:28Z</time>
      </trkpt>
      <trkpt lat="44.59926" lon="2.40266">
        <ele>321</ele>
        <time>2022-12-09T17:05:38Z</time>
      </trkpt>
      <trkpt lat="44.59928" lon="2.40279">
        <ele>323</ele>
        <time>2022-12-09T17:05:39Z</time>
      </trkpt>
      <trkpt lat="44.59927" lon="2.40294">
        <ele>325</ele>
        <time>2022-12-09T17:05:41Z</time>
      </trkpt>
      <trkpt lat="44.59923" lon="2.40307">
        <ele>324</ele>
        <time>2022-12-09T17:05:43Z</time>
      </trkpt>
      <trkpt lat="44.59893" lon="2.40352">
        <ele>314</ele>
        <time>2022-12-09T17:05:51Z</time>
      </trkpt>
      <trkpt lat="44.59888" lon="2.40363">
        <ele>312</ele>
        <time>2022-12-09T17:05:52Z</time>
      </trkpt>
      <trkpt lat="44.59883" lon="2.40381">
        <ele>310</ele>
        <time>2022-12-09T17:05:55Z</time>
      </trkpt>
      <trkpt lat="44.59884" lon="2.404">
        <ele>312</ele>
        <time>2022-12-09T17:05:57Z</time>
      </trkpt>
      <trkpt lat="44.5989" lon="2.40412">
        <ele>315</ele>
        <time>2022-12-09T17:05:59Z</time>
      </trkpt>
      <trkpt lat="44.59903" lon="2.40418">
        <ele>322</ele>
        <time>2022-12-09T17:06:02Z</time>
      </trkpt>
      <trkpt lat="44.59906" lon="2.40425">
        <ele>323</ele>
        <time>2022-12-09T17:06:03Z</time>
      </trkpt>
      <trkpt lat="44.59936" lon="2.40452">
        <ele>335</ele>
        <time>2022-12-09T17:06:09Z</time>
      </trkpt>
      <trkpt lat="44.59941" lon="2.40461">
        <ele>337</ele>
        <time>2022-12-09T17:06:10Z</time>
      </trkpt>
      <trkpt lat="44.59946" lon="2.40482">
        <ele>338</ele>
        <time>2022-12-09T17:06:13Z</time>
      </trkpt>
      <trkpt lat="44.59945" lon="2.40525">
        <ele>339</ele>
        <time>2022-12-09T17:06:19Z</time>
      </trkpt>
      <trkpt lat="44.59938" lon="2.40543">
        <ele>338</ele>
        <time>2022-12-09T17:06:21Z</time>
      </trkpt>
      <trkpt lat="44.59922" lon="2.40561">
        <ele>335</ele>
        <time>2022-12-09T17:06:25Z</time>
      </trkpt>
      <trkpt lat="44.59908" lon="2.4059">
        <ele>332</ele>
        <time>2022-12-09T17:06:29Z</time>
      </trkpt>
      <trkpt lat="44.59881" lon="2.40658">
        <ele>329</ele>
        <time>2022-12-09T17:06:39Z</time>
      </trkpt>
      <trkpt lat="44.59877" lon="2.40682">
        <ele>329</ele>
        <time>2022-12-09T17:06:42Z</time>
      </trkpt>
      <trkpt lat="44.59878" lon="2.40693">
        <ele>329</ele>
        <time>2022-12-09T17:06:44Z</time>
      </trkpt>
      <trkpt lat="44.5988" lon="2.40706">
        <ele>330</ele>
        <time>2022-12-09T17:06:45Z</time>
      </trkpt>
      <trkpt lat="44.5989" lon="2.40727">
        <ele>335</ele>
        <time>2022-12-09T17:06:49Z</time>
      </trkpt>
      <trkpt lat="44.59935" lon="2.40774">
        <ele>356</ele>
        <time>2022-12-09T17:06:59Z</time>
      </trkpt>
      <trkpt lat="44.59939" lon="2.40785">
        <ele>357</ele>
        <time>2022-12-09T17:07:00Z</time>
      </trkpt>
      <trkpt lat="44.5994" lon="2.408">
        <ele>357</ele>
        <time>2022-12-09T17:07:02Z</time>
      </trkpt>
      <trkpt lat="44.59929" lon="2.4083">
        <ele>352</ele>
        <time>2022-12-09T17:07:06Z</time>
      </trkpt>
      <trkpt lat="44.59924" lon="2.40847">
        <ele>352</ele>
        <time>2022-12-09T17:07:09Z</time>
      </trkpt>
      <trkpt lat="44.59921" lon="2.40871">
        <ele>353</ele>
        <time>2022-12-09T17:07:12Z</time>
      </trkpt>
      <trkpt lat="44.59918" lon="2.4094">
        <ele>360</ele>
        <time>2022-12-09T17:07:21Z</time>
      </trkpt>
      <trkpt lat="44.59914" lon="2.4097">
        <ele>363</ele>
        <time>2022-12-09T17:07:24Z</time>
      </trkpt>
      <trkpt lat="44.59881" lon="2.41027">
        <ele>355</ele>
        <time>2022-12-09T17:07:34Z</time>
      </trkpt>
      <trkpt lat="44.59877" lon="2.41035">
        <ele>354</ele>
        <time>2022-12-09T17:07:35Z</time>
      </trkpt>
      <trkpt lat="44.59875" lon="2.41045">
        <ele>354</ele>
        <time>2022-12-09T17:07:36Z</time>
      </trkpt>
      <trkpt lat="44.59875" lon="2.4106">
        <ele>356</ele>
        <time>2022-12-09T17:07:38Z</time>
      </trkpt>
      <trkpt lat="44.59886" lon="2.41091">
        <ele>362</ele>
        <time>2022-12-09T17:07:43Z</time>
      </trkpt>
      <trkpt lat="44.59926" lon="2.41174">
        <ele>371</ele>
        <time>2022-12-09T17:07:55Z</time>
      </trkpt>
      <trkpt lat="44.59941" lon="2.412">
        <ele>375</ele>
        <time>2022-12-09T17:07:59Z</time>
      </trkpt>
      <trkpt lat="44.59963" lon="2.41226">
        <ele>379</ele>
        <time>2022-12-09T17:08:05Z</time>
      </trkpt>
      <trkpt lat="44.59979" lon="2.41254">
        <ele>379</ele>
        <time>2022-12-09T17:08:09Z</time>
      </trkpt>
      <trkpt lat="44.59994" lon="2.41288">
        <ele>382</ele>
        <time>2022-12-09T17:08:14Z</time>
      </trkpt>
      <trkpt lat="44.60002" lon="2.41319">
        <ele>382</ele>
        <time>2022-12-09T17:08:18Z</time>
      </trkpt>
      <trkpt lat="44.60006" lon="2.41327">
        <ele>381</ele>
        <time>2022-12-09T17:08:20Z</time>
      </trkpt>
      <trkpt lat="44.60012" lon="2.41331">
        <ele>382</ele>
        <time>2022-12-09T17:08:21Z</time>
      </trkpt>
      <trkpt lat="44.60046" lon="2.41328">
        <ele>388</ele>
        <time>2022-12-09T17:08:27Z</time>
      </trkpt>
      <trkpt lat="44.60057" lon="2.4133">
        <ele>389</ele>
        <time>2022-12-09T17:08:29Z</time>
      </trkpt>
      <trkpt lat="44.60071" lon="2.4134">
        <ele>391</ele>
        <time>2022-12-09T17:08:32Z</time>
      </trkpt>
      <trkpt lat="44.60073" lon="2.41345">
        <ele>391</ele>
        <time>2022-12-09T17:08:32Z</time>
      </trkpt>
      <trkpt lat="44.60075" lon="2.41362">
        <ele>393</ele>
        <time>2022-12-09T17:08:35Z</time>
      </trkpt>
      <trkpt lat="44.60065" lon="2.41448">
        <ele>403</ele>
        <time>2022-12-09T17:08:46Z</time>
      </trkpt>
      <trkpt lat="44.60059" lon="2.41468">
        <ele>408</ele>
        <time>2022-12-09T17:08:48Z</time>
      </trkpt>
      <trkpt lat="44.60053" lon="2.41472">
        <ele>409</ele>
        <time>2022-12-09T17:08:50Z</time>
      </trkpt>
      <trkpt lat="44.60047" lon="2.4147">
        <ele>410</ele>
        <time>2022-12-09T17:08:51Z</time>
      </trkpt>
      <trkpt lat="44.60037" lon="2.41419">
        <ele>399</ele>
        <time>2022-12-09T17:08:57Z</time>
      </trkpt>
      <trkpt lat="44.60033" lon="2.4141">
        <ele>397</ele>
        <time>2022-12-09T17:08:59Z</time>
      </trkpt>
      <trkpt lat="44.60028" lon="2.41406">
        <ele>396</ele>
        <time>2022-12-09T17:09:00Z</time>
      </trkpt>
      <trkpt lat="44.60022" lon="2.41405">
        <ele>396</ele>
        <time>2022-12-09T17:09:01Z</time>
      </trkpt>
      <trkpt lat="44.59985" lon="2.41406">
        <ele>398</ele>
        <time>2022-12-09T17:09:07Z</time>
      </trkpt>
      <trkpt lat="44.59974" lon="2.41403">
        <ele>398</ele>
        <time>2022-12-09T17:09:09Z</time>
      </trkpt>
      <trkpt lat="44.59964" lon="2.41399">
        <ele>398</ele>
        <time>2022-12-09T17:09:11Z</time>
      </trkpt>
      <trkpt lat="44.5994" lon="2.41379">
        <ele>393</ele>
        <time>2022-12-09T17:09:16Z</time>
      </trkpt>
      <trkpt lat="44.59932" lon="2.41378">
        <ele>393</ele>
        <time>2022-12-09T17:09:18Z</time>
      </trkpt>
      <trkpt lat="44.59872" lon="2.41388">
        <ele>393</ele>
        <time>2022-12-09T17:09:28Z</time>
      </trkpt>
      <trkpt lat="44.59853" lon="2.41404">
        <ele>397</ele>
        <time>2022-12-09T17:09:32Z</time>
      </trkpt>
      <trkpt lat="44.59834" lon="2.41416">
        <ele>400</ele>
        <time>2022-12-09T17:09:36Z</time>
      </trkpt>
      <trkpt lat="44.59781" lon="2.41435">
        <ele>398</ele>
        <time>2022-12-09T17:09:46Z</time>
      </trkpt>
      <trkpt lat="44.59771" lon="2.41442">
        <ele>397</ele>
        <time>2022-12-09T17:09:48Z</time>
      </trkpt>
      <trkpt lat="44.59766" lon="2.4145">
        <ele>397</ele>
        <time>2022-12-09T17:09:49Z</time>
      </trkpt>
      <trkpt lat="44.59763" lon="2.41462">
        <ele>397</ele>
        <time>2022-12-09T17:09:51Z</time>
      </trkpt>
      <trkpt lat="44.59765" lon="2.41495">
        <ele>401</ele>
        <time>2022-12-09T17:09:55Z</time>
      </trkpt>
      <trkpt lat="44.59772" lon="2.41542">
        <ele>406</ele>
        <time>2022-12-09T17:10:01Z</time>
      </trkpt>
      <trkpt lat="44.59775" lon="2.41575">
        <ele>409</ele>
        <time>2022-12-09T17:10:05Z</time>
      </trkpt>
      <trkpt lat="44.59774" lon="2.41602">
        <ele>411</ele>
        <time>2022-12-09T17:10:09Z</time>
      </trkpt>
      <trkpt lat="44.59769" lon="2.41637">
        <ele>413</ele>
        <time>2022-12-09T17:10:13Z</time>
      </trkpt>
      <trkpt lat="44.59756" lon="2.41686">
        <ele>415</ele>
        <time>2022-12-09T17:10:20Z</time>
      </trkpt>
      <trkpt lat="44.59711" lon="2.41795">
        <ele>410</ele>
        <time>2022-12-09T17:10:36Z</time>
      </trkpt>
      <trkpt lat="44.59702" lon="2.41819">
        <ele>409</ele>
        <time>2022-12-09T17:10:39Z</time>
      </trkpt>
      <trkpt lat="44.59699" lon="2.41828">
        <ele>409</ele>
        <time>2022-12-09T17:10:40Z</time>
      </trkpt>
      <trkpt lat="44.59699" lon="2.41851">
        <ele>407</ele>
        <time>2022-12-09T17:10:43Z</time>
      </trkpt>
      <trkpt lat="44.59702" lon="2.41862">
        <ele>407</ele>
        <time>2022-12-09T17:10:45Z</time>
      </trkpt>
      <trkpt lat="44.59708" lon="2.41869">
        <ele>408</ele>
        <time>2022-12-09T17:10:46Z</time>
      </trkpt>
      <trkpt lat="44.59717" lon="2.41872">
        <ele>412</ele>
        <time>2022-12-09T17:10:48Z</time>
      </trkpt>
      <trkpt lat="44.5974" lon="2.41873">
        <ele>422</ele>
        <time>2022-12-09T17:10:52Z</time>
      </trkpt>
      <trkpt lat="44.59751" lon="2.41877">
        <ele>425</ele>
        <time>2022-12-09T17:10:54Z</time>
      </trkpt>
      <trkpt lat="44.59761" lon="2.41885">
        <ele>427</ele>
        <time>2022-12-09T17:10:56Z</time>
      </trkpt>
      <trkpt lat="44.59801" lon="2.41933">
        <ele>432</ele>
        <time>2022-12-09T17:11:05Z</time>
      </trkpt>
      <trkpt lat="44.59856" lon="2.41992">
        <ele>442</ele>
        <time>2022-12-09T17:11:18Z</time>
      </trkpt>
      <trkpt lat="44.5987" lon="2.42013">
        <ele>444</ele>
        <time>2022-12-09T17:11:21Z</time>
      </trkpt>
      <trkpt lat="44.59886" lon="2.42058">
        <ele>444</ele>
        <time>2022-12-09T17:11:28Z</time>
      </trkpt>
      <trkpt lat="44.59897" lon="2.42105">
        <ele>445</ele>
        <time>2022-12-09T17:11:34Z</time>
      </trkpt>
      <trkpt lat="44.59901" lon="2.42131">
        <ele>446</ele>
        <time>2022-12-09T17:11:37Z</time>
      </trkpt>
      <trkpt lat="44.59903" lon="2.42167">
        <ele>445</ele>
        <time>2022-12-09T17:11:42Z</time>
      </trkpt>
      <trkpt lat="44.59898" lon="2.42225">
        <ele>446</ele>
        <time>2022-12-09T17:11:49Z</time>
      </trkpt>
      <trkpt lat="44.59889" lon="2.42274">
        <ele>446</ele>
        <time>2022-12-09T17:11:56Z</time>
      </trkpt>
      <trkpt lat="44.59869" lon="2.42365">
        <ele>445</ele>
        <time>2022-12-09T17:12:08Z</time>
      </trkpt>
      <trkpt lat="44.59863" lon="2.42407">
        <ele>448</ele>
        <time>2022-12-09T17:12:13Z</time>
      </trkpt>
      <trkpt lat="44.59863" lon="2.42432">
        <ele>447</ele>
        <time>2022-12-09T17:12:16Z</time>
      </trkpt>
      <trkpt lat="44.59867" lon="2.42449">
        <ele>446</ele>
        <time>2022-12-09T17:12:19Z</time>
      </trkpt>
      <trkpt lat="44.5988" lon="2.42462">
        <ele>449</ele>
        <time>2022-12-09T17:12:21Z</time>
      </trkpt>
      <trkpt lat="44.59977" lon="2.42518">
        <ele>470</ele>
        <time>2022-12-09T17:12:40Z</time>
      </trkpt>
      <trkpt lat="44.59988" lon="2.42527">
        <ele>472</ele>
        <time>2022-12-09T17:12:42Z</time>
      </trkpt>
      <trkpt lat="44.59997" lon="2.42538">
        <ele>474</ele>
        <time>2022-12-09T17:12:45Z</time>
      </trkpt>
      <trkpt lat="44.60002" lon="2.42547">
        <ele>474</ele>
        <time>2022-12-09T17:12:46Z</time>
      </trkpt>
      <trkpt lat="44.60002" lon="2.4257">
        <ele>471</ele>
        <time>2022-12-09T17:12:49Z</time>
      </trkpt>
      <trkpt lat="44.59993" lon="2.42609">
        <ele>469</ele>
        <time>2022-12-09T17:12:54Z</time>
      </trkpt>
      <trkpt lat="44.59973" lon="2.42673">
        <ele>467</ele>
        <time>2022-12-09T17:13:03Z</time>
      </trkpt>
      <trkpt lat="44.59948" lon="2.42729">
        <ele>466</ele>
        <time>2022-12-09T17:13:11Z</time>
      </trkpt>
      <trkpt lat="44.5994" lon="2.42754">
        <ele>466</ele>
        <time>2022-12-09T17:13:15Z</time>
      </trkpt>
      <trkpt lat="44.59937" lon="2.42776">
        <ele>463</ele>
        <time>2022-12-09T17:13:18Z</time>
      </trkpt>
      <trkpt lat="44.59938" lon="2.4279">
        <ele>462</ele>
        <time>2022-12-09T17:13:19Z</time>
      </trkpt>
      <trkpt lat="44.59946" lon="2.42806">
        <ele>462</ele>
        <time>2022-12-09T17:13:22Z</time>
      </trkpt>
      <trkpt lat="44.59955" lon="2.42813">
        <ele>464</ele>
        <time>2022-12-09T17:13:24Z</time>
      </trkpt>
      <trkpt lat="44.59982" lon="2.42823">
        <ele>470</ele>
        <time>2022-12-09T17:13:29Z</time>
      </trkpt>
      <trkpt lat="44.60018" lon="2.42832">
        <ele>477</ele>
        <time>2022-12-09T17:13:35Z</time>
      </trkpt>
      <trkpt lat="44.60034" lon="2.42833">
        <ele>480</ele>
        <time>2022-12-09T17:13:38Z</time>
      </trkpt>
      <trkpt lat="44.60051" lon="2.42827">
        <ele>484</ele>
        <time>2022-12-09T17:13:41Z</time>
      </trkpt>
      <trkpt lat="44.60064" lon="2.42815">
        <ele>489</ele>
        <time>2022-12-09T17:13:44Z</time>
      </trkpt>
      <trkpt lat="44.60088" lon="2.42787">
        <ele>498</ele>
        <time>2022-12-09T17:13:49Z</time>
      </trkpt>
      <trkpt lat="44.60097" lon="2.42782">
        <ele>500</ele>
        <time>2022-12-09T17:13:51Z</time>
      </trkpt>
      <trkpt lat="44.60105" lon="2.42785">
        <ele>501</ele>
        <time>2022-12-09T17:13:53Z</time>
      </trkpt>
      <trkpt lat="44.60109" lon="2.42792">
        <ele>500</ele>
        <time>2022-12-09T17:13:54Z</time>
      </trkpt>
      <trkpt lat="44.60117" lon="2.42821">
        <ele>498</ele>
        <time>2022-12-09T17:13:58Z</time>
      </trkpt>
      <trkpt lat="44.60122" lon="2.42862">
        <ele>495</ele>
        <time>2022-12-09T17:14:03Z</time>
      </trkpt>
      <trkpt lat="44.60132" lon="2.42978">
        <ele>492</ele>
        <time>2022-12-09T17:14:18Z</time>
      </trkpt>
      <trkpt lat="44.60139" lon="2.43031">
        <ele>495</ele>
        <time>2022-12-09T17:14:25Z</time>
      </trkpt>
      <trkpt lat="44.60142" lon="2.43068">
        <ele>496</ele>
        <time>2022-12-09T17:14:29Z</time>
      </trkpt>
      <trkpt lat="44.6014" lon="2.43094">
        <ele>497</ele>
        <time>2022-12-09T17:14:33Z</time>
      </trkpt>
      <trkpt lat="44.60135" lon="2.4312">
        <ele>497</ele>
        <time>2022-12-09T17:14:36Z</time>
      </trkpt>
      <trkpt lat="44.60109" lon="2.43179">
        <ele>496</ele>
        <time>2022-12-09T17:14:45Z</time>
      </trkpt>
      <trkpt lat="44.60097" lon="2.43211">
        <ele>495</ele>
        <time>2022-12-09T17:14:49Z</time>
      </trkpt>
      <trkpt lat="44.60095" lon="2.43223">
        <ele>495</ele>
        <time>2022-12-09T17:14:51Z</time>
      </trkpt>
      <trkpt lat="44.60096" lon="2.4323">
        <ele>496</ele>
        <time>2022-12-09T17:14:52Z</time>
      </trkpt>
      <trkpt lat="44.60099" lon="2.4324">
        <ele>496</ele>
        <time>2022-12-09T17:14:53Z</time>
      </trkpt>
      <trkpt lat="44.60105" lon="2.43247">
        <ele>496</ele>
        <time>2022-12-09T17:14:55Z</time>
      </trkpt>
      <trkpt lat="44.60112" lon="2.43248">
        <ele>497</ele>
        <time>2022-12-09T17:14:56Z</time>
      </trkpt>
      <trkpt lat="44.6012" lon="2.43244">
        <ele>497</ele>
        <time>2022-12-09T17:14:57Z</time>
      </trkpt>
      <trkpt lat="44.6016" lon="2.43206">
        <ele>502</ele>
        <time>2022-12-09T17:15:06Z</time>
      </trkpt>
      <trkpt lat="44.60215" lon="2.43146">
        <ele>510</ele>
        <time>2022-12-09T17:15:18Z</time>
      </trkpt>
      <trkpt lat="44.6026" lon="2.43101">
        <ele>517</ele>
        <time>2022-12-09T17:15:28Z</time>
      </trkpt>
      <trkpt lat="44.60271" lon="2.43086">
        <ele>519</ele>
        <time>2022-12-09T17:15:31Z</time>
      </trkpt>
      <trkpt lat="44.60279" lon="2.43071">
        <ele>520</ele>
        <time>2022-12-09T17:15:33Z</time>
      </trkpt>
      <trkpt lat="44.60283" lon="2.43038">
        <ele>525</ele>
        <time>2022-12-09T17:15:38Z</time>
      </trkpt>
      <trkpt lat="44.6029" lon="2.43021">
        <ele>527</ele>
        <time>2022-12-09T17:15:40Z</time>
      </trkpt>
      <trkpt lat="44.60298" lon="2.4301">
        <ele>529</ele>
        <time>2022-12-09T17:15:42Z</time>
      </trkpt>
      <trkpt lat="44.6031" lon="2.43">
        <ele>531</ele>
        <time>2022-12-09T17:15:45Z</time>
      </trkpt>
      <trkpt lat="44.60327" lon="2.42994">
        <ele>532</ele>
        <time>2022-12-09T17:15:48Z</time>
      </trkpt>
      <trkpt lat="44.60337" lon="2.42995">
        <ele>532</ele>
        <time>2022-12-09T17:15:49Z</time>
      </trkpt>
      <trkpt lat="44.60369" lon="2.43002">
        <ele>529</ele>
        <time>2022-12-09T17:15:55Z</time>
      </trkpt>
      <trkpt lat="44.60383" lon="2.43001">
        <ele>529</ele>
        <time>2022-12-09T17:15:58Z</time>
      </trkpt>
      <trkpt lat="44.60392" lon="2.42992">
        <ele>530</ele>
        <time>2022-12-09T17:16:00Z</time>
      </trkpt>
      <trkpt lat="44.60396" lon="2.42979">
        <ele>532</ele>
        <time>2022-12-09T17:16:01Z</time>
      </trkpt>
      <trkpt lat="44.60398" lon="2.42965">
        <ele>535</ele>
        <time>2022-12-09T17:16:03Z</time>
      </trkpt>
      <trkpt lat="44.60402" lon="2.42955">
        <ele>536</ele>
        <time>2022-12-09T17:16:05Z</time>
      </trkpt>
      <trkpt lat="44.60409" lon="2.4295">
        <ele>537</ele>
        <time>2022-12-09T17:16:06Z</time>
      </trkpt>
      <trkpt lat="44.60419" lon="2.42945">
        <ele>537</ele>
        <time>2022-12-09T17:16:08Z</time>
      </trkpt>
      <trkpt lat="44.60449" lon="2.42936">
        <ele>541</ele>
        <time>2022-12-09T17:16:14Z</time>
      </trkpt>
      <trkpt lat="44.60461" lon="2.42937">
        <ele>542</ele>
        <time>2022-12-09T17:16:16Z</time>
      </trkpt>
      <trkpt lat="44.6048" lon="2.42953">
        <ele>541</ele>
        <time>2022-12-09T17:16:20Z</time>
      </trkpt>
      <trkpt lat="44.60503" lon="2.42967">
        <ele>541</ele>
        <time>2022-12-09T17:16:24Z</time>
      </trkpt>
      <trkpt lat="44.60511" lon="2.42974">
        <ele>541</ele>
        <time>2022-12-09T17:16:26Z</time>
      </trkpt>
      <trkpt lat="44.60524" lon="2.42994">
        <ele>540</ele>
        <time>2022-12-09T17:16:29Z</time>
      </trkpt>
      <trkpt lat="44.60544" lon="2.43042">
        <ele>535</ele>
        <time>2022-12-09T17:16:36Z</time>
      </trkpt>
      <trkpt lat="44.60553" lon="2.43055">
        <ele>535</ele>
        <time>2022-12-09T17:16:38Z</time>
      </trkpt>
      <trkpt lat="44.60566" lon="2.43062">
        <ele>536</ele>
        <time>2022-12-09T17:16:41Z</time>
      </trkpt>
      <trkpt lat="44.60583" lon="2.43063">
        <ele>540</ele>
        <time>2022-12-09T17:16:44Z</time>
      </trkpt>
      <trkpt lat="44.60605" lon="2.43061">
        <ele>540</ele>
        <time>2022-12-09T17:16:48Z</time>
      </trkpt>
      <trkpt lat="44.60619" lon="2.43055">
        <ele>541</ele>
        <time>2022-12-09T17:16:51Z</time>
      </trkpt>
      <trkpt lat="44.60631" lon="2.43048">
        <ele>541</ele>
        <time>2022-12-09T17:16:53Z</time>
      </trkpt>
      <trkpt lat="44.60643" lon="2.43031">
        <ele>543</ele>
        <time>2022-12-09T17:16:56Z</time>
      </trkpt>
      <trkpt lat="44.60649" lon="2.43004">
        <ele>547</ele>
        <time>2022-12-09T17:16:59Z</time>
      </trkpt>
      <trkpt lat="44.60651" lon="2.42936">
        <ele>552</ele>
        <time>2022-12-09T17:17:08Z</time>
      </trkpt>
      <trkpt lat="44.60653" lon="2.42913">
        <ele>554</ele>
        <time>2022-12-09T17:17:11Z</time>
      </trkpt>
      <trkpt lat="44.60658" lon="2.42895">
        <ele>555</ele>
        <time>2022-12-09T17:17:13Z</time>
      </trkpt>
      <trkpt lat="44.60666" lon="2.42887">
        <ele>555</ele>
        <time>2022-12-09T17:17:15Z</time>
      </trkpt>
      <trkpt lat="44.60677" lon="2.42883">
        <ele>556</ele>
        <time>2022-12-09T17:17:17Z</time>
      </trkpt>
      <trkpt lat="44.60706" lon="2.4289">
        <ele>555</ele>
        <time>2022-12-09T17:17:22Z</time>
      </trkpt>
      <trkpt lat="44.60725" lon="2.429">
        <ele>555</ele>
        <time>2022-12-09T17:17:26Z</time>
      </trkpt>
      <trkpt lat="44.60748" lon="2.42909">
        <ele>554</ele>
        <time>2022-12-09T17:17:30Z</time>
      </trkpt>
      <trkpt lat="44.6076" lon="2.4291">
        <ele>554</ele>
        <time>2022-12-09T17:17:32Z</time>
      </trkpt>
      <trkpt lat="44.60793" lon="2.42902">
        <ele>556</ele>
        <time>2022-12-09T17:17:38Z</time>
      </trkpt>
      <trkpt lat="44.60805" lon="2.42902">
        <ele>557</ele>
        <time>2022-12-09T17:17:41Z</time>
      </trkpt>
      <trkpt lat="44.60827" lon="2.42905">
        <ele>557</ele>
        <time>2022-12-09T17:17:44Z</time>
      </trkpt>
      <trkpt lat="44.60837" lon="2.42902">
        <ele>558</ele>
        <time>2022-12-09T17:17:46Z</time>
      </trkpt>
      <trkpt lat="44.60845" lon="2.42896">
        <ele>558</ele>
        <time>2022-12-09T17:17:48Z</time>
      </trkpt>
      <trkpt lat="44.60855" lon="2.42882">
        <ele>559</ele>
        <time>2022-12-09T17:17:50Z</time>
      </trkpt>
      <trkpt lat="44.60877" lon="2.42844">
        <ele>564</ele>
        <time>2022-12-09T17:17:57Z</time>
      </trkpt>
      <trkpt lat="44.60891" lon="2.42827">
        <ele>565</ele>
        <time>2022-12-09T17:18:00Z</time>
      </trkpt>
      <trkpt lat="44.60915" lon="2.42809">
        <ele>566</ele>
        <time>2022-12-09T17:18:05Z</time>
      </trkpt>
      <trkpt lat="44.60933" lon="2.42792">
        <ele>569</ele>
        <time>2022-12-09T17:18:09Z</time>
      </trkpt>
      <trkpt lat="44.60939" lon="2.42789">
        <ele>569</ele>
        <time>2022-12-09T17:18:10Z</time>
      </trkpt>
      <trkpt lat="44.60952" lon="2.42789">
        <ele>571</ele>
        <time>2022-12-09T17:18:12Z</time>
      </trkpt>
      <trkpt lat="44.60959" lon="2.42793">
        <ele>571</ele>
        <time>2022-12-09T17:18:13Z</time>
      </trkpt>
      <trkpt lat="44.60967" lon="2.42804">
        <ele>571</ele>
        <time>2022-12-09T17:18:15Z</time>
      </trkpt>
      <trkpt lat="44.60973" lon="2.42816">
        <ele>571</ele>
        <time>2022-12-09T17:18:17Z</time>
      </trkpt>
      <trkpt lat="44.60989" lon="2.42882">
        <ele>566</ele>
        <time>2022-12-09T17:18:26Z</time>
      </trkpt>
      <trkpt lat="44.60998" lon="2.42899">
        <ele>565</ele>
        <time>2022-12-09T17:18:29Z</time>
      </trkpt>
      <trkpt lat="44.61003" lon="2.42905">
        <ele>565</ele>
        <time>2022-12-09T17:18:30Z</time>
      </trkpt>
      <trkpt lat="44.61081" lon="2.42947">
        <ele>568</ele>
        <time>2022-12-09T17:18:45Z</time>
      </trkpt>
      <trkpt lat="44.61105" lon="2.42958">
        <ele>566</ele>
        <time>2022-12-09T17:18:49Z</time>
      </trkpt>
      <trkpt lat="44.61155" lon="2.42986">
        <ele>566</ele>
        <time>2022-12-09T17:18:59Z</time>
      </trkpt>
      <trkpt lat="44.61168" lon="2.43007">
        <ele>566</ele>
        <time>2022-12-09T17:19:02Z</time>
      </trkpt>
      <trkpt lat="44.61172" lon="2.43021">
        <ele>566</ele>
        <time>2022-12-09T17:19:04Z</time>
      </trkpt>
      <trkpt lat="44.61173" lon="2.43047">
        <ele>567</ele>
        <time>2022-12-09T17:19:08Z</time>
      </trkpt>
      <trkpt lat="44.61164" lon="2.43075">
        <ele>568</ele>
        <time>2022-12-09T17:19:12Z</time>
      </trkpt>
      <trkpt lat="44.6115" lon="2.43097">
        <ele>567</ele>
        <time>2022-12-09T17:19:15Z</time>
      </trkpt>
      <trkpt lat="44.61091" lon="2.43171">
        <ele>568</ele>
        <time>2022-12-09T17:19:29Z</time>
      </trkpt>
      <trkpt lat="44.61078" lon="2.43199">
        <ele>568</ele>
        <time>2022-12-09T17:19:34Z</time>
      </trkpt>
      <trkpt lat="44.61072" lon="2.43216">
        <ele>567</ele>
        <time>2022-12-09T17:19:36Z</time>
      </trkpt>
      <trkpt lat="44.61063" lon="2.43258">
        <ele>566</ele>
        <time>2022-12-09T17:19:42Z</time>
      </trkpt>
      <trkpt lat="44.61061" lon="2.43308">
        <ele>566</ele>
        <time>2022-12-09T17:19:48Z</time>
      </trkpt>
      <trkpt lat="44.61065" lon="2.43346">
        <ele>566</ele>
        <time>2022-12-09T17:19:53Z</time>
      </trkpt>
      <trkpt lat="44.61071" lon="2.43363">
        <ele>567</ele>
        <time>2022-12-09T17:19:55Z</time>
      </trkpt>
      <trkpt lat="44.61093" lon="2.43421">
        <ele>568</ele>
        <time>2022-12-09T17:20:03Z</time>
      </trkpt>
      <trkpt lat="44.61101" lon="2.43456">
        <ele>569</ele>
        <time>2022-12-09T17:20:08Z</time>
      </trkpt>
      <trkpt lat="44.61107" lon="2.43536">
        <ele>573</ele>
        <time>2022-12-09T17:20:18Z</time>
      </trkpt>
      <trkpt lat="44.61106" lon="2.43596">
        <ele>577</ele>
        <time>2022-12-09T17:20:26Z</time>
      </trkpt>
      <trkpt lat="44.61093" lon="2.4364">
        <ele>579</ele>
        <time>2022-12-09T17:20:32Z</time>
      </trkpt>
      <trkpt lat="44.61087" lon="2.43653">
        <ele>579</ele>
        <time>2022-12-09T17:20:34Z</time>
      </trkpt>
      <trkpt lat="44.61071" lon="2.43674">
        <ele>579</ele>
        <time>2022-12-09T17:20:38Z</time>
      </trkpt>
      <trkpt lat="44.61054" lon="2.43685">
        <ele>578</ele>
        <time>2022-12-09T17:20:41Z</time>
      </trkpt>
      <trkpt lat="44.61017" lon="2.437">
        <ele>577</ele>
        <time>2022-12-09T17:20:48Z</time>
      </trkpt>
      <trkpt lat="44.61002" lon="2.43714">
        <ele>577</ele>
        <time>2022-12-09T17:20:51Z</time>
      </trkpt>
      <trkpt lat="44.60991" lon="2.43732">
        <ele>576</ele>
        <time>2022-12-09T17:20:54Z</time>
      </trkpt>
      <trkpt lat="44.60989" lon="2.43744">
        <ele>577</ele>
        <time>2022-12-09T17:20:56Z</time>
      </trkpt>
      <trkpt lat="44.60988" lon="2.43775">
        <ele>579</ele>
        <time>2022-12-09T17:21:00Z</time>
      </trkpt>
      <trkpt lat="44.60984" lon="2.43803">
        <ele>581</ele>
        <time>2022-12-09T17:21:03Z</time>
      </trkpt>
      <trkpt lat="44.60979" lon="2.43815">
        <ele>582</ele>
        <time>2022-12-09T17:21:05Z</time>
      </trkpt>
      <trkpt lat="44.60969" lon="2.4383">
        <ele>582</ele>
        <time>2022-12-09T17:21:08Z</time>
      </trkpt>
      <trkpt lat="44.60954" lon="2.43851">
        <ele>580</ele>
        <time>2022-12-09T17:21:11Z</time>
      </trkpt>
      <trkpt lat="44.60949" lon="2.4386">
        <ele>580</ele>
        <time>2022-12-09T17:21:13Z</time>
      </trkpt>
      <trkpt lat="44.60948" lon="2.43868">
        <ele>580</ele>
        <time>2022-12-09T17:21:14Z</time>
      </trkpt>
      <trkpt lat="44.60949" lon="2.43889">
        <ele>581</ele>
        <time>2022-12-09T17:21:17Z</time>
      </trkpt>
      <trkpt lat="44.60957" lon="2.43921">
        <ele>583</ele>
        <time>2022-12-09T17:21:21Z</time>
      </trkpt>
      <trkpt lat="44.6096" lon="2.43951">
        <ele>584</ele>
        <time>2022-12-09T17:21:25Z</time>
      </trkpt>
      <trkpt lat="44.60955" lon="2.43994">
        <ele>585</ele>
        <time>2022-12-09T17:21:30Z</time>
      </trkpt>
      <trkpt lat="44.60943" lon="2.44027">
        <ele>584</ele>
        <time>2022-12-09T17:21:35Z</time>
      </trkpt>
      <trkpt lat="44.60936" lon="2.44059">
        <ele>583</ele>
        <time>2022-12-09T17:21:39Z</time>
      </trkpt>
      <trkpt lat="44.60934" lon="2.44073">
        <ele>583</ele>
        <time>2022-12-09T17:21:41Z</time>
      </trkpt>
      <trkpt lat="44.60934" lon="2.44094">
        <ele>583</ele>
        <time>2022-12-09T17:21:44Z</time>
      </trkpt>
      <trkpt lat="44.60937" lon="2.44108">
        <ele>583</ele>
        <time>2022-12-09T17:21:45Z</time>
      </trkpt>
      <trkpt lat="44.60962" lon="2.4416">
        <ele>585</ele>
        <time>2022-12-09T17:21:53Z</time>
      </trkpt>
      <trkpt lat="44.60966" lon="2.44175">
        <ele>586</ele>
        <time>2022-12-09T17:21:55Z</time>
      </trkpt>
      <trkpt lat="44.60966" lon="2.44187">
        <ele>586</ele>
        <time>2022-12-09T17:21:57Z</time>
      </trkpt>
      <trkpt lat="44.60964" lon="2.44207">
        <ele>587</ele>
        <time>2022-12-09T17:22:00Z</time>
      </trkpt>
      <trkpt lat="44.60962" lon="2.44216">
        <ele>587</ele>
        <time>2022-12-09T17:22:01Z</time>
      </trkpt>
      <trkpt lat="44.60925" lon="2.44307">
        <ele>591</ele>
        <time>2022-12-09T17:22:14Z</time>
      </trkpt>
      <trkpt lat="44.6092" lon="2.44329">
        <ele>593</ele>
        <time>2022-12-09T17:22:17Z</time>
      </trkpt>
      <trkpt lat="44.60913" lon="2.44378">
        <ele>593</ele>
        <time>2022-12-09T17:22:23Z</time>
      </trkpt>
      <trkpt lat="44.60912" lon="2.44402">
        <ele>593</ele>
        <time>2022-12-09T17:22:26Z</time>
      </trkpt>
      <trkpt lat="44.60914" lon="2.44414">
        <ele>593</ele>
        <time>2022-12-09T17:22:28Z</time>
      </trkpt>
      <trkpt lat="44.60917" lon="2.44422">
        <ele>594</ele>
        <time>2022-12-09T17:22:29Z</time>
      </trkpt>
      <trkpt lat="44.60927" lon="2.44434">
        <ele>594</ele>
        <time>2022-12-09T17:22:31Z</time>
      </trkpt>
      <trkpt lat="44.60946" lon="2.44449">
        <ele>596</ele>
        <time>2022-12-09T17:22:35Z</time>
      </trkpt>
      <trkpt lat="44.60956" lon="2.4446">
        <ele>596</ele>
        <time>2022-12-09T17:22:37Z</time>
      </trkpt>
      <trkpt lat="44.60962" lon="2.44475">
        <ele>597</ele>
        <time>2022-12-09T17:22:40Z</time>
      </trkpt>
      <trkpt lat="44.60963" lon="2.44485">
        <ele>597</ele>
        <time>2022-12-09T17:22:41Z</time>
      </trkpt>
      <trkpt lat="44.60962" lon="2.44505">
        <ele>596</ele>
        <time>2022-12-09T17:22:43Z</time>
      </trkpt>
      <trkpt lat="44.60939" lon="2.44589">
        <ele>597</ele>
        <time>2022-12-09T17:22:55Z</time>
      </trkpt>
      <trkpt lat="44.60935" lon="2.44628">
        <ele>599</ele>
        <time>2022-12-09T17:23:00Z</time>
      </trkpt>
      <trkpt lat="44.60931" lon="2.44647">
        <ele>600</ele>
        <time>2022-12-09T17:23:02Z</time>
      </trkpt>
      <trkpt lat="44.60922" lon="2.44667">
        <ele>601</ele>
        <time>2022-12-09T17:23:05Z</time>
      </trkpt>
      <trkpt lat="44.60896" lon="2.44718">
        <ele>602</ele>
        <time>2022-12-09T17:23:13Z</time>
      </trkpt>
      <trkpt lat="44.60874" lon="2.44768">
        <ele>603</ele>
        <time>2022-12-09T17:23:21Z</time>
      </trkpt>
      <trkpt lat="44.60864" lon="2.44801">
        <ele>603</ele>
        <time>2022-12-09T17:23:25Z</time>
      </trkpt>
      <trkpt lat="44.60861" lon="2.44824">
        <ele>603</ele>
        <time>2022-12-09T17:23:28Z</time>
      </trkpt>
      <trkpt lat="44.60866" lon="2.44842">
        <ele>604</ele>
        <time>2022-12-09T17:23:31Z</time>
      </trkpt>
      <trkpt lat="44.60873" lon="2.44856">
        <ele>604</ele>
        <time>2022-12-09T17:23:33Z</time>
      </trkpt>
      <trkpt lat="44.60884" lon="2.44868">
        <ele>605</ele>
        <time>2022-12-09T17:23:35Z</time>
      </trkpt>
      <trkpt lat="44.60891" lon="2.4488">
        <ele>605</ele>
        <time>2022-12-09T17:23:37Z</time>
      </trkpt>
      <trkpt lat="44.609" lon="2.449">
        <ele>606</ele>
        <time>2022-12-09T17:23:40Z</time>
      </trkpt>
      <trkpt lat="44.6091" lon="2.44929">
        <ele>605</ele>
        <time>2022-12-09T17:23:44Z</time>
      </trkpt>
      <trkpt lat="44.60925" lon="2.44958">
        <ele>604</ele>
        <time>2022-12-09T17:23:49Z</time>
      </trkpt>
      <trkpt lat="44.6095" lon="2.44981">
        <ele>603</ele>
        <time>2022-12-09T17:23:54Z</time>
      </trkpt>
      <trkpt lat="44.60967" lon="2.44999">
        <ele>603</ele>
        <time>2022-12-09T17:23:58Z</time>
      </trkpt>
      <trkpt lat="44.60974" lon="2.45018">
        <ele>603</ele>
        <time>2022-12-09T17:24:01Z</time>
      </trkpt>
      <trkpt lat="44.60979" lon="2.45045">
        <ele>602</ele>
        <time>2022-12-09T17:24:04Z</time>
      </trkpt>
      <trkpt lat="44.60979" lon="2.45081">
        <ele>601</ele>
        <time>2022-12-09T17:24:09Z</time>
      </trkpt>
      <trkpt lat="44.60975" lon="2.45114">
        <ele>600</ele>
        <time>2022-12-09T17:24:13Z</time>
      </trkpt>
      <trkpt lat="44.60961" lon="2.45161">
        <ele>598</ele>
        <time>2022-12-09T17:24:20Z</time>
      </trkpt>
      <trkpt lat="44.60959" lon="2.45173">
        <ele>597</ele>
        <time>2022-12-09T17:24:21Z</time>
      </trkpt>
      <trkpt lat="44.60959" lon="2.4519">
        <ele>597</ele>
        <time>2022-12-09T17:24:23Z</time>
      </trkpt>
      <trkpt lat="44.60959" lon="2.45202">
        <ele>597</ele>
        <time>2022-12-09T17:24:25Z</time>
      </trkpt>
      <trkpt lat="44.60966" lon="2.45222">
        <ele>598</ele>
        <time>2022-12-09T17:24:28Z</time>
      </trkpt>
      <trkpt lat="44.60971" lon="2.45231">
        <ele>598</ele>
        <time>2022-12-09T17:24:29Z</time>
      </trkpt>
      <trkpt lat="44.60995" lon="2.45263">
        <ele>600</ele>
        <time>2022-12-09T17:24:35Z</time>
      </trkpt>
      <trkpt lat="44.61001" lon="2.45274">
        <ele>600</ele>
        <time>2022-12-09T17:24:37Z</time>
      </trkpt>
      <trkpt lat="44.61006" lon="2.45289">
        <ele>599</ele>
        <time>2022-12-09T17:24:39Z</time>
      </trkpt>
      <trkpt lat="44.61007" lon="2.45317">
        <ele>598</ele>
        <time>2022-12-09T17:24:42Z</time>
      </trkpt>
      <trkpt lat="44.60994" lon="2.45408">
        <ele>595</ele>
        <time>2022-12-09T17:24:54Z</time>
      </trkpt>
      <trkpt lat="44.60994" lon="2.45428">
        <ele>594</ele>
        <time>2022-12-09T17:24:57Z</time>
      </trkpt>
      <trkpt lat="44.60997" lon="2.45445">
        <ele>594</ele>
        <time>2022-12-09T17:24:59Z</time>
      </trkpt>
      <trkpt lat="44.61008" lon="2.45463">
        <ele>594</ele>
        <time>2022-12-09T17:25:02Z</time>
      </trkpt>
      <trkpt lat="44.61037" lon="2.45488">
        <ele>596</ele>
        <time>2022-12-09T17:25:08Z</time>
      </trkpt>
      <trkpt lat="44.61049" lon="2.45499">
        <ele>596</ele>
        <time>2022-12-09T17:25:10Z</time>
      </trkpt>
      <trkpt lat="44.61055" lon="2.45508">
        <ele>597</ele>
        <time>2022-12-09T17:25:12Z</time>
      </trkpt>
      <trkpt lat="44.61062" lon="2.45528">
        <ele>598</ele>
        <time>2022-12-09T17:25:15Z</time>
      </trkpt>
      <trkpt lat="44.61065" lon="2.45542">
        <ele>598</ele>
        <time>2022-12-09T17:25:17Z</time>
      </trkpt>
      <trkpt lat="44.61064" lon="2.45559">
        <ele>598</ele>
        <time>2022-12-09T17:25:19Z</time>
      </trkpt>
      <trkpt lat="44.61046" lon="2.45646">
        <ele>603</ele>
        <time>2022-12-09T17:25:30Z</time>
      </trkpt>
      <trkpt lat="44.6104" lon="2.45666">
        <ele>605</ele>
        <time>2022-12-09T17:25:33Z</time>
      </trkpt>
      <trkpt lat="44.61031" lon="2.4568">
        <ele>605</ele>
        <time>2022-12-09T17:25:35Z</time>
      </trkpt>
      <trkpt lat="44.61025" lon="2.45683">
        <ele>605</ele>
        <time>2022-12-09T17:25:37Z</time>
      </trkpt>
      <trkpt lat="44.61019" lon="2.45683">
        <ele>605</ele>
        <time>2022-12-09T17:25:38Z</time>
      </trkpt>
      <trkpt lat="44.61004" lon="2.45673">
        <ele>604</ele>
        <time>2022-12-09T17:25:41Z</time>
      </trkpt>
      <trkpt lat="44.60983" lon="2.45654">
        <ele>602</ele>
        <time>2022-12-09T17:25:45Z</time>
      </trkpt>
      <trkpt lat="44.60967" lon="2.45648">
        <ele>601</ele>
        <time>2022-12-09T17:25:48Z</time>
      </trkpt>
      <trkpt lat="44.60953" lon="2.45652">
        <ele>602</ele>
        <time>2022-12-09T17:25:51Z</time>
      </trkpt>
      <trkpt lat="44.60946" lon="2.45657">
        <ele>602</ele>
        <time>2022-12-09T17:25:52Z</time>
      </trkpt>
      <trkpt lat="44.60939" lon="2.45662">
        <ele>603</ele>
        <time>2022-12-09T17:25:53Z</time>
      </trkpt>
      <trkpt lat="44.60925" lon="2.45679">
        <ele>604</ele>
        <time>2022-12-09T17:25:57Z</time>
      </trkpt>
      <trkpt lat="44.6092" lon="2.45687">
        <ele>604</ele>
        <time>2022-12-09T17:25:58Z</time>
      </trkpt>
      <trkpt lat="44.60912" lon="2.4571">
        <ele>605</ele>
        <time>2022-12-09T17:26:01Z</time>
      </trkpt>
      <trkpt lat="44.60899" lon="2.45776">
        <ele>609</ele>
        <time>2022-12-09T17:26:10Z</time>
      </trkpt>
      <trkpt lat="44.60877" lon="2.45901">
        <ele>616</ele>
        <time>2022-12-09T17:26:26Z</time>
      </trkpt>
      <trkpt lat="44.6087" lon="2.4593">
        <ele>617</ele>
        <time>2022-12-09T17:26:30Z</time>
      </trkpt>
      <trkpt lat="44.60862" lon="2.4595">
        <ele>617</ele>
        <time>2022-12-09T17:26:33Z</time>
      </trkpt>
      <trkpt lat="44.60843" lon="2.45977">
        <ele>618</ele>
        <time>2022-12-09T17:26:38Z</time>
      </trkpt>
      <trkpt lat="44.60833" lon="2.45984">
        <ele>618</ele>
        <time>2022-12-09T17:26:40Z</time>
      </trkpt>
      <trkpt lat="44.60769" lon="2.46012">
        <ele>620</ele>
        <time>2022-12-09T17:26:52Z</time>
      </trkpt>
      <trkpt lat="44.6076" lon="2.46018">
        <ele>620</ele>
        <time>2022-12-09T17:26:54Z</time>
      </trkpt>
      <trkpt lat="44.60751" lon="2.46028">
        <ele>620</ele>
        <time>2022-12-09T17:26:56Z</time>
      </trkpt>
      <trkpt lat="44.6074" lon="2.46042">
        <ele>621</ele>
        <time>2022-12-09T17:26:58Z</time>
      </trkpt>
      <trkpt lat="44.60734" lon="2.46054">
        <ele>622</ele>
        <time>2022-12-09T17:27:00Z</time>
      </trkpt>
      <trkpt lat="44.60719" lon="2.46089">
        <ele>624</ele>
        <time>2022-12-09T17:27:05Z</time>
      </trkpt>
      <trkpt lat="44.60704" lon="2.46126">
        <ele>624</ele>
        <time>2022-12-09T17:27:11Z</time>
      </trkpt>
      <trkpt lat="44.60702" lon="2.46134">
        <ele>624</ele>
        <time>2022-12-09T17:27:12Z</time>
      </trkpt>
      <trkpt lat="44.60702" lon="2.46139">
        <ele>624</ele>
        <time>2022-12-09T17:27:12Z</time>
      </trkpt>
      <trkpt lat="44.60698" lon="2.46138">
        <ele>624</ele>
        <time>2022-12-09T17:27:13Z</time>
      </trkpt>
      <trkpt lat="44.60698" lon="2.4613">
        <ele>624</ele>
        <time>2022-12-09T17:27:14Z</time>
      </trkpt>
      <trkpt lat="44.60696" lon="2.46125">
        <ele>624</ele>
        <time>2022-12-09T17:27:15Z</time>
      </trkpt>
      <trkpt lat="44.60689" lon="2.46117">
        <ele>624</ele>
        <time>2022-12-09T17:27:16Z</time>
      </trkpt>
      <trkpt lat="44.60696" lon="2.46125">
        <ele>624</ele>
        <time>2022-12-09T17:27:18Z</time>
      </trkpt>
      <trkpt lat="44.60698" lon="2.4613">
        <ele>624</ele>
        <time>2022-12-09T17:27:19Z</time>
      </trkpt>
      <trkpt lat="44.60698" lon="2.46138">
        <ele>624</ele>
        <time>2022-12-09T17:27:20Z</time>
      </trkpt>
      <trkpt lat="44.60702" lon="2.46139">
        <ele>624</ele>
        <time>2022-12-09T17:27:20Z</time>
      </trkpt>
      <trkpt lat="44.60697" lon="2.46174">
        <ele>623</ele>
        <time>2022-12-09T17:27:25Z</time>
      </trkpt>
      <trkpt lat="44.60699" lon="2.46197">
        <ele>623</ele>
        <time>2022-12-09T17:27:28Z</time>
      </trkpt>
      <trkpt lat="44.607" lon="2.46208">
        <ele>623</ele>
        <time>2022-12-09T17:27:29Z</time>
      </trkpt>
      <trkpt lat="44.6075" lon="2.46446">
        <ele>614</ele>
        <time>2022-12-09T17:28:01Z</time>
      </trkpt>
      <trkpt lat="44.6076" lon="2.46483">
        <ele>613</ele>
        <time>2022-12-09T17:28:06Z</time>
      </trkpt>
      <trkpt lat="44.60776" lon="2.46525">
        <ele>613</ele>
        <time>2022-12-09T17:28:12Z</time>
      </trkpt>
      <trkpt lat="44.60779" lon="2.46537">
        <ele>613</ele>
        <time>2022-12-09T17:28:13Z</time>
      </trkpt>
      <trkpt lat="44.60779" lon="2.46552">
        <ele>613</ele>
        <time>2022-12-09T17:28:15Z</time>
      </trkpt>
      <trkpt lat="44.60778" lon="2.46577">
        <ele>613</ele>
        <time>2022-12-09T17:28:18Z</time>
      </trkpt>
      <trkpt lat="44.6077" lon="2.46596">
        <ele>613</ele>
        <time>2022-12-09T17:28:21Z</time>
      </trkpt>
      <trkpt lat="44.60715" lon="2.46674">
        <ele>609</ele>
        <time>2022-12-09T17:28:35Z</time>
      </trkpt>
      <trkpt lat="44.60708" lon="2.46685">
        <ele>608</ele>
        <time>2022-12-09T17:28:37Z</time>
      </trkpt>
      <trkpt lat="44.60699" lon="2.46713">
        <ele>606</ele>
        <time>2022-12-09T17:28:41Z</time>
      </trkpt>
      <trkpt lat="44.60696" lon="2.46734">
        <ele>605</ele>
        <time>2022-12-09T17:28:44Z</time>
      </trkpt>
      <trkpt lat="44.60684" lon="2.46763">
        <ele>604</ele>
        <time>2022-12-09T17:28:48Z</time>
      </trkpt>
      <trkpt lat="44.60668" lon="2.46781">
        <ele>603</ele>
        <time>2022-12-09T17:28:52Z</time>
      </trkpt>
      <trkpt lat="44.60638" lon="2.46802">
        <ele>602</ele>
        <time>2022-12-09T17:28:58Z</time>
      </trkpt>
      <trkpt lat="44.60625" lon="2.46814">
        <ele>602</ele>
        <time>2022-12-09T17:29:00Z</time>
      </trkpt>
      <trkpt lat="44.60614" lon="2.46831">
        <ele>601</ele>
        <time>2022-12-09T17:29:03Z</time>
      </trkpt>
      <trkpt lat="44.60608" lon="2.46846">
        <ele>601</ele>
        <time>2022-12-09T17:29:05Z</time>
      </trkpt>
      <trkpt lat="44.60607" lon="2.46855">
        <ele>601</ele>
        <time>2022-12-09T17:29:07Z</time>
      </trkpt>
      <trkpt lat="44.60609" lon="2.46868">
        <ele>600</ele>
        <time>2022-12-09T17:29:08Z</time>
      </trkpt>
      <trkpt lat="44.60619" lon="2.46898">
        <ele>597</ele>
        <time>2022-12-09T17:29:12Z</time>
      </trkpt>
      <trkpt lat="44.60621" lon="2.46909">
        <ele>596</ele>
        <time>2022-12-09T17:29:14Z</time>
      </trkpt>
      <trkpt lat="44.6062" lon="2.46943">
        <ele>595</ele>
        <time>2022-12-09T17:29:18Z</time>
      </trkpt>
      <trkpt lat="44.60621" lon="2.46961">
        <ele>594</ele>
        <time>2022-12-09T17:29:20Z</time>
      </trkpt>
      <trkpt lat="44.60627" lon="2.46974">
        <ele>593</ele>
        <time>2022-12-09T17:29:22Z</time>
      </trkpt>
      <trkpt lat="44.60639" lon="2.46984">
        <ele>591</ele>
        <time>2022-12-09T17:29:25Z</time>
      </trkpt>
      <trkpt lat="44.60644" lon="2.46991">
        <ele>590</ele>
        <time>2022-12-09T17:29:26Z</time>
      </trkpt>
      <trkpt lat="44.6065" lon="2.47006">
        <ele>588</ele>
        <time>2022-12-09T17:29:28Z</time>
      </trkpt>
      <trkpt lat="44.60651" lon="2.47024">
        <ele>588</ele>
        <time>2022-12-09T17:29:31Z</time>
      </trkpt>
      <trkpt lat="44.60649" lon="2.4705">
        <ele>589</ele>
        <time>2022-12-09T17:29:34Z</time>
      </trkpt>
      <trkpt lat="44.60651" lon="2.47064">
        <ele>588</ele>
        <time>2022-12-09T17:29:36Z</time>
      </trkpt>
      <trkpt lat="44.60664" lon="2.47101">
        <ele>586</ele>
        <time>2022-12-09T17:29:41Z</time>
      </trkpt>
      <trkpt lat="44.60683" lon="2.47174">
        <ele>583</ele>
        <time>2022-12-09T17:29:51Z</time>
      </trkpt>
      <trkpt lat="44.60682" lon="2.47186">
        <ele>582</ele>
        <time>2022-12-09T17:29:52Z</time>
      </trkpt>
      <trkpt lat="44.60677" lon="2.47219">
        <ele>582</ele>
        <time>2022-12-09T17:29:57Z</time>
      </trkpt>
      <trkpt lat="44.60681" lon="2.47243">
        <ele>580</ele>
        <time>2022-12-09T17:30:00Z</time>
      </trkpt>
      <trkpt lat="44.60717" lon="2.47275">
        <ele>574</ele>
        <time>2022-12-09T17:30:07Z</time>
      </trkpt>
      <trkpt lat="44.60731" lon="2.47292">
        <ele>572</ele>
        <time>2022-12-09T17:30:11Z</time>
      </trkpt>
      <trkpt lat="44.60743" lon="2.47313">
        <ele>571</ele>
        <time>2022-12-09T17:30:14Z</time>
      </trkpt>
      <trkpt lat="44.60796" lon="2.47392">
        <ele>570</ele>
        <time>2022-12-09T17:30:28Z</time>
      </trkpt>
      <trkpt lat="44.60809" lon="2.47406">
        <ele>570</ele>
        <time>2022-12-09T17:30:31Z</time>
      </trkpt>
      <trkpt lat="44.60822" lon="2.47417">
        <ele>570</ele>
        <time>2022-12-09T17:30:33Z</time>
      </trkpt>
      <trkpt lat="44.6083" lon="2.47427">
        <ele>569</ele>
        <time>2022-12-09T17:30:35Z</time>
      </trkpt>
      <trkpt lat="44.60836" lon="2.47437">
        <ele>568</ele>
        <time>2022-12-09T17:30:37Z</time>
      </trkpt>
      <trkpt lat="44.60841" lon="2.47452">
        <ele>567</ele>
        <time>2022-12-09T17:30:39Z</time>
      </trkpt>
      <trkpt lat="44.60844" lon="2.47466">
        <ele>566</ele>
        <time>2022-12-09T17:30:41Z</time>
      </trkpt>
      <trkpt lat="44.60853" lon="2.47552">
        <ele>560</ele>
        <time>2022-12-09T17:30:52Z</time>
      </trkpt>
      <trkpt lat="44.60854" lon="2.47572">
        <ele>558</ele>
        <time>2022-12-09T17:30:54Z</time>
      </trkpt>
      <trkpt lat="44.60844" lon="2.47618">
        <ele>556</ele>
        <time>2022-12-09T17:31:01Z</time>
      </trkpt>
      <trkpt lat="44.60833" lon="2.47635">
        <ele>555</ele>
        <time>2022-12-09T17:31:03Z</time>
      </trkpt>
      <trkpt lat="44.60821" lon="2.47646">
        <ele>556</ele>
        <time>2022-12-09T17:31:06Z</time>
      </trkpt>
      <trkpt lat="44.60812" lon="2.47659">
        <ele>556</ele>
        <time>2022-12-09T17:31:08Z</time>
      </trkpt>
      <trkpt lat="44.6081" lon="2.47671">
        <ele>555</ele>
        <time>2022-12-09T17:31:10Z</time>
      </trkpt>
      <trkpt lat="44.6081" lon="2.47683">
        <ele>554</ele>
        <time>2022-12-09T17:31:11Z</time>
      </trkpt>
      <trkpt lat="44.60823" lon="2.47727">
        <ele>546</ele>
        <time>2022-12-09T17:31:17Z</time>
      </trkpt>
      <trkpt lat="44.60823" lon="2.47739">
        <ele>545</ele>
        <time>2022-12-09T17:31:19Z</time>
      </trkpt>
      <trkpt lat="44.60819" lon="2.47751">
        <ele>544</ele>
        <time>2022-12-09T17:31:21Z</time>
      </trkpt>
      <trkpt lat="44.60813" lon="2.4776">
        <ele>545</ele>
        <time>2022-12-09T17:31:22Z</time>
      </trkpt>
      <trkpt lat="44.60802" lon="2.47772">
        <ele>546</ele>
        <time>2022-12-09T17:31:25Z</time>
      </trkpt>
      <trkpt lat="44.60778" lon="2.4779">
        <ele>550</ele>
        <time>2022-12-09T17:31:30Z</time>
      </trkpt>
      <trkpt lat="44.60776" lon="2.47803">
        <ele>550</ele>
        <time>2022-12-09T17:31:31Z</time>
      </trkpt>
      <trkpt lat="44.60776" lon="2.47826">
        <ele>550</ele>
        <time>2022-12-09T17:31:34Z</time>
      </trkpt>
      <trkpt lat="44.60784" lon="2.47884">
        <ele>545</ele>
        <time>2022-12-09T17:31:42Z</time>
      </trkpt>
      <trkpt lat="44.60785" lon="2.47917">
        <ele>543</ele>
        <time>2022-12-09T17:31:46Z</time>
      </trkpt>
      <trkpt lat="44.60783" lon="2.47939">
        <ele>540</ele>
        <time>2022-12-09T17:31:49Z</time>
      </trkpt>
      <trkpt lat="44.60777" lon="2.47975">
        <ele>536</ele>
        <time>2022-12-09T17:31:53Z</time>
      </trkpt>
      <trkpt lat="44.60748" lon="2.48049">
        <ele>530</ele>
        <time>2022-12-09T17:32:04Z</time>
      </trkpt>
      <trkpt lat="44.60723" lon="2.48092">
        <ele>526</ele>
        <time>2022-12-09T17:32:11Z</time>
      </trkpt>
      <trkpt lat="44.60672" lon="2.48136">
        <ele>524</ele>
        <time>2022-12-09T17:32:22Z</time>
      </trkpt>
      <trkpt lat="44.60657" lon="2.48153">
        <ele>523</ele>
        <time>2022-12-09T17:32:25Z</time>
      </trkpt>
      <trkpt lat="44.60637" lon="2.48166">
        <ele>524</ele>
        <time>2022-12-09T17:32:29Z</time>
      </trkpt>
      <trkpt lat="44.6063" lon="2.48179">
        <ele>522</ele>
        <time>2022-12-09T17:32:31Z</time>
      </trkpt>
      <trkpt lat="44.60608" lon="2.48233">
        <ele>517</ele>
        <time>2022-12-09T17:32:39Z</time>
      </trkpt>
      <trkpt lat="44.60596" lon="2.48258">
        <ele>516</ele>
        <time>2022-12-09T17:32:43Z</time>
      </trkpt>
      <trkpt lat="44.60556" lon="2.48327">
        <ele>509</ele>
        <time>2022-12-09T17:32:54Z</time>
      </trkpt>
      <trkpt lat="44.60512" lon="2.48389">
        <ele>506</ele>
        <time>2022-12-09T17:33:05Z</time>
      </trkpt>
      <trkpt lat="44.60491" lon="2.48429">
        <ele>504</ele>
        <time>2022-12-09T17:33:11Z</time>
      </trkpt>
      <trkpt lat="44.60495" lon="2.4844">
        <ele>504</ele>
        <time>2022-12-09T17:33:13Z</time>
      </trkpt>
      <trkpt lat="44.60505" lon="2.48469">
        <ele>505</ele>
        <time>2022-12-09T17:33:17Z</time>
      </trkpt>
      <trkpt lat="44.60529" lon="2.48515">
        <ele>504</ele>
        <time>2022-12-09T17:33:24Z</time>
      </trkpt>
      <trkpt lat="44.60537" lon="2.48527">
        <ele>504</ele>
        <time>2022-12-09T17:33:26Z</time>
      </trkpt>
      <trkpt lat="44.60558" lon="2.48545">
        <ele>504</ele>
        <time>2022-12-09T17:33:31Z</time>
      </trkpt>
      <trkpt lat="44.60566" lon="2.48548">
        <ele>504</ele>
        <time>2022-12-09T17:33:32Z</time>
      </trkpt>
      <trkpt lat="44.60578" lon="2.48548">
        <ele>504</ele>
        <time>2022-12-09T17:33:34Z</time>
      </trkpt>
      <trkpt lat="44.60594" lon="2.48541">
        <ele>502</ele>
        <time>2022-12-09T17:33:37Z</time>
      </trkpt>
      <trkpt lat="44.60616" lon="2.48518">
        <ele>498</ele>
        <time>2022-12-09T17:33:42Z</time>
      </trkpt>
      <trkpt lat="44.60635" lon="2.48507">
        <ele>496</ele>
        <time>2022-12-09T17:33:46Z</time>
      </trkpt>
      <trkpt lat="44.60662" lon="2.48499">
        <ele>492</ele>
        <time>2022-12-09T17:33:51Z</time>
      </trkpt>
      <trkpt lat="44.6067" lon="2.48501">
        <ele>491</ele>
        <time>2022-12-09T17:33:52Z</time>
      </trkpt>
      <trkpt lat="44.60676" lon="2.48508">
        <ele>490</ele>
        <time>2022-12-09T17:33:54Z</time>
      </trkpt>
      <trkpt lat="44.6068" lon="2.48527">
        <ele>489</ele>
        <time>2022-12-09T17:33:56Z</time>
      </trkpt>
      <trkpt lat="44.60679" lon="2.48539">
        <ele>490</ele>
        <time>2022-12-09T17:33:58Z</time>
      </trkpt>
      <trkpt lat="44.60666" lon="2.48571">
        <ele>495</ele>
        <time>2022-12-09T17:34:02Z</time>
      </trkpt>
      <trkpt lat="44.6066" lon="2.48597">
        <ele>496</ele>
        <time>2022-12-09T17:34:06Z</time>
      </trkpt>
      <trkpt lat="44.60662" lon="2.48621">
        <ele>496</ele>
        <time>2022-12-09T17:34:09Z</time>
      </trkpt>
      <trkpt lat="44.60667" lon="2.48636">
        <ele>496</ele>
        <time>2022-12-09T17:34:11Z</time>
      </trkpt>
      <trkpt lat="44.60675" lon="2.48649">
        <ele>494</ele>
        <time>2022-12-09T17:34:13Z</time>
      </trkpt>
      <trkpt lat="44.6069" lon="2.48659">
        <ele>491</ele>
        <time>2022-12-09T17:34:16Z</time>
      </trkpt>
      <trkpt lat="44.60725" lon="2.48676">
        <ele>484</ele>
        <time>2022-12-09T17:34:23Z</time>
      </trkpt>
      <trkpt lat="44.60743" lon="2.48687">
        <ele>481</ele>
        <time>2022-12-09T17:34:26Z</time>
      </trkpt>
      <trkpt lat="44.60753" lon="2.48697">
        <ele>479</ele>
        <time>2022-12-09T17:34:28Z</time>
      </trkpt>
      <trkpt lat="44.6076" lon="2.4871">
        <ele>480</ele>
        <time>2022-12-09T17:34:30Z</time>
      </trkpt>
      <trkpt lat="44.60764" lon="2.48724">
        <ele>480</ele>
        <time>2022-12-09T17:34:32Z</time>
      </trkpt>
      <trkpt lat="44.60765" lon="2.4874">
        <ele>481</ele>
        <time>2022-12-09T17:34:34Z</time>
      </trkpt>
      <trkpt lat="44.60759" lon="2.4877">
        <ele>480</ele>
        <time>2022-12-09T17:34:38Z</time>
      </trkpt>
      <trkpt lat="44.60754" lon="2.48787">
        <ele>479</ele>
        <time>2022-12-09T17:34:41Z</time>
      </trkpt>
      <trkpt lat="44.60748" lon="2.48806">
        <ele>477</ele>
        <time>2022-12-09T17:34:43Z</time>
      </trkpt>
      <trkpt lat="44.60743" lon="2.48813">
        <ele>477</ele>
        <time>2022-12-09T17:34:45Z</time>
      </trkpt>
      <trkpt lat="44.60724" lon="2.48842">
        <ele>474</ele>
        <time>2022-12-09T17:34:50Z</time>
      </trkpt>
      <trkpt lat="44.6067" lon="2.48874">
        <ele>473</ele>
        <time>2022-12-09T17:35:00Z</time>
      </trkpt>
      <trkpt lat="44.60651" lon="2.48892">
        <ele>472</ele>
        <time>2022-12-09T17:35:04Z</time>
      </trkpt>
      <trkpt lat="44.60618" lon="2.48961">
        <ele>466</ele>
        <time>2022-12-09T17:35:15Z</time>
      </trkpt>
      <trkpt lat="44.60582" lon="2.49019">
        <ele>466</ele>
        <time>2022-12-09T17:35:24Z</time>
      </trkpt>
      <trkpt lat="44.60575" lon="2.49038">
        <ele>465</ele>
        <time>2022-12-09T17:35:27Z</time>
      </trkpt>
      <trkpt lat="44.60564" lon="2.49094">
        <ele>460</ele>
        <time>2022-12-09T17:35:34Z</time>
      </trkpt>
      <trkpt lat="44.60557" lon="2.49186">
        <ele>451</ele>
        <time>2022-12-09T17:35:46Z</time>
      </trkpt>
      <trkpt lat="44.60557" lon="2.492">
        <ele>449</ele>
        <time>2022-12-09T17:35:48Z</time>
      </trkpt>
      <trkpt lat="44.60563" lon="2.49246">
        <ele>445</ele>
        <time>2022-12-09T17:35:54Z</time>
      </trkpt>
      <trkpt lat="44.60589" lon="2.49356">
        <ele>440</ele>
        <time>2022-12-09T17:36:08Z</time>
      </trkpt>
      <trkpt lat="44.60602" lon="2.49403">
        <ele>438</ele>
        <time>2022-12-09T17:36:15Z</time>
      </trkpt>
      <trkpt lat="44.60615" lon="2.49435">
        <ele>436</ele>
        <time>2022-12-09T17:36:20Z</time>
      </trkpt>
      <trkpt lat="44.60643" lon="2.4947">
        <ele>433</ele>
        <time>2022-12-09T17:36:26Z</time>
      </trkpt>
      <trkpt lat="44.60649" lon="2.49484">
        <ele>432</ele>
        <time>2022-12-09T17:36:28Z</time>
      </trkpt>
      <trkpt lat="44.60651" lon="2.49494">
        <ele>432</ele>
        <time>2022-12-09T17:36:30Z</time>
      </trkpt>
      <trkpt lat="44.60651" lon="2.49506">
        <ele>431</ele>
        <time>2022-12-09T17:36:31Z</time>
      </trkpt>
      <trkpt lat="44.60648" lon="2.49516">
        <ele>431</ele>
        <time>2022-12-09T17:36:32Z</time>
      </trkpt>
      <trkpt lat="44.60642" lon="2.49524">
        <ele>431</ele>
        <time>2022-12-09T17:36:34Z</time>
      </trkpt>
      <trkpt lat="44.60631" lon="2.49533">
        <ele>430</ele>
        <time>2022-12-09T17:36:36Z</time>
      </trkpt>
      <trkpt lat="44.60546" lon="2.49584">
        <ele>423</ele>
        <time>2022-12-09T17:36:53Z</time>
      </trkpt>
      <trkpt lat="44.60535" lon="2.49594">
        <ele>422</ele>
        <time>2022-12-09T17:36:55Z</time>
      </trkpt>
      <trkpt lat="44.60525" lon="2.49609">
        <ele>422</ele>
        <time>2022-12-09T17:36:58Z</time>
      </trkpt>
      <trkpt lat="44.60518" lon="2.49629">
        <ele>421</ele>
        <time>2022-12-09T17:37:00Z</time>
      </trkpt>
      <trkpt lat="44.60512" lon="2.49661">
        <ele>421</ele>
        <time>2022-12-09T17:37:05Z</time>
      </trkpt>
      <trkpt lat="44.60488" lon="2.49733">
        <ele>426</ele>
        <time>2022-12-09T17:37:15Z</time>
      </trkpt>
      <trkpt lat="44.60484" lon="2.49748">
        <ele>427</ele>
        <time>2022-12-09T17:37:17Z</time>
      </trkpt>
      <trkpt lat="44.6048" lon="2.49789">
        <ele>428</ele>
        <time>2022-12-09T17:37:22Z</time>
      </trkpt>
      <trkpt lat="44.60482" lon="2.49873">
        <ele>430</ele>
        <time>2022-12-09T17:37:33Z</time>
      </trkpt>
      <trkpt lat="44.60486" lon="2.4992">
        <ele>431</ele>
        <time>2022-12-09T17:37:39Z</time>
      </trkpt>
      <trkpt lat="44.60491" lon="2.4994">
        <ele>432</ele>
        <time>2022-12-09T17:37:41Z</time>
      </trkpt>
      <trkpt lat="44.60498" lon="2.49957">
        <ele>433</ele>
        <time>2022-12-09T17:37:44Z</time>
      </trkpt>
      <trkpt lat="44.60512" lon="2.49978">
        <ele>433</ele>
        <time>2022-12-09T17:37:47Z</time>
      </trkpt>
      <trkpt lat="44.60535" lon="2.49996">
        <ele>431</ele>
        <time>2022-12-09T17:37:52Z</time>
      </trkpt>
      <trkpt lat="44.60596" lon="2.50036">
        <ele>424</ele>
        <time>2022-12-09T17:38:04Z</time>
      </trkpt>
      <trkpt lat="44.60615" lon="2.50054">
        <ele>422</ele>
        <time>2022-12-09T17:38:08Z</time>
      </trkpt>
      <trkpt lat="44.60623" lon="2.50066">
        <ele>421</ele>
        <time>2022-12-09T17:38:10Z</time>
      </trkpt>
      <trkpt lat="44.60628" lon="2.50082">
        <ele>420</ele>
        <time>2022-12-09T17:38:12Z</time>
      </trkpt>
      <trkpt lat="44.60631" lon="2.50096">
        <ele>419</ele>
        <time>2022-12-09T17:38:14Z</time>
      </trkpt>
      <trkpt lat="44.60632" lon="2.50114">
        <ele>418</ele>
        <time>2022-12-09T17:38:17Z</time>
      </trkpt>
      <trkpt lat="44.60629" lon="2.50286">
        <ele>421</ele>
        <time>2022-12-09T17:38:38Z</time>
      </trkpt>
      <trkpt lat="44.60632" lon="2.50363">
        <ele>423</ele>
        <time>2022-12-09T17:38:48Z</time>
      </trkpt>
      <trkpt lat="44.60639" lon="2.50387">
        <ele>422</ele>
        <time>2022-12-09T17:38:51Z</time>
      </trkpt>
      <trkpt lat="44.60652" lon="2.50412">
        <ele>420</ele>
        <time>2022-12-09T17:38:55Z</time>
      </trkpt>
      <trkpt lat="44.60662" lon="2.50421">
        <ele>418</ele>
        <time>2022-12-09T17:38:57Z</time>
      </trkpt>
      <trkpt lat="44.60671" lon="2.50428">
        <ele>418</ele>
        <time>2022-12-09T17:38:59Z</time>
      </trkpt>
      <trkpt lat="44.60697" lon="2.50436">
        <ele>416</ele>
        <time>2022-12-09T17:39:04Z</time>
      </trkpt>
      <trkpt lat="44.60708" lon="2.50443">
        <ele>415</ele>
        <time>2022-12-09T17:39:06Z</time>
      </trkpt>
      <trkpt lat="44.60718" lon="2.50454">
        <ele>414</ele>
        <time>2022-12-09T17:39:08Z</time>
      </trkpt>
      <trkpt lat="44.60748" lon="2.50503">
        <ele>409</ele>
        <time>2022-12-09T17:39:17Z</time>
      </trkpt>
      <trkpt lat="44.60753" lon="2.50515">
        <ele>409</ele>
        <time>2022-12-09T17:39:18Z</time>
      </trkpt>
      <trkpt lat="44.60759" lon="2.50546">
        <ele>411</ele>
        <time>2022-12-09T17:39:22Z</time>
      </trkpt>
      <trkpt lat="44.60764" lon="2.50607">
        <ele>411</ele>
        <time>2022-12-09T17:39:30Z</time>
      </trkpt>
      <trkpt lat="44.60774" lon="2.50664">
        <ele>408</ele>
        <time>2022-12-09T17:39:38Z</time>
      </trkpt>
      <trkpt lat="44.60775" lon="2.50702">
        <ele>406</ele>
        <time>2022-12-09T17:39:42Z</time>
      </trkpt>
      <trkpt lat="44.6077" lon="2.50759">
        <ele>401</ele>
        <time>2022-12-09T17:39:50Z</time>
      </trkpt>
      <trkpt lat="44.60763" lon="2.50793">
        <ele>399</ele>
        <time>2022-12-09T17:39:54Z</time>
      </trkpt>
      <trkpt lat="44.6076" lon="2.50804">
        <ele>398</ele>
        <time>2022-12-09T17:39:56Z</time>
      </trkpt>
      <trkpt lat="44.60739" lon="2.5085">
        <ele>400</ele>
        <time>2022-12-09T17:40:03Z</time>
      </trkpt>
      <trkpt lat="44.60734" lon="2.50876">
        <ele>402</ele>
        <time>2022-12-09T17:40:06Z</time>
      </trkpt>
      <trkpt lat="44.60735" lon="2.50891">
        <ele>401</ele>
        <time>2022-12-09T17:40:08Z</time>
      </trkpt>
      <trkpt lat="44.60737" lon="2.50903">
        <ele>401</ele>
        <time>2022-12-09T17:40:10Z</time>
      </trkpt>
      <trkpt lat="44.60743" lon="2.50913">
        <ele>399</ele>
        <time>2022-12-09T17:40:11Z</time>
      </trkpt>
      <trkpt lat="44.6076" lon="2.50933">
        <ele>396</ele>
        <time>2022-12-09T17:40:15Z</time>
      </trkpt>
      <trkpt lat="44.60794" lon="2.50961">
        <ele>390</ele>
        <time>2022-12-09T17:40:22Z</time>
      </trkpt>
      <trkpt lat="44.60803" lon="2.5097">
        <ele>388</ele>
        <time>2022-12-09T17:40:24Z</time>
      </trkpt>
      <trkpt lat="44.60809" lon="2.50981">
        <ele>386</ele>
        <time>2022-12-09T17:40:26Z</time>
      </trkpt>
      <trkpt lat="44.60816" lon="2.51007">
        <ele>383</ele>
        <time>2022-12-09T17:40:29Z</time>
      </trkpt>
      <trkpt lat="44.60816" lon="2.51027">
        <ele>382</ele>
        <time>2022-12-09T17:40:32Z</time>
      </trkpt>
      <trkpt lat="44.60814" lon="2.51046">
        <ele>381</ele>
        <time>2022-12-09T17:40:34Z</time>
      </trkpt>
      <trkpt lat="44.6081" lon="2.51061">
        <ele>380</ele>
        <time>2022-12-09T17:40:36Z</time>
      </trkpt>
      <trkpt lat="44.60791" lon="2.51111">
        <ele>377</ele>
        <time>2022-12-09T17:40:44Z</time>
      </trkpt>
      <trkpt lat="44.60787" lon="2.51127">
        <ele>375</ele>
        <time>2022-12-09T17:40:46Z</time>
      </trkpt>
      <trkpt lat="44.60787" lon="2.51151">
        <ele>371</ele>
        <time>2022-12-09T17:40:49Z</time>
      </trkpt>
      <trkpt lat="44.60799" lon="2.51225">
        <ele>371</ele>
        <time>2022-12-09T17:40:58Z</time>
      </trkpt>
      <trkpt lat="44.60803" lon="2.51242">
        <ele>372</ele>
        <time>2022-12-09T17:41:01Z</time>
      </trkpt>
      <trkpt lat="44.60813" lon="2.51264">
        <ele>375</ele>
        <time>2022-12-09T17:41:04Z</time>
      </trkpt>
      <trkpt lat="44.60827" lon="2.51285">
        <ele>379</ele>
        <time>2022-12-09T17:41:08Z</time>
      </trkpt>
      <trkpt lat="44.60834" lon="2.51292">
        <ele>381</ele>
        <time>2022-12-09T17:41:09Z</time>
      </trkpt>
      <trkpt lat="44.60849" lon="2.51298">
        <ele>382</ele>
        <time>2022-12-09T17:41:12Z</time>
      </trkpt>
      <trkpt lat="44.6086" lon="2.51299">
        <ele>383</ele>
        <time>2022-12-09T17:41:14Z</time>
      </trkpt>
      <trkpt lat="44.60901" lon="2.51285">
        <ele>380</ele>
        <time>2022-12-09T17:41:21Z</time>
      </trkpt>
      <trkpt lat="44.6102" lon="2.51251">
        <ele>379</ele>
        <time>2022-12-09T17:41:43Z</time>
      </trkpt>
      <trkpt lat="44.61034" lon="2.51245">
        <ele>379</ele>
        <time>2022-12-09T17:41:46Z</time>
      </trkpt>
      <trkpt lat="44.61044" lon="2.51237">
        <ele>379</ele>
        <time>2022-12-09T17:41:48Z</time>
      </trkpt>
      <trkpt lat="44.61053" lon="2.51227">
        <ele>378</ele>
        <time>2022-12-09T17:41:50Z</time>
      </trkpt>
      <trkpt lat="44.61059" lon="2.51217">
        <ele>378</ele>
        <time>2022-12-09T17:41:51Z</time>
      </trkpt>
      <trkpt lat="44.61085" lon="2.51159">
        <ele>372</ele>
        <time>2022-12-09T17:42:00Z</time>
      </trkpt>
      <trkpt lat="44.61101" lon="2.51141">
        <ele>372</ele>
        <time>2022-12-09T17:42:04Z</time>
      </trkpt>
      <trkpt lat="44.61149" lon="2.51116">
        <ele>376</ele>
        <time>2022-12-09T17:42:13Z</time>
      </trkpt>
      <trkpt lat="44.61168" lon="2.51102">
        <ele>378</ele>
        <time>2022-12-09T17:42:17Z</time>
      </trkpt>
      <trkpt lat="44.61173" lon="2.51091">
        <ele>378</ele>
        <time>2022-12-09T17:42:18Z</time>
      </trkpt>
      <trkpt lat="44.61176" lon="2.51077">
        <ele>379</ele>
        <time>2022-12-09T17:42:20Z</time>
      </trkpt>
      <trkpt lat="44.61175" lon="2.51055">
        <ele>381</ele>
        <time>2022-12-09T17:42:23Z</time>
      </trkpt>
      <trkpt lat="44.61175" lon="2.5104">
        <ele>381</ele>
        <time>2022-12-09T17:42:25Z</time>
      </trkpt>
      <trkpt lat="44.61171" lon="2.51007">
        <ele>383</ele>
        <time>2022-12-09T17:42:29Z</time>
      </trkpt>
      <trkpt lat="44.61156" lon="2.50977">
        <ele>381</ele>
        <time>2022-12-09T17:42:34Z</time>
      </trkpt>
      <trkpt lat="44.6118" lon="2.51006">
        <ele>384</ele>
        <time>2022-12-09T17:42:39Z</time>
      </trkpt>
      <trkpt lat="44.61191" lon="2.51005">
        <ele>386</ele>
        <time>2022-12-09T17:42:41Z</time>
      </trkpt>
      <trkpt lat="44.61208" lon="2.51036">
        <ele>387</ele>
        <time>2022-12-09T17:42:46Z</time>
      </trkpt>
      <trkpt lat="44.61218" lon="2.51048">
        <ele>388</ele>
        <time>2022-12-09T17:42:49Z</time>
      </trkpt>
      <trkpt lat="44.61224" lon="2.51053">
        <ele>389</ele>
        <time>2022-12-09T17:42:50Z</time>
      </trkpt>
      <trkpt lat="44.6125" lon="2.51059">
        <ele>394</ele>
        <time>2022-12-09T17:42:54Z</time>
      </trkpt>
      <trkpt lat="44.61253" lon="2.51057">
        <ele>394</ele>
        <time>2022-12-09T17:42:55Z</time>
      </trkpt>
      <trkpt lat="44.61256" lon="2.51046">
        <ele>394</ele>
        <time>2022-12-09T17:42:57Z</time>
      </trkpt>
      <trkpt lat="44.61259" lon="2.51041">
        <ele>394</ele>
        <time>2022-12-09T17:42:57Z</time>
      </trkpt>
      <trkpt lat="44.61253" lon="2.51018">
        <ele>393</ele>
        <time>2022-12-09T17:43:00Z</time>
      </trkpt>
      <trkpt lat="44.61253" lon="2.51008">
        <ele>393</ele>
        <time>2022-12-09T17:43:02Z</time>
      </trkpt>
      <trkpt lat="44.61265" lon="2.51015">
        <ele>394</ele>
        <time>2022-12-09T17:43:04Z</time>
      </trkpt>
      <trkpt lat="44.61296" lon="2.51018">
        <ele>396</ele>
        <time>2022-12-09T17:43:10Z</time>
      </trkpt>
    </trkseg>
  </trk>
</gpx>